[[{"header":{"parameterUnit":"m.s-1","parameterCategory":1,"la1":30.6,"la2":29.2853,"lo1":-89.7004,"lo2":-87.6739,"dy":0.0162,"dx":0.0183,"nx":112,"ny":82,"refTime":"2023-08-26T00:00:00:Z","depth":0,"parameterNumber":2,"parameterNumberName":"U-component_of_WINDS"},"data":[0.0,0.0,0.0,0.0,0.0,0.0,0.0,0.0,0.0,0.0,0.0,0.0,0.0,0.0,0.0,0.0,0.0,0.0,0.0,0.0,0.0,0.0,0.0,0.0,0.0,0.0,0.0,0.0,0.0,0.0,0.0,0.0,0.0,0.0,0.0,0.0,0.0,0.0,0.0,0.0,0.0,0.0,0.0,0.0,0.0,0.0,0.0,0.0,0.0,0.0,0.0,0.0,0.0,0.0,0.0,0.0,0.0,0.0,0.0,0.0,0.0,0.0,0.0,0.0,0.0,0.0,0.0,0.0,0.0,0.0,0.0,0.0,0.0,0.0,0.0,0.0,0.0,0.0,0.0,0.0,0.0,0.0,0.0,0.0,0.0,0.0,0.0,0.0,0.0,0.0,5.5857,5.5857,5.5761,5.5703,5.5703,5.5703,5.5838,5.6186,0.0,0.0,0.0,0.0,0.0,0.0,0.0,0.0,0.0,0.0,0.0,0.0,0.0,0.0,0.0,0.0,0.0,0.0,0.0,0.0,0.0,0.0,0.0,0.0,0.0,0.0,0.0,0.0,0.0,0.0,0.0,0.0,0.0,0.0,0.0,0.0,0.0,0.0,0.0,0.0,0.0,0.0,0.0,0.0,0.0,0.0,0.0,0.0,0.0,0.0,0.0,0.0,0.0,0.0,0.0,0.0,0.0,0.0,0.0,0.0,0.0,0.0,0.0,0.0,0.0,0.0,0.0,0.0,0.0,0.0,0.0,0.0,0.0,0.0,0.0,0.0,0.0,0.0,0.0,0.0,0.0,0.0,0.0,0.0,0.0,0.0,0.0,0.0,0.0,0.0,0.0,0.0,0.0,0.0,0.0,0.0,0.0,0.0,0.0,0.0,0.0,0.0,0.0,0.0,5.5722,5.5722,5.5703,5.5703,5.5703,5.5703,5.5838,5.6186,0.0,0.0,0.0,0.0,0.0,0.0,0.0,0.0,0.0,0.0,0.0,0.0,0.0,0.0,0.0,0.0,0.0,0.0,0.0,0.0,0.0,0.0,0.0,0.0,0.0,0.0,0.0,0.0,0.0,0.0,0.0,0.0,0.0,0.0,0.0,0.0,0.0,0.0,0.0,0.0,0.0,0.0,0.0,0.0,0.0,0.0,0.0,0.0,0.0,0.0,0.0,0.0,0.0,0.0,0.0,0.0,0.0,0.0,0.0,0.0,0.0,0.0,0.0,0.0,0.0,0.0,0.0,0.0,0.0,0.0,0.0,0.0,0.0,0.0,0.0,0.0,0.0,0.0,0.0,0.0,0.0,0.0,0.0,0.0,0.0,0.0,0.0,0.0,0.0,0.0,0.0,0.0,0.0,0.0,0.0,0.0,0.0,0.0,0.0,0.0,0.0,0.0,0.0,5.5742,5.5703,5.5703,5.5703,5.5703,5.5703,5.5703,5.5838,5.6186,5.6194,0.0,0.0,0.0,0.0,0.0,0.0,0.0,0.0,0.0,0.0,0.0,0.0,0.0,0.0,0.0,0.0,0.0,0.0,0.0,0.0,0.0,0.0,0.0,0.0,0.0,0.0,0.0,0.0,0.0,0.0,0.0,0.0,0.0,0.0,0.0,0.0,0.0,0.0,0.0,0.0,0.0,0.0,0.0,0.0,0.0,0.0,0.0,0.0,0.0,0.0,0.0,0.0,0.0,0.0,0.0,0.0,0.0,0.0,0.0,0.0,0.0,0.0,0.0,0.0,0.0,0.0,0.0,0.0,0.0,0.0,0.0,0.0,0.0,0.0,0.0,0.0,0.0,0.0,0.0,0.0,0.0,0.0,0.0,0.0,0.0,0.0,0.0,0.0,0.0,0.0,0.0,0.0,0.0,0.0,0.0,0.0,0.0,0.0,0.0,0.0,0.0,0.0,5.5703,5.5703,5.5703,5.5703,5.5703,5.5703,5.5703,5.5818,5.6109,5.6156,0.0,0.0,0.0,0.0,0.0,0.0,0.0,0.0,0.0,0.0,0.0,0.0,0.0,0.0,0.0,0.0,0.0,0.0,0.0,0.0,0.0,0.0,0.0,0.0,0.0,0.0,0.0,0.0,0.0,0.0,0.0,0.0,0.0,0.0,0.0,0.0,0.0,0.0,0.0,0.0,0.0,0.0,0.0,0.0,0.0,0.0,0.0,0.0,0.0,0.0,0.0,0.0,0.0,0.0,0.0,0.0,0.0,0.0,0.0,0.0,0.0,0.0,0.0,0.0,0.0,0.0,0.0,0.0,0.0,0.0,0.0,0.0,0.0,0.0,0.0,0.0,0.0,0.0,0.0,0.0,0.0,0.0,0.0,0.0,0.0,0.0,0.0,0.0,0.0,0.0,0.0,0.0,0.0,0.0,0.0,0.0,0.0,0.0,0.0,0.0,0.0,0.0,5.5703,5.5703,5.5703,5.5703,5.5703,5.5703,5.5703,5.5761,5.5895,5.6097,0.0,0.0,0.0,0.0,0.0,0.0,0.0,0.0,0.0,0.0,0.0,0.0,0.0,0.0,0.0,0.0,0.0,0.0,0.0,0.0,0.0,0.0,0.0,0.0,0.0,0.0,0.0,0.0,0.0,0.0,0.0,0.0,0.0,0.0,0.0,0.0,0.0,0.0,0.0,0.0,0.0,0.0,0.0,0.0,0.0,0.0,0.0,0.0,0.0,0.0,0.0,0.0,0.0,0.0,0.0,0.0,0.0,0.0,0.0,0.0,0.0,0.0,0.0,0.0,0.0,0.0,0.0,0.0,0.0,0.0,0.0,0.0,0.0,0.0,0.0,0.0,0.0,0.0,0.0,0.0,0.0,0.0,0.0,0.0,0.0,0.0,0.0,0.0,0.0,0.0,0.0,0.0,0.0,0.0,0.0,0.0,0.0,0.0,0.0,0.0,0.0,0.0,5.5489,5.5423,5.5662,5.5703,5.5703,5.5703,5.5703,5.5761,5.5876,0.0,0.0,0.0,0.0,0.0,0.0,0.0,0.0,0.0,0.0,0.0,0.0,0.0,0.0,0.0,0.0,0.0,0.0,0.0,0.0,0.0,0.0,0.0,0.0,0.0,0.0,0.0,0.0,0.0,0.0,0.0,0.0,0.0,0.0,0.0,0.0,0.0,0.0,0.0,0.0,0.0,0.0,0.0,0.0,0.0,0.0,0.0,0.0,0.0,0.0,0.0,0.0,0.0,0.0,0.0,0.0,0.0,0.0,0.0,0.0,0.0,0.0,0.0,0.0,0.0,0.0,0.0,0.0,0.0,0.0,0.0,0.0,0.0,0.0,0.0,0.0,0.0,0.0,0.0,0.0,0.0,0.0,0.0,0.0,0.0,0.0,0.0,0.0,0.0,0.0,0.0,0.0,0.0,0.0,0.0,0.0,0.0,0.0,0.0,0.0,0.0,0.0,5.4948,5.5109,5.5212,5.5489,5.5621,5.5703,5.5703,5.5703,5.5742,5.5818,0.0,0.0,0.0,0.0,0.0,0.0,0.0,0.0,0.0,0.0,0.0,0.0,0.0,0.0,0.0,0.0,0.0,0.0,0.0,0.0,0.0,0.0,0.0,0.0,0.0,0.0,0.0,0.0,0.0,0.0,0.0,0.0,0.0,0.0,0.0,0.0,0.0,0.0,0.0,0.0,0.0,0.0,0.0,0.0,0.0,0.0,0.0,0.0,0.0,0.0,0.0,0.0,0.0,0.0,0.0,0.0,0.0,0.0,0.0,0.0,0.0,0.0,0.0,0.0,0.0,0.0,0.0,0.0,0.0,0.0,0.0,0.0,0.0,0.0,0.0,0.0,0.0,0.0,0.0,0.0,0.0,0.0,0.0,0.0,0.0,0.0,0.0,0.0,0.0,0.0,0.0,0.0,0.0,0.0,0.0,0.0,0.0,0.0,0.0,0.0,0.0,0.0,5.3689,5.4547,5.5088,5.5088,5.5466,5.5703,5.5703,5.5703,5.5703,0.0,0.0,0.0,0.0,0.0,0.0,0.0,0.0,0.0,0.0,0.0,0.0,0.0,0.0,0.0,0.0,0.0,0.0,0.0,0.0,0.0,0.0,0.0,0.0,0.0,0.0,0.0,0.0,0.0,0.0,0.0,0.0,0.0,0.0,0.0,0.0,0.0,0.0,0.0,0.0,0.0,0.0,0.0,0.0,0.0,0.0,0.0,0.0,0.0,0.0,0.0,0.0,0.0,0.0,0.0,0.0,0.0,0.0,0.0,0.0,0.0,0.0,0.0,0.0,0.0,0.0,0.0,0.0,0.0,0.0,0.0,0.0,0.0,0.0,0.0,0.0,0.0,0.0,0.0,0.0,0.0,0.0,0.0,0.0,0.0,0.0,0.0,0.0,0.0,0.0,0.0,0.0,0.0,0.0,0.0,0.0,0.0,0.0,0.0,0.0,0.0,0.0,0.0,5.324,5.3873,5.4414,5.5034,5.5212,5.5399,5.5662,5.5703,5.5703,5.5703,0.0,0.0,0.0,0.0,0.0,0.0,0.0,0.0,0.0,0.0,0.0,0.0,0.0,0.0,0.0,0.0,0.0,0.0,0.0,0.0,0.0,0.0,0.0,0.0,0.0,0.0,0.0,0.0,0.0,0.0,0.0,0.0,0.0,0.0,0.0,0.0,0.0,0.0,0.0,0.0,0.0,0.0,0.0,0.0,0.0,0.0,0.0,0.0,0.0,0.0,0.0,0.0,0.0,0.0,0.0,0.0,0.0,0.0,0.0,0.0,0.0,0.0,0.0,0.0,0.0,0.0,0.0,0.0,0.0,0.0,0.0,0.0,0.0,0.0,0.0,0.0,0.0,0.0,0.0,0.0,0.0,0.0,0.0,0.0,0.0,0.0,0.0,0.0,0.0,0.0,0.0,0.0,0.0,0.0,0.0,0.0,0.0,0.0,0.0,0.0,0.0,0.0,5.2348,5.3248,5.3994,5.4528,5.476,5.4952,5.5186,5.5212,5.5212,5.5212,0.0,0.0,0.0,0.0,0.0,0.0,0.0,0.0,0.0,0.0,0.0,0.0,0.0,0.0,0.0,0.0,0.0,0.0,0.0,0.0,0.0,0.0,0.0,0.0,0.0,0.0,0.0,0.0,0.0,0.0,0.0,0.0,0.0,0.0,0.0,0.0,0.0,0.0,0.0,0.0,0.0,0.0,0.0,0.0,0.0,0.0,0.0,0.0,0.0,0.0,0.0,0.0,0.0,0.0,0.0,0.0,0.0,0.0,0.0,0.0,0.0,0.0,0.0,0.0,0.0,0.0,0.0,0.0,0.0,0.0,0.0,0.0,0.0,0.0,0.0,0.0,0.0,0.0,0.0,0.0,0.0,0.0,0.0,0.0,0.0,0.0,0.0,0.0,0.0,0.0,0.0,0.0,0.0,0.0,0.0,0.0,0.0,0.0,0.0,0.0,0.0,0.0,5.123,5.2661,5.3665,5.3795,5.4187,5.4452,5.4503,5.4503,5.4503,5.4503,0.0,0.0,0.0,0.0,0.0,0.0,0.0,0.0,0.0,0.0,0.0,0.0,0.0,0.0,0.0,0.0,0.0,0.0,0.0,0.0,0.0,0.0,0.0,0.0,0.0,0.0,0.0,0.0,0.0,0.0,0.0,0.0,0.0,0.0,0.0,0.0,0.0,0.0,0.0,0.0,0.0,0.0,0.0,0.0,0.0,0.0,0.0,0.0,0.0,0.0,0.0,0.0,0.0,0.0,0.0,0.0,0.0,0.0,0.0,0.0,4.9569,5.0171,0.0,0.0,0.0,0.0,0.0,0.0,0.0,0.0,0.0,0.0,0.0,0.0,0.0,0.0,0.0,0.0,0.0,0.0,0.0,0.0,0.0,0.0,0.0,0.0,0.0,0.0,0.0,0.0,0.0,0.0,0.0,0.0,0.0,0.0,0.0,0.0,0.0,0.0,0.0,0.0,5.0833,5.1753,5.2742,5.3721,5.3869,5.4083,5.4471,5.4503,5.4503,5.4503,5.4597,0.0,0.0,0.0,0.0,0.0,0.0,0.0,0.0,0.0,0.0,0.0,0.0,0.0,0.0,0.0,0.0,0.0,0.0,0.0,0.0,0.0,0.0,0.0,0.0,0.0,0.0,0.0,0.0,0.0,0.0,0.0,0.0,0.0,0.0,0.0,0.0,0.0,0.0,0.0,0.0,0.0,0.0,0.0,0.0,0.0,0.0,0.0,0.0,0.0,0.0,0.0,0.0,0.0,0.0,0.0,0.0,0.0,0.0,0.0,4.8248,4.8674,0.0,0.0,0.0,0.0,0.0,0.0,0.0,0.0,0.0,0.0,0.0,0.0,0.0,0.0,0.0,0.0,0.0,0.0,0.0,0.0,0.0,0.0,0.0,0.0,0.0,0.0,0.0,0.0,0.0,0.0,0.0,0.0,0.0,0.0,0.0,0.0,0.0,0.0,0.0,0.0,5.012,5.0981,5.1864,5.2819,5.3265,5.3604,5.3851,5.3888,5.3888,5.3888,5.4067,0.0,0.0,0.0,0.0,0.0,0.0,0.0,0.0,0.0,0.0,0.0,0.0,0.0,0.0,0.0,0.0,0.0,0.0,0.0,0.0,0.0,0.0,0.0,0.0,0.0,0.0,0.0,0.0,0.0,0.0,0.0,0.0,0.0,0.0,0.0,0.0,0.0,0.0,0.0,0.0,0.0,0.0,0.0,0.0,0.0,0.0,0.0,0.0,0.0,0.0,0.0,0.0,0.0,4.5839,4.6354,4.6372,4.6498,4.6498,4.6354,4.6722,4.6801,4.6729,4.6897,0.0,0.0,0.0,0.0,0.0,0.0,0.0,0.0,0.0,0.0,0.0,0.0,0.0,0.0,0.0,0.0,0.0,0.0,0.0,0.0,0.0,0.0,4.3956,4.4514,4.3645,4.3256,4.5234,0.0,0.0,0.0,0.0,0.0,0.0,0.0,0.0,0.0,0.0,0.0,4.9177,5.0035,5.0887,5.1566,5.2462,5.2999,5.2999,5.3121,5.3206,5.3206,5.3505,5.372,0.0,0.0,0.0,0.0,0.0,0.0,0.0,0.0,0.0,0.0,0.0,0.0,0.0,0.0,0.0,0.0,0.0,0.0,0.0,0.0,0.0,0.0,0.0,0.0,0.0,0.0,0.0,0.0,0.0,0.0,0.0,0.0,4.7742,4.7849,0.0,0.0,0.0,0.0,0.0,0.0,0.0,0.0,0.0,0.0,0.0,0.0,0.0,4.4133,4.4075,4.3574,4.3281,4.3206,4.3623,4.3764,4.3822,4.4584,4.4529,4.3764,4.3829,0.0,4.5401,4.4682,0.0,0.0,0.0,0.0,0.0,0.0,0.0,0.0,0.0,0.0,0.0,0.0,0.0,0.0,0.0,0.0,0.0,0.0,0.0,0.0,0.0,0.0,4.233,4.2423,4.2251,4.2204,4.2486,4.3456,4.4255,4.4255,4.4292,4.461,0.0,0.0,0.0,0.0,0.0,0.0,4.7832,4.8639,4.939,5.0182,5.1455,5.2224,5.2224,5.2831,5.3206,5.3206,5.323,5.3462,5.3777,5.3814,0.0,0.0,0.0,0.0,0.0,0.0,0.0,0.0,0.0,0.0,0.0,0.0,0.0,0.0,0.0,0.0,0.0,0.0,0.0,0.0,0.0,0.0,0.0,0.0,0.0,0.0,0.0,0.0,0.0,4.7591,4.7647,4.7514,4.7003,4.6641,0.0,0.0,0.0,0.0,0.0,0.0,0.0,0.0,0.0,4.1023,4.1134,4.1198,4.1198,4.1533,4.1645,4.1645,4.2267,4.2583,4.2583,4.2953,4.258,4.1629,4.1173,4.0934,4.0975,4.2301,4.2472,4.1957,0.0,0.0,0.0,0.0,4.1927,4.2266,4.083,4.0322,4.0322,4.0322,0.0,0.0,0.0,0.0,0.0,0.0,0.0,4.3273,4.2574,4.1853,4.128,4.128,4.0894,4.0516,4.0516,4.1006,4.1646,4.2659,4.3131,4.3618,4.4514,4.4536,0.0,0.0,0.0,4.5425,4.623,4.7086,4.8063,4.921,5.0289,5.1079,5.1508,5.1825,5.2036,5.2036,5.2399,5.2499,5.2282,5.2631,5.2767,0.0,0.0,0.0,0.0,0.0,0.0,0.0,0.0,0.0,0.0,0.0,0.0,0.0,0.0,0.0,0.0,0.0,0.0,0.0,0.0,0.0,0.0,0.0,0.0,0.0,0.0,0.0,0.0,4.7091,4.6762,4.6928,4.5804,4.5055,0.0,0.0,0.0,0.0,0.0,0.0,3.7769,3.7636,3.7533,3.7253,3.7664,3.7736,3.7454,3.8238,3.8805,3.9095,3.9933,4.0577,4.0872,4.0763,4.0198,3.9139,3.8208,3.7086,3.629,3.93,4.0063,3.94,3.9847,3.9988,3.992,3.9146,3.9352,3.9717,3.7826,3.7192,3.7192,3.7192,3.7192,3.7422,3.8828,0.0,0.0,0.0,0.0,4.1358,4.0691,4.0017,3.9556,3.9556,3.9043,3.8605,3.8605,3.8605,3.916,4.1013,4.1661,4.2307,4.3129,4.319,0.0,4.4262,4.394,4.3786,4.4296,4.5408,4.6525,4.7543,4.8924,4.9959,5.0471,5.0858,5.1086,5.1086,5.1544,5.1593,5.1138,5.1593,5.1593,5.1086,0.0,0.0,0.0,0.0,0.0,0.0,0.0,0.0,0.0,0.0,0.0,0.0,0.0,0.0,0.0,0.0,0.0,0.0,0.0,0.0,0.0,0.0,0.0,0.0,0.0,0.0,0.0,0.0,0.0,4.5387,4.3149,0.0,0.0,0.0,0.0,3.717,3.6368,3.5586,3.4673,3.4605,3.4061,3.2975,3.4061,3.4075,3.2904,3.2975,3.3597,3.4699,3.5627,3.6646,3.7736,3.7403,3.6796,3.5842,3.4685,3.3391,3.2414,3.526,3.6484,3.6406,3.647,3.6456,3.6456,3.6378,3.6378,3.647,3.6341,3.6263,3.6263,3.6263,3.6263,3.647,3.7376,3.7692,0.0,0.0,3.7796,3.7601,3.6676,3.6498,3.642,3.642,3.6355,3.6355,3.6355,3.6355,3.6993,3.9147,3.9538,3.9849,4.0743,0.0,4.1182,4.2029,4.2093,4.2109,4.2157,4.3559,4.4544,4.4638,4.7227,4.8945,4.898,5.0294,5.1086,5.1086,5.1138,5.1138,5.1086,5.1138,5.1138,5.1086,5.1086,0.0,0.0,0.0,0.0,0.0,0.0,0.0,0.0,0.0,0.0,0.0,0.0,0.0,0.0,0.0,0.0,0.0,0.0,0.0,0.0,0.0,0.0,0.0,0.0,0.0,0.0,0.0,0.0,4.3253,4.1581,0.0,3.9503,3.7928,3.611,3.4231,3.2672,3.1422,3.041,3.0325,3.0155,2.9715,3.076,3.1141,3.0711,3.1397,3.1958,3.2388,3.271,3.3093,3.3525,3.3405,3.2791,3.1769,3.1417,3.0553,2.9444,2.9697,3.0699,3.2016,3.2016,3.2016,3.1934,3.1252,3.1406,3.1997,3.1575,3.1467,3.1516,3.1772,3.1782,3.2019,3.298,3.329,3.3444,3.4146,3.4391,3.4241,3.3979,3.3923,3.3923,3.3923,3.4468,3.5023,3.5023,3.5653,3.6448,3.7161,3.7329,3.7577,3.8502,3.8164,3.8341,3.9902,4.0109,4.0346,4.1064,4.2141,4.3055,4.3508,4.5462,4.6875,4.7362,4.8848,4.9739,4.9739,5.0146,5.0202,4.9797,5.0146,5.0202,4.9739,4.9739,4.9739,0.0,0.0,0.0,0.0,0.0,0.0,0.0,0.0,0.0,0.0,0.0,0.0,0.0,0.0,0.0,0.0,0.0,0.0,0.0,0.0,0.0,0.0,0.0,0.0,0.0,4.2625,4.151,4.2053,4.0165,3.8434,3.743,3.5529,3.3463,3.1473,2.9641,2.8259,2.7491,2.7107,2.6654,2.622,2.6944,2.7129,2.6703,2.7375,2.7929,2.8353,2.8353,2.8617,2.8975,2.8533,2.7986,2.7302,2.6868,2.6232,2.5303,2.4536,2.5009,2.6346,2.7536,2.8208,2.8425,2.7752,2.8184,2.9075,2.8726,2.8532,2.8577,2.8903,2.9026,2.9331,3.0036,3.0306,3.0601,3.1312,3.1562,3.1562,3.1562,3.1562,3.1562,3.1562,3.2105,3.2729,3.2729,3.336,3.3913,3.3913,3.5184,3.6406,3.6991,3.6598,3.6796,3.8429,3.8326,3.8634,4.0085,4.0696,4.1374,4.2211,4.3751,4.5014,4.5685,4.7234,4.8308,4.8497,4.9265,4.9462,4.9001,4.9419,4.9462,4.9001,4.8719,4.8513,4.8513,0.0,0.0,0.0,0.0,0.0,0.0,0.0,0.0,0.0,0.0,0.0,0.0,0.0,0.0,0.0,0.0,0.0,0.0,0.0,0.0,0.0,0.0,0.0,4.4089,4.1639,4.029,4.1762,3.8711,3.6082,3.4922,3.2891,3.0854,2.8997,2.7161,2.613,2.613,2.4967,2.3687,2.2568,2.2535,2.1946,2.072,2.0729,2.1337,2.2453,2.2453,2.3074,2.4134,2.2982,2.2351,2.236,2.1147,2.0425,2.0,2.0,1.9701,1.9629,2.3057,2.5086,2.6129,2.6129,2.6822,2.7819,2.7819,2.783,2.7841,2.7841,2.8165,2.8567,2.8589,2.8924,2.9201,2.9304,2.9315,2.9315,2.9315,2.9315,2.9315,2.9315,2.9315,2.9315,2.9315,2.9407,2.9407,2.9407,3.2975,3.6026,3.6026,3.6026,3.6355,3.742,3.676,0.0,3.9002,3.9158,3.9425,4.0523,4.2078,4.3309,4.3978,4.562,4.6815,4.7539,4.8433,4.8923,4.8923,4.8923,4.8923,4.8923,4.8015,4.7589,4.7523,0.0,0.0,0.0,0.0,0.0,0.0,0.0,0.0,0.0,0.0,0.0,0.0,0.0,0.0,0.0,0.0,0.0,0.0,0.0,0.0,0.0,4.21,4.0911,4.1041,3.9528,3.827,3.8163,3.61,3.4298,3.334,3.067,2.8474,2.7241,2.4349,2.2688,2.2688,2.1491,2.0689,2.0348,2.0314,2.0213,1.9878,1.9878,1.9551,1.8883,1.8883,1.8566,1.8025,1.7677,1.7498,1.7598,1.8155,1.783,1.6872,1.685,1.6337,1.5685,1.9412,2.1092,2.1364,2.1364,2.1726,2.2346,2.2346,2.2538,2.2786,2.2786,2.2859,2.3204,2.4382,2.4859,2.5119,2.6355,2.6754,2.6754,2.6754,2.6754,2.6754,2.6754,2.7389,2.8132,2.8132,2.8773,2.9407,2.9407,3.0427,3.128,3.128,3.128,3.1595,3.2717,3.3347,3.4219,3.5637,3.7139,3.8295,3.8546,4.076,4.2463,4.3083,4.4665,4.585,4.656,4.6815,4.6952,4.6952,4.6952,4.6952,4.6952,4.6747,4.6592,0.0,0.0,0.0,0.0,0.0,0.0,0.0,0.0,0.0,0.0,0.0,0.0,0.0,0.0,0.0,0.0,0.0,0.0,0.0,0.0,0.0,0.0,4.1609,4.0065,3.908,3.8012,3.7144,3.6676,3.505,3.3435,3.2096,2.9465,2.7129,2.5146,2.2669,2.1114,2.0567,1.9405,1.8772,1.8772,1.8218,1.794,1.794,1.794,1.7252,1.5973,1.5973,1.5302,1.4046,1.4046,1.4046,1.4046,1.4823,1.4722,1.4052,1.41,1.3634,1.3245,0.0,0.0,0.0,0.0,1.962,1.9895,1.9895,2.0036,2.021,2.021,2.0412,2.0665,2.1648,2.2136,2.254,2.3572,2.396,2.4196,2.4716,2.4815,2.502,2.5538,2.6294,2.6849,2.6849,2.74,2.7851,2.7851,2.7851,0.0,2.7851,2.8669,2.9716,3.0844,3.1683,3.2646,3.4222,3.5653,3.6646,3.7098,3.8929,4.051,4.1445,4.3174,0.0,0.0,0.0,4.6173,4.6173,4.6173,0.0,0.0,0.0,4.5634,4.5634,4.518,0.0,0.0,4.5285,4.5504,0.0,0.0,0.0,0.0,0.0,0.0,0.0,0.0,0.0,0.0,0.0,0.0,0.0,0.0,0.0,0.0,4.1225,3.9814,3.8044,3.7084,3.6554,3.6508,3.4934,3.3115,3.1203,2.8991,2.6456,2.3238,2.1799,2.0567,1.9405,1.8141,0.0,0.0,0.0,1.5832,1.5832,1.5832,1.5146,1.3878,1.3782,1.3006,1.1653,1.156,1.1458,1.1458,1.1653,1.1556,1.1458,1.1653,1.1658,1.1848,1.3102,1.4429,1.5725,1.808,1.8932,1.9031,1.9031,0.0,0.0,1.9031,1.9333,1.9686,1.9821,2.0375,2.0901,2.1172,2.1429,2.1904,2.3167,2.3583,2.3998,2.5226,2.5635,2.5742,2.5742,2.5742,2.5742,2.5742,2.5742,2.5742,2.5742,2.7484,2.9271,3.0232,3.0594,3.1492,3.356,3.4201,3.487,3.5894,3.7021,0.0,3.9521,4.137,4.3017,4.4327,4.5327,4.5889,4.5889,4.5889,4.5889,4.5889,4.5079,4.4662,4.4662,4.3708,4.3329,4.3329,4.5032,4.5416,0.0,0.0,0.0,0.0,0.0,0.0,0.0,0.0,0.0,0.0,0.0,0.0,0.0,0.0,0.0,4.2384,4.0562,3.8879,3.7905,3.7084,3.6384,3.5782,3.4013,3.2409,3.1143,2.8427,2.5732,2.3162,2.1069,1.9314,1.8141,1.685,1.6204,1.6204,1.592,1.5832,1.5832,1.5832,1.5146,1.3872,1.2813,0.0,1.0288,0.9213,0.8726,0.8821,0.9899,0.9805,0.8825,0.9899,1.0386,1.0485,1.175,1.3097,1.4339,1.481,1.5589,1.6567,1.6567,1.6567,1.6567,1.6567,1.6602,1.6883,1.8271,1.8724,0.0,2.0745,2.1246,2.1371,2.198,2.2868,2.3791,2.3998,2.4913,2.5742,2.5742,2.5742,2.5742,2.5742,2.5742,2.5742,2.5742,2.61,2.6466,2.6713,2.7652,2.8844,3.0145,3.2055,3.363,3.4884,3.5908,3.7028,3.8363,3.9592,4.0949,4.2158,4.324,4.3834,4.3834,4.3834,4.3834,4.3834,4.3693,4.363,4.363,4.3394,4.3329,4.3329,4.3693,4.3756,0.0,0.0,0.0,0.0,0.0,0.0,0.0,0.0,0.0,0.0,0.0,4.4732,4.4482,0.0,4.2677,4.2159,4.0526,3.9003,3.7978,3.7084,3.6119,3.489,3.3463,3.1734,2.9682,2.7681,2.5072,2.1505,2.0198,1.8672,1.685,1.6109,1.5832,1.5832,1.5832,1.5832,1.5832,1.5832,1.5146,1.3872,1.3199,1.1843,0.9998,0.9312,0.8627,0.8038,0.8726,0.863,0.8038,0.8726,0.9019,0.9019,0.9702,1.1161,1.3011,1.368,1.4262,1.4949,1.554,1.5832,1.5832,1.5832,1.5832,1.5947,1.6749,1.7191,1.7502,1.8654,1.91,1.9403,2.0452,2.1651,2.2868,2.3583,2.4716,2.5742,2.5742,2.5742,2.5742,2.5742,2.5742,2.5742,2.5742,2.5742,2.5742,2.5742,2.6754,2.7861,2.8412,2.9976,3.1568,3.2845,3.3882,3.5136,3.6696,3.8408,3.9992,4.1529,4.2111,4.2725,4.325,4.3329,4.3329,4.3329,4.3329,4.3329,4.3329,4.3329,4.3329,4.3329,4.3329,4.3329,0.0,0.0,0.0,0.0,0.0,0.0,0.0,4.4524,4.4704,4.3852,4.3992,4.4183,4.3796,4.3269,4.2629,4.1775,4.0535,3.9182,3.7962,3.7084,3.59,3.393,3.3031,3.1343,2.8234,2.7059,2.4639,2.0206,1.967,1.8488,1.6292,1.592,1.5832,1.5832,1.5832,1.5832,1.5832,1.5832,1.5242,1.4262,1.3974,1.2807,1.0774,1.019,0.941,0.8333,0.8137,0.8038,0.8038,0.8038,0.8038,0.8038,0.8038,0.941,1.1653,1.2716,1.3488,1.3974,1.4758,1.5343,1.573,1.5534,1.5629,1.5832,1.5832,1.5999,1.6259,1.6607,1.6881,1.7442,1.9125,2.0641,2.1954,2.3076,2.4501,2.5635,2.5333,2.5528,2.5742,2.5742,2.5742,2.5742,2.5742,2.5742,2.5742,2.5742,2.6572,2.7315,2.7589,2.8412,2.959,3.1033,3.193,3.3389,3.5627,3.7673,3.9504,4.114,4.1253,4.1684,4.2563,4.2644,4.2644,4.2644,4.2644,4.2644,4.2644,4.29,4.2981,4.2981,4.317,4.3329,4.2172,4.2495,4.2686,4.2421,4.315,4.3564,0.0,4.281,4.3177,4.2262,4.2537,4.275,4.2157,4.2021,4.1793,4.1185,3.9918,3.8728,3.7921,3.7084,3.5664,3.3073,3.2664,3.1343,2.8234,2.7059,2.4999,2.1373,2.0124,1.8956,1.7591,1.6386,1.5832,1.5832,1.5832,1.5832,1.5832,1.5832,1.573,1.5534,1.4459,1.3776,1.3392,1.1068,0.9899,0.9706,0.8531,0.8038,0.8038,0.8038,0.8038,0.8038,0.8038,0.892,1.0194,1.0386,1.194,1.3782,1.2721,1.3884,1.5635,1.4459,1.4854,1.5832,1.5832,1.5852,1.5992,1.6547,1.6727,1.7177,1.906,2.0641,2.1752,2.1853,2.389,2.5333,2.4196,2.4815,2.5742,2.5742,2.5742,2.5742,2.5742,2.5742,2.5742,2.5742,2.583,2.6294,2.7494,2.7673,2.868,3.0956,3.13,3.2734,3.6095,3.752,3.8747,3.9972,4.0073,4.0159,4.0246,4.0246,4.0246,4.0246,4.0246,4.0246,4.0246,4.1253,4.1767,4.185,4.282,4.3329,4.1014,4.1121,4.1177,4.0972,4.1257,4.15,4.1065,4.1548,4.1902,4.1376,4.1768,4.2121,4.1853,4.1534,4.1223,4.0984,3.9767,3.8635,3.7921,3.7084,3.5601,3.2933,3.2593,3.1135,2.744,2.6108,2.433,2.1471,2.0215,1.8948,1.7777,1.648,1.5832,1.5832,1.5832,1.5832,1.5832,1.5832,1.5832,1.5825,1.5242,1.4172,1.2716,1.1556,1.0288,0.8825,0.8237,0.8038,0.8038,0.8038,0.8038,0.8038,0.8825,0.9509,1.0096,1.0877,1.2328,1.3974,1.4076,1.486,1.573,1.5146,1.5337,1.5832,1.5832,1.5832,1.5952,1.654,1.6707,1.6935,1.8137,1.942,2.0633,2.155,2.3176,2.4609,2.4815,2.5323,2.5742,2.5742,2.5742,2.5742,2.5742,2.5742,2.5742,2.5742,2.5742,2.5927,2.638,2.6476,2.7389,2.9852,3.1687,3.3456,3.5314,3.6122,3.7248,3.8725,3.8827,3.9183,3.9899,3.9899,3.9899,3.9899,3.9899,3.9899,3.9899,4.0404,4.0575,4.0661,4.1782,4.229,3.9697,3.9698,3.9677,3.9441,3.9546,3.9774,3.9888,4.0215,4.0544,4.0582,4.0909,4.1244,4.134,4.1087,4.0856,4.0685,3.951,3.8414,3.7863,3.6919,3.5389,3.2876,3.2352,3.0751,2.7267,2.5964,2.4265,2.1924,2.0395,1.9131,1.8234,1.6662,1.5832,1.5832,1.5832,1.5832,1.5832,1.5832,1.5832,1.5832,1.5832,1.4663,1.2431,1.1653,1.0386,0.8531,0.8137,0.8432,0.9019,0.8726,0.8726,0.9213,1.0096,1.0774,1.1165,1.2134,1.3102,1.3974,1.4172,1.4657,1.5242,1.4854,1.4956,1.5337,1.573,1.5885,1.6059,1.6567,1.6767,1.7042,1.7956,1.8916,1.993,2.1347,2.2767,2.3998,2.4922,2.543,2.5742,2.5742,2.5742,2.5742,2.5742,2.5742,2.5742,2.5742,2.5742,2.5742,2.5742,2.6014,2.703,2.9131,3.1931,3.3916,3.4598,3.5366,3.629,3.756,3.7586,3.803,3.893,3.893,3.893,3.893,3.893,3.893,3.893,3.9271,3.936,3.9448,4.0561,4.1169,3.8119,3.8168,3.8219,3.7728,3.8183,3.8721,3.8668,3.8712,3.8981,3.961,3.9783,3.9934,4.0118,4.0577,4.0733,4.0204,3.8832,3.7822,3.7822,3.6492,3.4773,3.282,3.1707,3.0263,2.8231,2.7035,2.5473,2.3222,2.0863,1.9497,1.9405,1.7117,1.5832,1.5832,1.5832,1.5832,1.5832,1.5832,1.5832,1.5832,1.5832,1.514,1.3776,1.1161,0.9998,0.9899,0.8531,0.941,1.1658,1.0485,1.0681,1.175,1.1848,1.2624,1.3776,1.3872,1.3878,1.3584,1.1068,1.1843,1.3782,1.2431,1.2909,1.4166,1.5439,1.6032,1.6319,1.662,1.6914,1.7503,1.9133,1.9524,1.993,2.1347,2.2767,2.3683,2.3791,2.4815,2.5742,2.5742,2.5742,2.5742,2.5742,2.5742,2.5742,2.5742,2.5742,2.5742,2.5742,2.6754,2.8049,2.9223,3.1507,3.3373,3.4623,3.5717,3.6439,3.6452,3.6452,3.6452,3.6546,3.6546,3.6546,3.6546,3.6546,3.6546,3.6546,3.7586,3.8107,3.8198,3.936,3.9986,3.7578,3.7253,3.6922,3.6388,3.6444,3.684,3.7672,3.7906,3.8131,3.8832,3.9856,4.0495,3.9986,4.0669,4.1173,4.0685,3.9036,3.7822,3.7822,3.6492,3.5001,3.3671,3.2636,3.1282,2.9245,2.6803,2.5041,2.4296,2.1994,2.0305,1.9588,1.7948,1.6662,1.5832,1.5832,1.5832,1.5832,1.5832,1.5832,1.5825,1.4949,1.4268,1.3878,1.2037,1.1268,1.1263,1.0779,1.1068,1.1853,1.1458,1.1556,1.1945,1.2915,1.3488,1.3974,1.4854,1.5146,1.4949,1.3199,1.3686,1.4949,1.3686,1.4076,1.5242,1.5635,1.6039,1.6333,1.662,1.6921,1.7517,1.914,1.9627,2.0135,2.2466,2.3384,2.389,2.4815,2.543,2.5742,2.5742,2.5742,2.5742,2.5742,2.5742,2.5742,2.5742,2.5742,2.5742,2.5742,2.6849,2.7894,2.855,3.1155,3.3146,3.3869,3.5437,3.6358,3.6358,3.6358,3.6358,3.6358,3.6358,3.6358,3.6358,3.6358,3.6358,3.6358,3.6803,3.6977,3.6977,3.8121,3.8738,3.7097,3.6643,3.6266,3.5739,3.5622,3.5902,3.713,3.7252,3.7419,3.8526,3.9536,4.0121,3.9711,4.0418,4.1004,4.0831,3.9514,3.8388,3.8149,3.7021,3.5631,3.4148,3.3449,3.2338,3.0327,2.7873,2.5981,2.4861,2.26,2.0935,2.0215,1.9047,1.7948,1.7117,1.7109,1.6936,1.648,1.648,1.6292,1.5825,1.4555,1.3878,1.3872,1.2528,1.2139,1.2619,1.2139,1.2431,1.3307,1.2818,1.2915,1.3397,1.4268,1.4561,1.4657,1.5534,1.5832,1.5635,1.4364,1.4459,1.4949,1.4166,1.4459,1.5261,1.5761,1.6192,1.6486,1.678,1.7476,1.8259,1.9376,1.993,2.0947,2.3185,2.3692,2.4097,2.543,2.5742,2.5742,2.5742,2.5742,2.5742,2.5742,2.5742,2.5742,2.5742,2.5742,2.5742,2.5742,2.652,2.7668,2.8796,3.1027,3.2924,3.4135,3.5548,3.6358,3.6358,3.6358,3.6358,3.6358,3.6358,3.6358,3.6358,3.6358,3.6358,3.6358,3.6358,3.6358,3.6452,3.715,3.7507,3.6724,3.6457,3.6291,3.5783,3.5667,3.5924,3.6981,3.6843,3.6916,3.8618,3.8868,3.8942,3.9323,3.9817,4.0253,4.0541,4.0048,3.936,3.8681,3.7915,3.6549,3.4321,3.4027,3.331,3.1536,3.0252,2.827,2.5262,2.2863,2.1471,2.1293,2.0215,1.9579,1.9497,1.9497,1.8948,1.7777,1.7684,1.7131,1.592,1.4657,1.3974,1.3974,1.2721,1.2818,1.3974,1.2624,1.3499,1.573,1.4459,1.4752,1.5832,1.5832,1.5832,1.5832,1.5832,1.5832,1.5635,1.4459,1.3974,1.3974,1.3872,1.398,1.4334,1.5881,1.6585,1.6881,1.717,1.8473,1.9731,1.9834,2.0845,2.2156,2.3484,2.3791,2.4196,2.543,2.5742,2.5742,2.5742,2.5742,2.5742,2.5742,2.5742,2.5742,2.5742,2.5742,2.5742,2.5742,2.6212,2.7435,2.9897,3.1139,3.2808,3.5195,3.6056,3.6358,3.6358,3.6358,3.6358,3.6358,3.6358,3.6358,3.6358,3.6358,3.6358,3.6358,3.6358,3.6358,3.6358,3.6358,3.6358,3.7173,3.6999,3.6882,3.6333,3.6182,3.644,3.7488,3.736,3.7226,3.8007,3.9326,4.0094,3.9318,3.9426,3.9833,4.0483,3.8405,3.6988,3.7874,3.6872,3.5785,3.5198,3.4461,3.3808,3.331,3.0961,2.9207,2.8337,2.5605,2.3124,2.1382,2.1025,2.0395,1.9497,1.9497,1.9314,1.9039,1.8141,1.7505,1.7225,1.5906,1.5343,1.5337,1.4949,1.4949,1.5337,1.4956,1.5146,1.5737,1.5439,1.5534,1.5832,1.5832,1.5832,1.5832,1.5832,1.5832,1.573,1.5439,1.5343,1.5146,1.4166,1.4697,1.5771,1.6149,1.7407,1.8542,1.8622,1.9875,2.1347,2.2366,2.2876,2.3484,2.4913,2.5226,2.5323,2.5635,2.5742,2.5742,2.5742,2.5742,2.5742,2.5742,2.5742,2.5742,2.5742,2.5742,2.5742,2.5742,2.6956,2.8213,2.9212,3.1632,3.3551,3.4643,3.5784,3.6358,3.6358,3.6358,3.6358,3.6358,3.6358,3.6358,3.6358,3.6358,3.6358,3.6358,3.6358,3.6358,3.6358,3.6358,3.6358,3.7323,3.719,3.7152,3.6843,3.6764,3.6943,3.772,3.7685,3.7667,3.8319,3.9442,4.0115,3.9441,3.9328,3.9511,4.0057,3.812,3.6783,3.7566,3.6652,3.583,3.5509,3.4986,3.4461,3.4027,3.2439,3.0948,2.9592,2.7036,2.4935,2.3624,2.3124,2.2513,2.1878,2.1382,2.0854,2.0305,1.9131,1.8503,1.8503,1.7762,1.739,1.739,1.739,1.739,1.739,1.6842,1.6669,1.6669,1.6669,1.6669,1.6669,1.6669,1.6669,1.6574,1.6015,1.5832,1.5832,1.5832,1.6204,1.6407,1.5281,1.5538,1.6417,1.7351,1.836,1.9373,2.0117,2.1402,2.2767,2.3484,2.4097,2.4815,2.5528,2.5742,2.5742,2.5742,2.5742,2.5742,2.5742,2.5742,2.5742,2.5742,2.5742,2.5742,2.5742,2.6366,2.6855,2.6855,2.7903,2.9038,3.0078,3.2443,3.4354,3.5246,3.5966,3.6358,3.6358,3.6358,3.6358,3.6358,3.6358,3.6358,3.6358,3.6358,3.6358,3.6358,3.6358,3.6358,3.6358,3.6358,3.6358,3.7433,3.7379,3.7452,3.7323,3.7285,3.7433,3.7943,3.8011,3.819,3.898,3.9414,3.9645,3.9599,3.9305,3.9166,3.9452,3.8257,3.7314,3.7291,3.6667,3.6068,3.557,3.5509,3.5198,3.4418,3.4148,3.2891,3.0263,2.8385,2.7093,2.6565,2.5378,2.4702,2.4542,2.38,2.2755,2.1569,2.0477,1.9935,1.9761,1.9579,1.9497,1.9497,1.9497,1.9497,1.9405,1.8411,1.7963,1.7963,1.7963,1.7963,1.7963,1.7963,1.787,1.7598,1.6662,1.6197,1.6109,1.6197,1.7059,1.789,1.6849,1.6676,1.7197,1.8955,1.9575,2.0062,2.1568,2.2976,2.3998,2.3998,2.4815,2.5742,2.5742,2.5742,2.5742,2.5742,2.5742,2.5742,2.5742,2.5742,2.5742,2.5742,2.5742,2.5732,2.5917,2.7324,2.8486,2.8742,2.9234,3.0264,3.1765,3.3566,3.5174,3.6263,3.6358,3.6358,3.6358,3.6358,3.6358,3.6358,3.6358,3.6358,3.6358,3.6358,3.6358,3.6358,3.6358,3.6358,3.6358,3.6358,3.6358,3.7977,3.8269,3.8619,3.7943,3.779,3.7977,3.8726,3.8571,3.8534,3.9346,3.9775,3.9922,3.9645,3.8964,3.8551,3.8821,3.6861,3.5464,3.5948,3.5323,3.5064,3.5537,3.5561,3.5653,3.6104,3.4868,3.3794,3.3268,3.2181,3.0075,2.6719,2.5378,2.4372,2.3377,2.4125,2.3953,2.2775,2.2513,2.1957,2.1025,1.9943,1.9497,1.9497,1.9497,1.9497,1.9497,1.9314,1.9222,1.9222,1.9222,1.9222,1.9222,1.9222,1.8596,1.7777,1.858,1.8226,1.7498,1.8495,1.9225,1.9483,1.8331,1.8824,1.9982,2.0687,2.1818,2.2997,2.3258,2.4304,2.5333,2.5333,2.5538,2.5742,2.5742,2.5742,2.5742,2.5742,2.5742,2.5742,2.5742,2.5742,2.5742,2.5742,2.5742,2.6014,2.7125,2.7892,2.8882,3.0323,3.1865,3.2992,3.329,3.4942,3.6156,3.6358,3.6358,3.6358,3.6358,3.6358,3.6358,3.6358,3.6358,3.6358,3.6358,3.6358,3.6358,3.6358,3.6358,3.6358,3.6358,3.6358,3.6358,3.8888,3.9069,3.9264,3.8888,3.8775,3.8906,3.927,3.92,3.9163,3.9735,3.9982,4.0081,4.0063,3.9391,3.8845,3.897,3.694,3.5525,3.62,3.5262,3.4976,3.6027,3.5797,3.5798,3.6523,3.5514,3.4543,3.4027,3.3602,3.2037,2.9127,2.7394,2.6036,2.4893,2.5389,2.5136,2.3963,2.3912,2.3384,2.2217,2.1676,2.1409,2.1409,2.1409,2.1409,2.1311,2.0666,2.0486,2.0486,2.0486,2.0486,2.0486,2.0486,2.0124,1.9588,1.9497,1.9131,1.868,1.9314,2.0196,2.1009,2.0643,2.0754,2.1112,2.218,2.3026,2.389,2.451,2.5226,2.5742,2.5742,2.5742,2.5742,2.5742,2.5742,2.5742,2.5742,2.6197,2.6658,2.6658,2.721,2.7673,2.7673,2.7673,2.7935,2.8831,2.993,3.1099,3.2175,3.3959,3.4881,3.4102,3.5507,3.6358,3.6358,3.6358,3.6358,3.6358,3.6358,3.6358,3.6358,3.6358,3.6358,3.6358,3.6358,3.6358,3.6358,3.6358,3.6358,3.6358,3.6358,3.6358,3.9622,3.9645,3.969,3.9622,3.9599,3.9622,3.9724,3.9724,3.9813,4.0158,4.0215,4.0288,4.0457,3.9967,3.9491,3.932,3.7612,3.6391,3.6565,3.5588,3.5308,3.6571,3.6143,3.6051,3.6781,3.618,3.5365,3.4394,3.4095,3.3073,3.0917,2.9086,2.7602,2.6554,2.6719,2.6295,2.521,2.5368,2.4957,2.381,2.3551,2.3464,2.3474,2.3222,2.3135,2.3047,2.212,2.1667,2.1667,2.1667,2.1667,2.1667,2.1667,2.1569,2.1203,2.0486,2.0133,1.9943,2.0223,2.1272,2.2575,2.2888,2.2572,2.2264,2.3673,2.4097,2.4304,2.543,2.5742,2.5742,2.5742,2.5742,2.5742,2.5742,2.5927,2.611,2.611,2.7125,2.7955,2.7955,2.8773,2.9407,2.9407,2.9407,2.9667,3.0441,3.1903,3.3194,3.4016,3.5429,3.5966,3.4969,3.5763,3.6358,3.6358,3.6358,3.6358,3.6358,3.6358,3.6358,3.6358,3.6358,3.6358,3.6358,3.6358,3.6358,3.6358,3.6358,3.6358,3.6358,3.6358,3.6358,3.9668,3.9819,3.9982,3.9668,3.9599,3.9683,4.007,4.0129,4.0232,4.0581,4.0646,4.0608,4.0508,4.0438,4.0152,3.9407,3.8595,3.7558,3.6103,3.5766,3.5983,3.6684,3.6664,3.6851,3.7626,3.698,3.615,3.5409,3.4543,3.275,2.9834,2.867,2.7602,2.6554,2.7441,2.7441,2.6389,2.7279,2.7279,2.6141,2.5126,2.4617,2.4628,2.3551,2.3135,2.3047,2.296,2.295,2.295,2.295,2.295,2.295,2.295,2.2217,2.1391,2.2403,2.212,2.1293,2.2403,2.3393,2.4171,2.421,2.4417,2.4851,2.5402,2.5528,2.5538,2.5645,2.5742,2.5742,2.5742,2.5742,2.5742,2.5742,2.6572,2.741,2.741,2.8402,2.9223,2.9223,2.9315,2.9407,2.9407,2.9407,2.9942,3.1675,3.2471,3.3486,3.5084,3.5925,3.6358,3.6263,3.6358,3.6358,3.6358,3.6358,3.6358,3.6358,3.6358,3.6358,3.6358,3.6358,3.6358,3.6358,3.6358,3.6358,3.6358,3.6358,3.6358,3.6358,3.6358,3.6358,4.0194,4.023,4.0302,4.0175,4.0214,4.0309,4.0459,4.0539,4.0604,4.0738,4.0758,4.0735,4.0696,4.0658,4.0518,4.0193,3.9435,3.867,3.7989,3.7326,3.7026,3.75,3.7312,3.734,3.7769,3.7492,3.698,3.6228,3.4832,3.3504,3.2297,3.1296,3.034,2.9372,2.977,2.9164,2.7441,2.7936,2.7522,2.6472,2.6058,2.5797,2.5808,2.5389,2.5147,2.5147,2.5147,2.4723,2.4125,2.4125,2.3714,2.3135,2.3135,2.2775,2.2403,2.295,2.2775,2.253,2.325,2.3926,2.4463,2.4727,2.5107,2.5508,2.5684,2.5742,2.5742,2.5742,2.5742,2.5742,2.5742,2.6294,2.6849,2.6849,2.7767,2.868,2.868,2.959,3.0496,3.0496,3.1134,3.1613,3.1613,3.1613,3.2079,3.3506,3.3826,3.4465,3.5825,3.6219,3.6358,3.6358,3.6358,3.6358,3.6358,3.6358,3.6358,3.6358,3.6358,3.6358,3.6358,3.6358,3.6358,3.6358,3.6358,3.6358,3.6358,3.6358,3.6358,3.6358,3.6358,3.6358,4.0581,4.0543,4.0508,4.0562,4.0639,4.0716,4.0773,4.0836,4.0858,4.0857,4.0855,4.0862,4.0804,4.0758,4.0731,4.0731,4.0157,3.9616,3.9407,3.8614,3.8186,3.833,3.8251,3.8225,3.8154,3.7926,3.7456,3.6661,3.5679,3.4919,3.4461,3.4052,3.3115,3.1669,3.1609,3.0768,2.902,2.902,2.8469,2.7464,2.7128,2.6964,2.6964,2.6637,2.6483,2.6483,2.6483,2.6047,2.5294,2.5294,2.4628,2.3637,2.3637,2.3387,2.3135,2.3464,2.3637,2.3677,2.4338,2.4745,2.4914,2.5325,2.554,2.5742,2.5742,2.5742,2.5742,2.5742,2.5742,2.583,2.6197,2.6945,2.7683,2.8049,2.9039,2.9954,2.9954,3.0866,3.1777,3.1777,3.2513,3.3081,3.3081,3.3081,3.3458,3.4562,3.4726,3.5115,3.6219,3.6358,3.6358,3.6358,3.6358,3.6358,3.6358,3.6358,3.6358,3.6358,3.6358,3.6358,3.6358,3.6358,3.6358,3.6358,3.6358,3.6358,3.6358,3.6358,3.6358,3.6358,3.6358,3.6358,4.0696,4.06,4.0543,4.0658,4.0696,4.0754,4.0947,4.1001,4.1003,4.1004,4.0996,4.0969,4.0811,4.0793,4.0801,4.0795,4.0754,4.0412,3.9611,3.9374,3.9258,3.9184,3.9567,3.9622,3.9064,3.8269,3.7456,3.6661,3.7338,3.7115,3.5569,3.6165,3.5344,3.2664,3.2593,3.2105,3.118,3.118,3.0696,2.9792,2.8597,2.8084,2.8016,2.6964,2.6483,2.6483,2.6483,2.6472,2.6472,2.6472,2.5808,2.4787,2.4787,2.4125,2.3222,2.4382,2.4787,2.4957,2.6069,2.6281,2.6114,2.6124,2.5928,2.5742,2.5742,2.5742,2.5742,2.5742,2.5742,2.6014,2.722,2.7589,2.7861,2.9131,3.0316,3.1211,3.1211,3.2152,3.3068,3.3068,3.3081,3.3081,3.3081,3.3081,3.3458,3.4562,3.4726,3.5115,3.6219,3.6358,3.6358,3.6358,3.6358,3.6358,3.6358,3.6358,3.6358,3.6358,3.6358,3.6358,3.6358,3.6358,3.6358,3.6358,3.6358,3.6358,3.6358,3.6358,3.6358,3.6358,3.6358,3.6358,4.0803,4.0735,4.0716,4.0754,4.0831,4.0908,4.0985,4.1072,4.1133,4.1132,4.1133,4.1107,4.0967,4.0866,4.0771,4.0741,4.0705,4.0576,4.0218,3.9876,3.9467,3.899,3.9333,3.9587,3.9489,3.931,3.8917,3.8213,3.7962,3.7589,3.7131,3.6737,3.5679,3.3587,3.3533,3.3101,3.2177,3.2177,3.2033,3.1696,3.0706,3.0253,3.0177,2.9225,2.8791,2.8791,2.8791,2.8279,2.7602,2.7602,2.6953,2.5975,2.5975,2.5724,2.5484,2.5808,2.5975,2.6019,2.6685,2.7134,2.7371,2.771,2.7974,2.8215,2.8215,2.702,2.5742,2.5742,2.6294,2.7125,2.7494,2.8866,3.0135,3.0496,3.1601,3.2513,3.2513,3.2797,3.3081,3.3081,3.3081,3.3081,3.3081,3.3382,3.3884,3.4613,3.5039,3.5554,3.627,3.6358,3.6358,3.6358,3.6358,3.6358,3.6358,3.6358,3.6358,3.6358,3.6358,3.6358,3.6358,3.6358,3.6358,3.6358,3.6358,3.6358,3.6358,3.6358,3.6358,3.6358,3.6358,3.6358,4.0896,4.0834,4.081,4.0858,4.0927,4.1017,4.1061,4.1135,4.1188,4.1125,4.1123,4.1077,4.0955,4.087,4.08,4.0733,4.0714,4.0667,4.0598,4.028,3.9947,3.959,3.9776,4.0078,4.0327,4.0245,3.9951,3.9268,3.8891,3.843,3.7806,3.7322,3.64,3.4984,3.4714,3.4109,3.3171,3.3101,3.2961,3.2593,3.2033,3.1742,3.1669,3.1119,3.0633,3.0355,3.0355,2.9716,0.0,2.8767,2.8108,2.7128,2.7128,2.6883,2.6554,2.6964,2.7128,2.7174,2.7906,2.8298,2.858,2.89,2.9205,2.9407,2.9407,2.8308,2.7115,2.7115,2.7673,2.8402,2.8855,3.0033,3.1311,3.1777,3.2513,3.3081,3.3081,3.3081,3.3081,3.3081,3.3081,3.3081,3.3081,3.3533,3.4085,3.4638,3.519,3.5742,3.6282,3.6358,3.6358,3.6358,3.6358,3.6358,3.6358,3.6358,3.6358,3.6358,3.6358,3.6358,3.6358,3.6358,3.6358,3.6358,3.6358,3.6358,3.6358,3.6358,3.6358,3.6358,3.6358,3.6358,0.0,4.0899,4.084,4.0965,4.1001,4.1017,4.1146,4.1171,0.0,4.1016,4.0997,4.0949,4.081,4.0784,4.0793,4.0773,4.0732,4.0691,4.0684,4.0551,4.0539,4.0692,4.0707,4.0857,4.1306,4.1082,4.0659,3.9999,4.0069,3.9542,3.8076,3.7921,3.7515,3.6783,3.6006,3.5118,3.4095,3.4095,3.3671,3.282,3.2749,3.2678,3.2678,3.2593,3.2105,3.1315,3.1315,3.0771,2.9934,2.9934,2.9263,2.8255,2.8255,2.7614,2.6894,2.7855,2.8255,2.8347,2.9443,2.9738,2.9761,2.9833,2.9718,2.9681,2.9681,2.9498,2.9407,2.9407,2.9498,2.9772,3.0944,3.1311,3.1589,3.2797,3.3081,3.3081,3.3081,3.3081,3.3081,3.3081,3.3081,3.3081,3.3081,3.3571,3.4135,3.465,3.5228,3.5793,3.6483,3.6452,3.6452,3.6546,3.6452,3.6358,3.6358,3.6358,3.6358,3.6358,3.6358,3.6358,3.6358,3.6358,3.6358,3.6358,3.6358,3.6358,3.6358,3.6358,3.6358,3.6358,3.6358,3.6358,4.0851,0.0,4.0801,4.084,4.0845,4.0857,0.0,4.0883,4.0883,4.0858,4.0855,4.0823,4.0737,4.0718,4.0696,4.06,4.0646,4.0655,4.0566,4.0334,4.0119,3.9909,4.0176,4.0517,4.0821,4.1122,4.1309,4.1358,4.0949,4.0525,4.0182,3.9179,3.8564,3.8398,3.7024,3.5976,3.5133,3.5133,3.5067,3.4787,3.4041,3.3671,3.3671,3.2961,3.2464,3.2249,3.2249,3.1756,3.0908,3.0908,3.0317,2.9365,2.9365,2.9287,2.904,2.9287,2.9365,2.9443,2.9702,3.0323,3.11,3.1955,3.2228,3.2239,3.2239,3.0866,2.9407,2.9407,3.0033,3.0855,3.1134,3.1965,3.2698,3.3068,3.3081,3.3081,3.3081,3.3081,3.3081,3.3081,3.3081,3.3081,3.3081,3.3884,3.4575,3.47,3.5542,3.6557,3.7573,3.6977,3.6709,3.7586,3.6883,3.6358,3.6358,3.6358,3.6358,3.6358,3.6358,3.6358,3.6358,3.6358,3.6358,3.6358,3.6358,3.6358,3.6358,3.6358,3.6358,3.6358,3.6358,3.6358,4.0757,4.0783,4.0804,4.0804,4.0804,4.0804,4.0804,4.0804,4.0784,4.0765,4.0764,4.0716,4.0639,4.062,4.0581,4.0508,4.062,4.0674,4.059,4.0318,4.0023,3.9863,4.0247,4.0685,4.1077,4.1421,4.1776,4.2172,4.1664,4.1178,4.0903,3.9884,3.9179,3.8908,3.7774,3.6814,3.6006,3.5668,3.5504,3.5504,3.4986,3.4691,3.4691,3.4192,3.3685,3.3241,3.3241,3.2749,3.1815,3.1815,3.1536,3.1057,3.0633,3.0419,3.0419,2.9934,2.9792,2.9792,2.9792,3.0495,3.1537,3.2403,3.2855,3.3081,3.3081,3.2152,3.1057,3.1057,3.1601,3.2052,3.2052,3.2599,3.3081,3.3081,3.3081,3.3081,3.3081,3.3471,3.3713,3.324,3.3471,3.3713,3.3154,3.4183,3.5172,3.5517,3.6726,3.7907,3.8787,3.8392,3.8211,3.8827,3.8392,3.8043,3.8043,3.7507,3.6977,3.6452,3.6358,3.6358,3.6358,3.6358,3.6358,3.6358,3.6358,3.6358,3.6358,3.6358,3.6358,3.6358,3.6358,3.6358,4.0677,4.0716,4.0754,4.0754,4.0754,4.0754,4.0754,4.0754,4.0719,4.063,4.0611,4.0572,4.046,4.0406,4.0386,4.0489,4.0603,4.0706,4.0719,4.0426,4.0209,4.0189,4.0491,4.0979,4.1667,4.1841,4.2216,4.2849,4.2368,4.1757,4.1206,4.047,3.9834,3.9196,3.8492,3.77,3.6948,3.6243,3.5797,3.5668,3.5668,3.5619,3.5504,3.5504,3.5052,3.4245,3.4245,3.3671,3.282,3.282,3.2749,3.2522,3.1742,3.1389,3.1328,3.0495,3.0152,3.0011,2.9957,3.057,3.1486,3.2039,3.2604,3.3081,3.3081,3.3081,3.3081,3.3081,3.3081,3.3081,3.3081,3.3081,3.3081,3.3081,3.3081,3.3154,3.3313,3.4037,3.4428,3.3556,3.4191,3.4581,3.3556,3.466,3.5973,3.6644,3.798,3.9181,4.0076,3.9986,3.9986,4.0145,3.9986,3.9899,3.9899,3.8917,3.7848,3.6709,3.6546,3.6358,3.6358,3.6358,3.6358,3.6358,3.6358,3.6358,3.6358,3.6358,3.6358,3.6358,3.6358,3.6358,4.0543,4.0543,4.0562,4.0562,4.0562,4.0562,4.0562,4.0562,4.0479,4.0252,4.0196,4.0196,4.0177,3.9924,3.9905,4.0422,4.0604,4.071,4.0777,4.0719,4.0674,4.0616,4.0421,4.0837,4.2246,4.2189,4.2566,4.3732,4.3275,4.2814,4.2422,4.1835,4.1233,4.0603,3.9901,3.9182,3.8564,3.7806,3.7115,3.6446,3.6446,3.6117,3.5504,3.5504,3.5439,3.5279,3.5279,3.4691,3.3808,3.3808,3.331,3.2593,3.2464,3.2393,3.2393,3.2249,3.1683,3.0973,3.0608,3.0884,3.1486,3.2039,3.2604,3.3081,3.3081,3.3081,3.3081,3.3081,3.3081,3.3081,3.3081,3.3081,3.3081,3.3081,3.3081,3.3313,3.4275,3.4594,3.4664,3.4511,3.5278,3.5668,3.4664,3.5789,3.7126,3.7744,3.8418,3.9507,4.1167,4.049,4.0232,4.1253,4.049,3.9899,3.9899,3.9724,3.9094,3.7939,3.6883,3.6358,3.6358,3.6358,3.6358,3.6358,3.6358,3.6358,3.6358,3.6358,3.6358,3.6358,3.6358,3.6358,4.0321,4.0267,4.025,4.0043,4.0266,4.0457,4.0321,4.0267,4.0213,3.9882,3.9819,3.988,4.0081,3.9963,4.0022,4.0518,4.0649,4.0711,4.0785,4.0809,4.0785,4.0752,4.0613,4.0898,4.1829,4.2221,4.2682,4.3301,4.3534,4.3364,4.2732,4.244,4.1853,4.0949,4.0569,4.0101,3.9542,3.9226,3.8246,3.6615,3.6615,3.6446,3.6054,3.5668,3.5733,3.6054,3.5668,3.5213,3.4839,3.4839,3.4558,3.4124,3.3533,3.338,3.331,3.282,3.2033,3.122,3.1572,3.1397,3.1128,3.2201,3.253,3.2667,3.298,3.3081,3.324,3.3797,3.3556,3.3081,3.3081,3.3081,3.324,3.3797,3.3953,3.4262,3.5278,3.6001,3.616,3.5588,3.6383,3.6696,3.5668,3.6619,3.7797,3.8837,3.9719,4.0829,4.2335,4.2044,4.1961,4.2467,4.2044,4.1699,4.1699,4.1169,4.0045,3.8198,3.707,3.6358,3.6358,3.6358,3.6358,3.6358,3.6358,3.6358,3.6358,3.6358,3.6358,3.6358,3.6358,3.6358,4.0158,4.0042,3.9922,3.9668,3.9964,4.023,4.0042,3.9982,3.9901,3.9552,3.9462,3.9576,3.9819,4.0002,4.0196,4.0452,4.0611,4.0718,4.0834,4.0846,4.0844,4.0844,4.0843,4.1039,4.1506,4.2306,4.289,4.3015,4.3726,4.3794,4.3032,4.2921,4.2324,4.1133,4.1133,4.0797,4.0138,4.007,3.9086,3.7128,3.7128,3.7068,3.6859,3.6117,3.6054,3.6554,3.5846,3.5504,3.5504,3.5504,3.5504,3.5424,3.4624,3.4327,3.4259,3.3241,3.2464,3.196,3.2464,3.1997,3.15,3.2802,3.3066,3.3026,3.3604,3.3869,3.4024,3.4815,3.4498,3.3784,3.3556,3.3628,3.394,3.4594,3.4897,3.5373,3.6369,3.7252,3.7587,3.6774,3.742,3.7829,3.6774,3.7496,3.8655,3.9935,4.0882,4.1848,4.3165,4.3329,4.3329,4.3329,4.3329,4.3329,4.3329,4.229,4.0802,3.9067,3.7586,3.6803,3.6803,3.6534,3.6358,3.6358,3.6358,3.6358,3.6358,3.6358,3.6358,3.6358,3.6358,3.6358,4.0101,3.988,3.9622,3.9599,3.9645,3.9668,3.9645,3.9645,3.9552,3.9231,3.9152,3.9133,3.9178,3.9668,4.0062,3.9887,4.0325,4.0776,4.096,4.0994,4.0995,4.0995,4.0996,4.1247,4.1888,4.2695,4.3326,4.3697,4.4234,4.4392,4.3937,4.3594,4.2903,4.175,4.1768,4.1196,4.0121,4.007,3.9662,3.8728,3.8728,3.8358,3.769,3.6919,3.6554,3.6554,3.5846,3.5504,3.5504,3.5504,3.5504,3.5504,3.5424,3.5359,3.5279,3.4245,3.3876,3.3671,3.289,3.2849,3.3307,3.4059,3.4678,3.5219,3.5795,3.5974,3.596,3.6053,3.6053,3.5734,3.4815,3.5278,3.5734,3.4897,3.544,3.6369,3.7434,3.7753,3.7753,3.7677,3.8546,3.8943,3.7904,3.8546,3.9712,4.1099,4.1369,4.1848,4.3165,4.3329,4.3329,4.3329,4.3329,4.3329,4.3329,4.229,4.1504,4.1337,3.9244,3.803,3.803,3.6977,3.6358,3.6358,3.6358,3.6358,3.6358,3.6358,3.6358,3.6358,3.6358,3.6358,3.9534,3.9408,3.9257,3.9073,3.9036,3.9073,3.9257,3.9289,3.9115,3.8487,3.8621,3.8894,3.9072,3.9645,4.0081,3.9984,4.0398,4.0742,4.081,4.0914,4.0996,4.0996,4.1074,4.1189,4.1351,4.2078,4.2681,4.3081,4.3544,4.3856,4.3979,4.366,4.316,4.2382,4.1997,4.1402,4.0625,4.0254,3.9952,3.9662,3.9139,3.8745,3.8469,3.7674,3.7616,3.7987,3.6737,3.6165,3.6165,3.5668,3.5504,3.5504,3.5504,3.5504,3.5424,3.5067,3.4543,3.4027,3.4327,3.3758,3.3176,3.4775,3.5032,3.4941,3.5908,3.6198,3.6369,3.7021,3.7175,3.693,3.5908,3.5894,3.629,3.6554,3.6958,3.7496,3.8546,3.8782,3.8782,3.8782,3.9104,3.9265,3.887,3.9104,3.9723,4.0636,4.1115,4.1713,4.2611,4.309,4.3329,4.3329,4.3329,4.3329,4.3329,4.29,4.2644,4.2644,4.0476,3.8917,3.8107,3.7678,3.715,3.6452,3.6358,3.6358,3.6358,3.6358,3.6358,3.6358,3.6358,3.6358,3.916,3.8915,3.8704,3.8701,3.8578,3.8541,3.8905,3.8971,3.8828,3.8263,3.83,3.8572,3.8905,3.9314,3.9652,3.9901,4.0252,4.0559,4.0681,4.083,4.0922,4.0996,4.1074,4.1094,4.1016,4.1677,4.2309,4.2816,4.3224,4.3725,4.4317,4.3912,4.3406,4.2886,4.2346,4.1793,4.1178,4.0625,4.0368,4.0319,3.9629,3.9262,3.9262,3.8469,3.8414,3.8854,3.7541,3.6843,3.6554,3.6054,3.5733,3.5504,3.5504,3.5504,3.5504,3.5504,3.5067,3.4543,3.5279,3.4624,3.3787,3.5534,3.5769,3.5577,3.6538,3.7082,3.7329,3.8069,3.8308,3.8144,3.7405,3.7238,3.7329,3.7753,3.8069,3.8546,3.9265,3.9424,3.9424,3.9424,3.9424,3.9424,3.9424,3.9424,3.9649,4.0307,4.0965,4.1609,4.2267,4.294,4.3329,4.3329,4.3329,4.3329,4.3329,4.3329,4.3329,4.3329,4.1879,4.0404,3.9244,3.8903,3.8121,3.6977,3.6977,3.6803,3.6358,3.6358,3.6358,3.6358,3.6358,3.6358,3.9099,3.8505,3.8013,3.8546,3.83,3.8032,3.8578,3.8707,3.8707,3.8707,3.8267,3.8065,3.8596,3.8542,3.8681,3.9467,3.988,4.0252,4.0646,4.0696,4.0761,4.0972,4.0996,4.0996,4.0996,4.1661,4.2403,4.315,4.358,4.416,4.5058,4.4382,4.3775,4.322,4.2886,4.2422,4.1793,4.1223,4.0903,4.0903,4.0368,4.0121,4.007,3.9262,3.8908,3.8854,3.8149,3.7338,3.66,3.6615,3.6165,3.5504,3.5504,3.5504,3.5504,3.5504,3.5504,3.5504,3.5504,3.5504,3.5609,3.6267,3.6911,3.7539,3.8197,3.8871,3.9424,3.9424,3.9424,3.9424,3.9424,3.9424,3.9104,3.8069,3.862,3.9424,3.9424,3.9424,3.9424,3.9424,3.9424,3.9424,3.9424,3.9424,3.9649,4.0292,4.095,4.1624,4.2282,4.294,4.3329,4.3329,4.3329,4.3329,4.3329,4.3329,4.3329,4.3329,4.3329,4.2805,4.167,4.049,3.936,3.8107,3.8107,3.7494,3.6358,3.6358,3.6358,3.6358,3.6358,3.6358,3.8255,3.8077,3.7946,3.8099,3.8013,3.7946,3.8099,3.815,3.815,3.815,3.8013,3.8065,3.8596,3.8818,3.9061,3.951,3.988,4.0214,4.0531,4.0639,4.0747,4.0843,4.0944,4.1035,4.1133,4.1174,4.1791,4.323,4.3044,4.3531,4.502,4.4382,4.3937,4.3775,4.3087,4.2616,4.2422,4.1835,4.1313,4.0903,4.0733,4.0449,4.007,3.9833,3.9714,3.9731,3.8924,3.8453,3.8157,3.7068,3.6165,3.5504,3.5504,3.5504,3.5504,3.5504,3.5504,3.5504,3.5504,3.5504,3.5609,3.6267,3.6911,3.7539,3.8197,3.8871,3.9424,3.9424,3.9424,3.9424,3.9424,3.9424,3.9337,3.9017,3.9177,3.9424,3.9424,3.9424,3.9424,3.9424,3.9424,3.9424,3.9424,3.9424,3.9484,3.9679,4.0666,4.1788,4.2895,4.321,4.3329,4.3329,4.3329,4.3329,4.3329,4.3329,4.3329,4.3329,4.3329,4.2805,4.167,4.1253,4.0118,3.8107,3.8107,3.7494,3.6358,3.6358,3.6358,3.6358,3.6358,3.6358,3.7859,3.7614,3.7342,3.7578,3.7452,3.7305,3.7305,3.7596,3.7893,3.7893,3.7893,3.8065,3.8596,3.8789,3.8961,3.9339,3.9668,4.0003,4.0285,4.0396,4.0543,4.0739,4.0863,4.0962,4.1113,4.0974,4.1443,4.2784,4.283,4.335,4.4709,4.4549,4.4373,4.4233,4.3568,4.3141,4.3014,4.2462,4.1979,4.1621,4.1358,4.0967,4.0417,4.0204,4.007,4.007,3.9262,3.8908,3.8799,3.76,3.6814,3.6368,3.607,3.5943,3.5894,3.5619,3.5504,3.5504,3.5504,3.5504,3.5564,3.5968,3.6686,3.7479,3.7883,3.8661,3.9424,3.9424,3.9424,3.9424,3.9424,3.9424,3.9424,3.9424,3.9424,3.9424,3.9424,3.9424,3.9424,3.9424,3.9424,3.9424,3.9424,3.9424,3.9424,3.9424,4.0531,4.1848,4.3165,4.3329,4.3329,4.3329,4.3329,4.3329,4.3329,4.3329,4.3329,4.3329,4.3329,4.2981,4.229,4.229,4.142,3.9508,3.9508,3.8903,3.7782,3.7335,3.7057,3.707,3.6628,3.6358,3.7649,3.7097,3.6539,3.6999,3.6764,3.6392,3.6333,3.7079,3.779,3.7825,3.7911,3.8099,3.8627,3.856,3.8582,3.908,3.9389,3.9731,4.0101,4.0139,4.0289,4.0646,4.0765,4.0857,4.0995,4.0996,4.1304,4.2044,4.2771,4.3528,4.4259,4.4804,4.4943,4.4606,4.4204,4.3818,4.3479,4.3014,4.275,4.2693,4.2162,4.1578,4.0949,4.0417,4.0171,4.007,3.9315,3.8962,3.8854,3.8206,3.7863,3.7764,3.6964,3.6661,3.6554,3.5958,3.5619,3.5504,3.5554,3.5554,3.5504,3.5504,3.6327,3.7345,3.7389,3.8302,3.9334,3.9394,3.9424,3.9424,3.9424,3.9424,3.9424,3.9424,3.9424,3.9424,3.9424,3.9424,3.9424,3.9424,3.9424,3.9424,3.9424,3.9424,3.9439,3.9499,4.0576,4.1833,4.309,4.3299,4.3329,4.3329,4.3329,4.3329,4.3329,4.3329,4.3329,4.3329,4.3329,4.3329,4.3329,4.3329,4.2725,4.1587,4.1587,4.1085,3.9899,3.8827,3.8198,3.8107,3.715,3.6628,3.6684,3.6563,3.6416,3.6539,3.6498,3.6308,3.5854,3.6249,3.6825,3.7248,3.7982,3.8546,3.8676,3.867,3.8836,3.9408,3.9552,3.98,4.0336,4.0406,4.0479,4.0681,4.0771,4.0849,4.0994,4.0996,4.1311,4.2043,4.2781,4.3525,4.4259,4.4804,4.4943,4.4606,4.4204,4.3818,4.3479,4.3375,4.3142,4.2711,4.2577,4.2203,4.1578,4.1013,4.0497,4.007,3.9901,3.9489,3.8908,3.8745,3.8302,3.7748,3.7632,3.716,3.6676,3.7115,3.6554,3.5554,3.6165,3.6006,3.5504,3.5504,3.6043,3.6776,3.727,3.7973,3.8721,3.9275,3.9424,3.9424,3.9424,3.9424,3.9424,3.9424,3.9424,3.9424,3.9424,3.9424,3.9424,3.9424,3.9424,3.9424,3.9424,3.9424,3.9589,4.0113,4.0876,4.1669,4.2462,4.3015,4.3329,4.3329,4.3329,4.3329,4.3329,4.3329,4.3329,4.3329,4.3329,4.3329,4.3329,4.3329,4.2725,4.1587,4.1587,4.1085,3.9899,3.9637,3.9006,3.8107,3.8827,3.8662,3.6333,3.6224,3.6028,3.6028,3.6028,3.5941,3.565,3.6011,3.6498,3.6764,3.7632,3.8382,3.8658,3.8803,3.8952,3.9154,3.9427,3.9712,4.0024,4.0212,4.0375,4.0585,4.0716,4.0842,4.0905,4.1029,4.1227,4.1542,4.2637,4.3448,4.3758,4.4767,4.5201,4.4849,4.4482,4.4106,4.3758,4.3563,4.3375,4.3087,4.3087,4.2619,4.1768,4.1178,4.0625,4.007,4.007,3.985,3.9489,3.9489,3.9279,3.8887,3.8486,3.806,3.77,3.7806,3.7294,3.66,3.6615,3.6337,3.6006,3.6006,3.6447,3.7116,3.7785,3.8454,3.9055,3.9286,3.9424,3.9424,3.9424,3.9424,3.9424,3.9424,3.9424,3.9424,3.9424,3.9424,3.9424,3.9424,3.9424,3.9424,3.9424,3.9424,3.9649,4.0307,4.0965,4.1609,4.2267,4.294,4.3329,4.3329,4.3329,4.3329,4.3329,4.3329,4.3329,4.3329,4.3329,4.3329,4.3329,4.3329,4.2996,4.2452,4.2371,4.2126,4.1532,4.1,4.039,3.9757,3.9885,3.9536,3.6139,3.5941,3.5622,3.5622,3.5622,3.5605,3.5694,3.6097,3.6457,3.6603,3.7305,3.8032,3.8465,3.8836,3.8971,3.8803,3.9242,3.9622,3.9668,3.9963,4.025,4.0473,4.0677,4.0783,4.0796,4.101,4.1113,4.1016,4.249,4.3339,4.3203,4.4739,4.5438,4.5096,4.4849,4.4474,4.3998,4.3726,4.3582,4.3497,4.3497,4.294,4.1937,4.1313,4.0703,4.007,4.007,4.007,4.007,4.007,4.007,4.002,3.9368,3.9032,3.8854,3.8374,3.8035,3.769,3.7188,3.6904,3.6783,3.6783,3.7172,3.7779,3.8605,3.9194,3.9617,3.9652,3.961,3.961,3.9409,3.9424,3.9424,3.9424,3.9424,3.9424,3.9424,3.9424,3.9424,3.9424,3.9424,3.9424,3.9424,3.9424,3.9604,4.0142,4.0891,4.1579,4.2117,4.2865,4.3329,4.3329,4.3329,4.3329,4.3329,4.3329,4.3329,4.3329,4.3329,4.3329,4.3329,4.3329,4.3329,4.3329,4.3329,4.3329,4.3329,4.2371,4.1767,4.1587,4.0831,4.0418,3.5711,3.565,3.5622,3.5622,3.5622,3.5739,3.6182,3.6333,3.6643,3.7524,3.779,3.7911,3.798,3.8428,3.8833,3.9008,3.9358,3.969,4.0002,4.0267,4.0457,4.0489,4.0639,4.0745,4.0796,4.0932,4.1016,4.0996,4.2487,4.3335,4.3201,4.4739,4.5438,4.5096,4.5052,4.4688,4.4016,4.3955,4.3772,4.3497,4.3497,4.3178,4.2577,4.1937,4.1105,4.007,4.007,4.007,4.007,4.007,4.007,4.007,3.9952,3.9489,3.8962,3.9558,3.8941,3.7863,3.8398,3.8173,3.7632,3.7632,3.7695,3.8014,3.9304,3.9766,3.9929,4.0401,4.0569,4.0378,3.961,3.9424,3.9424,3.9424,3.9424,3.9424,3.9424,3.9424,3.9424,3.9424,3.9424,3.9424,3.9424,3.9424,3.9454,3.9544,4.0591,4.1414,4.1504,4.2581,4.3329,4.3329,4.3329,4.3329,4.3329,4.3329,4.3329,4.3329,4.3329,4.3329,4.3329,4.3329,4.3329,4.3329,4.3329,4.3329,4.3329,4.3155,4.2548,4.1587,4.2467,4.2304,3.5622,3.5622,3.5622,3.5622,3.5827,3.6097,3.635,3.6643,3.6981,3.7433,3.772,3.798,3.83,3.8546,3.875,3.8855,3.9117,3.9438,3.9775,4.0062,4.0339,4.0489,4.062,4.0718,4.0784,4.092,4.1035,4.1113,4.2524,4.3369,4.3319,4.4761,4.5531,4.5381,4.5201,4.4924,4.4612,4.4204,4.3818,4.3497,4.3497,4.3214,4.2711,4.244,4.1871,4.103,4.0385,4.0286,4.0528,4.0204,4.007,4.007,4.007,3.9901,3.961,3.9952,3.9679,3.9049,3.8908,3.869,3.8414,3.8414,3.8414,3.869,4.0105,4.0544,4.0658,4.1277,4.108,4.0758,4.0842,4.0516,4.0239,4.0774,4.0842,4.0706,4.0239,3.9737,3.9424,3.9424,3.9424,3.9424,3.9424,3.9424,3.9424,3.9424,4.0531,4.1384,4.1384,4.2521,4.3329,4.3329,4.3329,4.3329,4.3329,4.3329,4.3329,4.3329,4.3329,4.3329,4.3329,4.3329,4.3329,4.3329,4.3329,4.3329,4.3329,4.3329,4.3076,4.2548,4.3076,4.3076,3.5622,3.5622,3.5622,3.5622,3.6011,3.6416,3.6563,3.702,3.7414,3.756,3.7843,3.8234,3.8627,3.8707,3.8707,3.8707,3.8923,3.9212,3.9552,3.9901,4.0195,4.0473,4.06,4.0696,4.0793,4.0901,4.1011,4.1191,4.2596,4.3442,4.3398,4.4837,4.5624,4.5586,4.5362,4.5201,4.5096,4.4354,4.3818,4.3497,4.3497,4.3286,4.2902,4.275,4.2519,4.2185,4.0844,4.0528,4.0856,4.0336,4.007,4.007,4.007,4.007,4.007,4.007,4.007,4.002,3.942,3.9193,3.9193,3.9193,3.9193,3.9475,4.0878,4.1326,4.1453,4.2161,4.1869,4.1478,4.1869,4.1543,4.1213,4.1869,4.1997,4.1739,4.0878,3.999,3.9481,3.9666,3.9737,3.9793,3.999,3.9864,3.9737,3.9737,4.0664,4.1384,4.1384,4.2521,4.3329,4.3329,4.3329,4.3329,4.3329,4.3329,4.3329,4.3329,4.3329,4.3329,4.3329,4.3329,4.3329,4.3329,4.3329,4.3329,4.3329,4.3329,4.3329,4.3329,4.3329,4.3329,3.5622,3.5622,3.5622,3.5622,3.6011,3.6539,3.702,3.7506,3.8032,3.8515,3.8627,3.8676,3.8707,3.8707,3.8707,3.8707,3.8923,3.9212,3.9552,3.9901,4.0195,4.0473,4.0508,4.06,4.0773,4.0809,4.092,4.1171,4.2676,4.3524,4.3395,4.4914,4.5738,4.5586,4.5586,4.5419,4.5096,4.4354,4.3818,4.3497,4.3497,4.3497,4.3444,4.2939,4.2976,4.3321,4.1586,4.0856,4.0856,4.0336,4.007,4.007,4.007,4.007,4.007,4.007,4.007,4.007,4.007,4.002,4.002,4.002,4.002,4.029,4.1777,4.2233,4.2375,4.3072,4.3185,4.297,4.2189,4.1997,4.1933,4.1997,4.1997,4.1739,4.0878,3.999,3.9666,4.05,4.0622,4.0878,4.1739,4.1213,4.0622,4.0622,4.1058,4.1384,4.1384,4.2521,4.3329,4.3329,4.3329,4.3329,4.3329,4.3329,4.3329,4.3329,4.3329,4.3329,4.3329,4.3329,4.3329,4.3329,4.3329,4.3329,4.3329,4.3329,4.3329,4.3329,4.3329,4.3329,3.5622,3.5622,3.5622,3.5622,3.6249,3.6943,3.7152,3.7826,3.8465,3.8658,3.8707,3.8707,3.8707,3.8707,3.8707,3.8707,3.8923,3.9212,3.9552,3.9901,4.0195,4.0473,4.0489,4.0562,4.0716,4.0768,4.0875,4.1054,4.2637,4.3544,4.3416,4.4944,4.5738,4.5586,4.5586,4.5438,4.5096,4.4612,4.4194,4.3836,4.3597,4.3497,4.3479,4.3286,4.3339,4.3444,4.2483,4.1853,4.1446,4.0827,4.0417,4.007,4.007,4.007,4.007,4.007,4.007,4.007,4.007,4.007,4.007,4.007,4.007,4.0273,4.1288,4.1914,4.2453,4.3172,4.3315,4.3366,4.3604,4.3229,4.297,4.3545,4.3229,4.2785,4.2458,4.1674,4.1028,4.0758,4.1147,4.1609,4.1933,4.1739,4.1346,4.0811,4.1601,4.1997,4.1445,4.2521,4.3329,4.3329,4.3329,4.3329,4.3329,4.3329,4.3329,4.3329,4.3329,4.3329,4.3329,4.3329,4.3329,4.3329,4.3329,4.3329,4.3329,4.3329,4.3329,4.3329,4.3329,4.3329,3.5854,3.5739,3.565,3.581,3.6399,3.6999,3.7152,3.7826,3.8496,3.8658,3.8707,3.8707,3.8707,3.8707,3.8707,3.8707,3.8844,3.9117,3.9552,3.9797,4.0062,4.0438,4.0489,4.0562,4.0696,4.0752,4.0848,4.0995,4.2637,4.3587,4.3466,4.4963,4.5757,4.5586,4.5586,4.5438,4.5096,4.4776,4.4419,4.4016,4.3679,4.3497,4.3497,4.3497,4.3497,4.3479,4.3124,4.2637,4.2021,4.1223,4.0703,4.0319,4.0154,4.007,4.007,4.007,4.007,4.007,4.007,4.007,4.007,4.007,4.007,4.0223,4.0984,4.1711,4.2439,4.32,4.3535,4.3873,4.4457,4.4196,4.3873,4.444,4.4138,4.368,4.3366,4.2583,4.1933,4.1609,4.2062,4.252,4.2831,4.2645,4.2125,4.128,4.2008,4.2421,4.152,4.2521,4.3329,4.3329,4.3329,4.3329,4.3329,4.3329,4.3329,4.3329,4.3329,4.3329,4.3329,4.3329,4.3329,4.3329,4.3329,4.3329,4.3329,4.3329,4.3329,4.3329,4.3329,4.3329,0.0,0.0,0.0,3.6291,3.6416,3.6563,3.7097,3.7578,3.8032,3.8596,3.8676,3.8676,3.8707,3.8707,3.8707,3.8689,3.8719,3.8931,3.9505,3.9622,3.9842,4.0422,4.0489,4.0562,4.0677,4.0754,4.0862,4.1013,4.2695,4.369,4.364,4.5066,4.5815,4.5605,4.5586,4.5438,4.5118,4.4781,4.4401,4.3998,4.3679,4.3513,4.3497,4.3497,4.3497,4.3497,4.3497,4.3214,4.2616,4.1446,4.0949,4.0856,4.0319,4.0121,4.0121,4.0121,4.0121,4.007,4.007,4.007,4.007,4.007,4.007,4.0206,4.095,4.1694,4.2439,4.3183,4.3961,4.4587,4.4587,4.4587,4.4587,4.4587,4.4587,4.4384,4.3502,4.2645,4.2332,4.3108,4.3306,4.3621,4.444,4.3889,4.3047,4.2189,4.2406,4.2421,4.152,4.2521,4.3329,4.3329,4.3329,4.3329,4.3329,4.3329,4.3329,4.3329,4.3329,4.3329,4.3329,4.3329,4.3329,4.3329,4.3329,4.3329,4.3329,4.3329,4.3329,4.3329,4.3329,4.3329,3.6865,0.0,0.0,0.0,0.0,0.0,3.7614,3.7542,3.7632,3.8515,3.8382,3.8234,3.8627,3.8707,3.8762,3.8961,3.9197,3.9427,3.9576,3.9984,4.03,4.0489,4.0489,4.0508,4.0562,4.0696,4.1087,4.176,4.2976,4.3918,4.443,4.5326,4.5757,4.5586,4.5586,4.5568,4.5457,4.5118,4.4781,4.4447,4.4046,4.3726,4.3497,4.3497,4.3497,4.3497,4.3497,4.341,4.3214,4.2501,4.1937,4.1534,4.1375,4.1059,4.0703,4.0703,4.0449,4.007,4.007,4.007,4.007,4.007,4.007,4.0121,4.0324,4.1271,4.2337,4.254,4.3555,4.4587,4.4587,4.4587,4.4587,4.4587,4.4587,4.4514,4.431,4.4064,4.3739,4.3366,4.3814,4.4327,4.457,4.4384,4.3931,4.3047,4.3329,4.3355,4.2479,4.2878,4.3551,4.4297,4.3693,4.363,4.4297,4.3693,4.3329,4.3329,4.3329,4.3329,4.3329,4.3329,4.3329,4.3329,4.3329,4.3329,4.3329,4.3329,4.3329,4.3329,4.3329,4.3329,3.7396,3.736,3.7248,3.7433,0.0,0.0,3.7975,3.7889,3.7938,3.8886,3.882,3.8696,3.9017,3.9091,3.9127,3.9282,3.9599,3.9797,3.9797,4.012,4.0372,4.0489,4.0562,4.0581,4.0581,4.0773,4.1244,4.2125,4.3123,4.4174,4.5275,4.5712,4.5853,4.5699,4.568,4.5643,4.5586,4.5282,4.4988,4.4781,4.4428,4.4046,4.3693,4.3693,4.3612,4.3497,4.3497,4.3497,4.3497,4.3178,4.2675,4.2162,4.1895,4.1446,4.0903,4.0903,4.0577,4.007,4.007,4.007,4.007,4.007,4.007,4.007,4.007,4.1119,4.2286,4.2286,4.3403,4.4587,4.4587,4.4587,4.4587,4.4587,4.4587,4.4587,4.4587,4.4587,4.4457,4.3931,4.4253,4.4587,4.4587,4.4587,4.431,4.3426,4.4054,4.4294,4.3371,4.4002,4.4765,4.5358,4.484,4.4555,4.4812,4.4297,4.3771,4.3329,4.3329,4.3329,4.3329,4.3329,4.3329,4.3329,4.3329,4.3329,4.3329,4.3329,4.3329,4.3329,4.3329,4.3329,3.8029,3.772,3.747,3.791,3.7702,0.0,3.8264,3.8383,3.8545,3.9339,3.9438,3.9438,3.9529,3.9529,3.9529,3.9645,3.9861,4.0061,4.0101,4.012,4.0232,4.0473,4.062,4.0696,4.0696,4.0966,4.1501,4.2379,4.3395,4.4609,4.6016,4.6105,4.6008,4.5808,4.5813,4.5738,4.5586,4.5302,4.5137,4.5096,4.48,4.4447,4.4016,4.4016,4.3836,4.3497,4.3497,4.3497,4.3497,4.3497,4.3214,4.275,4.2203,4.156,4.0995,4.0995,4.0625,4.007,4.007,4.007,4.007,4.007,4.007,4.007,4.007,4.1052,4.2202,4.2371,4.3453,4.4587,4.4587,4.4587,4.4587,4.4587,4.4587,4.4587,4.4587,4.4587,4.4587,4.4587,4.4587,4.4587,4.4587,4.4587,4.4327,4.3562,4.4587,4.5113,4.4377,4.5394,4.6244,4.6314,4.6244,4.5905,4.5153,4.502,4.451,4.3551,4.3488,4.3409,4.3329,4.3329,4.3329,4.3329,4.3329,4.3329,4.3329,4.3329,4.3329,4.3329,4.3329,4.3329,3.8696,3.8621,3.846,3.8792,3.8511,0.0,3.8585,3.8168,3.7962,3.8718,3.853,3.8425,3.908,3.9017,3.9119,3.988,3.9819,3.9797,4.0061,4.0286,4.0441,4.0489,4.062,4.0696,4.0696,4.152,4.2418,4.3281,4.4863,4.5879,4.6094,4.6102,4.6001,4.5803,4.5796,4.5738,4.5586,4.555,4.5381,4.5096,4.503,4.4638,4.4016,4.4016,4.3836,4.3497,4.3497,4.3497,4.3497,4.3497,4.3444,4.3321,4.3196,4.2562,4.1621,4.1621,4.0984,4.007,4.007,4.007,4.007,4.007,4.007,4.007,4.007,4.0713,4.166,4.2861,4.3859,4.4587,4.4587,4.4587,4.4587,4.4587,4.4587,4.4587,4.4587,4.4587,4.4587,4.4587,4.4587,4.4587,4.4587,4.4587,4.457,4.4384,4.497,4.5368,4.5177,4.5737,4.6454,4.7239,4.6678,4.6454,4.7036,4.633,4.5561,4.4586,4.451,4.4143,4.3329,4.3329,4.3329,4.3329,4.3329,4.3329,4.3329,4.3329,4.3329,4.3329,4.3329,4.3329,3.9193,3.9249,3.9189,3.9333,3.9175,0.0,0.0,3.9119,3.8999,3.9491,3.9387,3.9306,3.9721,3.9694,3.9757,4.0232,4.0176,4.012,4.0267,4.0425,4.0489,4.0489,4.0658,4.0752,4.075,4.1713,4.2899,4.4191,4.5545,4.6269,4.6191,4.6191,4.6126,4.5961,4.588,4.5796,4.5699,4.5624,4.5513,4.5342,4.5342,4.5077,4.4542,4.4373,4.4106,4.3758,4.3563,4.3497,4.3497,4.3497,4.3497,4.3497,4.3497,4.2995,4.2262,4.2262,4.1682,4.0938,4.0938,4.0938,4.0891,4.0594,4.0497,4.0449,4.0154,4.0865,4.1982,4.3098,4.3978,4.4587,4.4587,4.4587,4.4587,4.4587,4.4587,4.4587,4.4587,4.4587,4.4587,4.4587,4.4587,4.4587,4.4587,4.4587,4.4587,4.4587,4.5438,4.6118,4.6118,4.6974,4.7803,4.8225,4.7868,4.7589,4.7589,4.7172,4.647,4.5561,4.5488,4.5064,4.4066,4.4066,4.3771,4.3329,4.3329,4.3329,4.3329,4.3329,4.3329,4.3329,4.3329,4.3329,3.9599,3.9645,3.9622,3.9668,3.9709,3.9754,0.0,0.0,0.0,4.0302,4.0336,4.0336,4.0406,4.0353,4.0353,4.0489,4.0457,4.0441,4.0489,4.0489,4.0489,4.0489,4.0677,4.0803,4.0796,4.1931,4.3379,4.5117,4.5898,4.6308,4.6308,4.6308,4.623,4.6094,4.5968,4.588,4.5796,4.568,4.5586,4.5586,4.5586,4.5419,4.5096,4.4732,4.4373,4.3986,4.3646,4.3497,4.3497,4.3497,4.3497,4.3497,4.3497,4.3178,4.2711,4.2711,4.2302,4.181,4.181,4.181,4.1707,4.1223,4.0995,4.078,4.0237,4.1119,4.2422,4.3031,4.3859,4.4587,4.4587,4.4587,4.4587,4.4587,4.4587,4.4587,4.4587,4.4587,4.4587,4.4587,4.4587,4.4587,4.4587,4.4587,4.4587,4.4587,4.5838,4.6786,4.6786,4.8088,4.9001,4.9001,4.9001,4.8719,4.7933,4.7868,4.7456,4.6523,4.6454,4.6048,4.5079,4.5095,4.4721,4.3897,4.3834,4.3756,4.363,4.3756,4.3693,4.3329,4.3329,4.3329,3.9943,3.9819,3.9668,3.9982,4.0042,3.9982,3.9731,0.0,4.0022,3.9757,0.0,3.9778,4.0081,0.0,0.0,4.0422,4.0304,4.0232,4.0473,4.0489,4.0489,4.0489,4.0677,4.0803,4.0796,4.2477,4.4277,4.6016,4.623,4.6308,4.6308,4.6308,4.623,4.6094,4.5962,4.5866,4.5796,4.568,4.5586,4.5586,4.5586,4.5419,4.5096,4.4732,4.4373,4.3986,4.3646,4.3497,4.3497,4.3497,4.3497,4.3497,4.3497,4.3178,4.2711,4.2711,4.2302,4.181,4.181,4.181,4.181,4.1707,4.1358,4.078,4.0237,4.1119,4.2303,4.2388,4.347,4.4587,4.4587,4.4587,4.4587,4.4587,4.4587,4.4587,4.4587,4.4587,4.4587,4.4587,4.4587,4.4587,4.4587,4.4587,4.4587,4.4587,4.5838,4.6786,4.6786,4.8088,4.9001,4.9001,4.9001,4.894,4.8861,4.8861,4.8433,4.7523,4.744,4.702,4.6103,4.6048,4.5977,4.5889,4.5889,4.5488,4.4662,4.5473,4.4958,4.3329,4.3329,4.3329,4.025,4.0288,4.0272,4.0417,4.0473,4.0475,4.0329,4.0403,4.0475,4.0272,0.0,0.0,0.0,0.0,0.0,0.0,4.0425,4.0372,4.0489,4.0581,4.062,4.062,4.1139,4.1906,4.3025,4.3922,4.4961,4.6211,4.6308,4.6308,4.6308,4.6308,4.6269,4.6211,4.608,4.5963,4.5853,4.5757,4.568,4.5586,4.5586,4.5532,4.5362,4.483,4.4501,4.4337,4.3744,4.3497,4.3497,4.3497,4.3497,4.3497,4.3497,4.3375,4.3178,4.3178,4.2995,4.2772,4.2772,4.2772,4.2696,4.2003,4.1402,4.078,4.0237,4.0815,4.1745,4.2168,4.3064,4.4012,4.4468,4.4587,4.4587,4.4587,4.4587,4.4587,4.4587,4.4587,4.4587,4.4587,4.4587,4.4587,4.4587,4.4587,4.4587,4.4587,4.5838,4.6786,4.6786,4.8088,4.9001,4.9001,4.9001,4.9001,4.9001,4.9001,4.8861,4.8433,4.7868,4.744,4.702,4.6454,4.6173,4.6173,4.6173,4.6048,4.5634,4.6048,4.5746,4.4974,4.4419,4.3849,4.0495,4.0639,4.0727,4.0731,4.0745,4.0797,4.0797,4.0797,4.0797,4.0725,4.0733,0.0,0.0,0.0,4.0581,4.0581,0.0,4.0581,4.0581,4.0677,4.0716,4.0696,4.1524,4.2811,4.4665,4.4941,4.5351,4.623,4.6308,4.6308,4.6308,4.6308,4.6308,4.6308,4.6172,4.6041,4.5896,4.5828,4.5738,4.5586,4.5586,4.5586,4.5586,4.4988,4.4701,4.4553,4.3931,4.3597,4.3497,4.3497,4.3497,4.3497,4.3497,4.3497,4.3497,4.3497,4.3497,4.3497,4.3497,4.3497,4.3356,4.2364,4.1621,4.1087,4.0672,4.0964,4.1631,4.2552,4.3218,4.3844,4.4664,4.472,4.4587,4.4587,4.4587,4.4587,4.4587,4.4587,4.4587,4.4587,4.4587,4.4587,4.4587,4.4587,4.4587,4.4587,4.5838,4.6786,4.6786,4.8088,4.9001,4.9001,4.9001,4.9001,4.9001,4.9001,4.9001,4.9001,4.837,4.7998,4.7998,4.7306,4.6952,4.6952,4.6952,4.6815,4.6592,4.6815,4.6662,4.6173,4.5488,4.4646,4.0696,4.0735,4.0805,4.0791,4.0805,4.0805,4.0805,4.0805,4.0805,4.0805,4.0796,4.0793,4.0793,4.0793,4.0793,4.0793,4.0793,0.0,0.0,4.0793,4.0773,4.0716,4.1651,4.2997,4.4821,4.5,4.5351,4.623,4.6308,4.6308,4.6308,4.6308,4.6308,4.6308,4.6172,4.6036,4.589,4.5815,4.5738,4.5586,4.5586,4.5586,4.5586,4.5243,4.4919,4.458,4.4146,4.3804,4.3497,4.3497,4.3497,4.3497,4.3497,4.3497,4.3497,4.3497,4.3497,4.3497,4.3497,4.3497,4.341,4.2864,4.2244,4.175,4.175,4.189,4.2367,4.3673,4.4135,4.4474,4.5269,4.5052,4.4587,4.4587,4.4587,4.4587,4.4587,4.4587,4.4587,4.4587,4.4587,4.4587,4.4587,4.4587,4.4587,4.4587,4.5838,4.6786,4.6786,4.8088,4.9001,4.9001,4.9001,4.9001,4.9001,4.9001,4.9001,4.9001,4.9001,4.894,4.894,4.894,4.894,4.894,4.894,4.8433,4.7589,4.845,4.8015,4.6173,4.6173,4.5634,0.0,0.0,4.092,4.0932,4.0996,4.1055,4.1055,4.1055,4.1035,4.0957,4.0933,4.0916,4.083,4.0789,4.0789,4.0789,4.0789,4.0789,0.0,4.0874,4.1359,4.2546,4.3011,4.389,4.5576,4.5811,4.5976,4.6289,4.6308,4.6308,4.6308,4.6308,4.6308,4.6308,4.6269,4.6134,4.5899,4.5887,4.5776,4.5586,4.5586,4.5586,4.5586,4.5243,4.4919,4.458,4.4175,4.3804,4.3497,4.3497,4.3497,4.3497,4.3497,4.3497,4.3497,4.3497,4.3497,4.3497,4.3497,4.3497,4.341,4.2864,4.2577,4.2302,4.1937,4.1876,4.222,4.3668,4.4124,4.4353,4.5267,4.5372,4.5089,4.4665,4.4587,4.4587,4.4587,4.4587,4.4587,4.4587,4.4587,4.4587,4.4587,4.4587,4.4587,4.4587,4.5838,4.6786,4.6786,4.8088,4.9001,4.9001,4.9001,4.9001,4.9001,4.9001,4.9001,4.9001,4.9001,4.9001,4.9001,4.9001,4.9001,4.9001,4.9001,4.8861,4.8513,4.8861,4.8656,4.808,4.808,4.69,4.0851,4.0965,0.0,4.1072,4.115,4.1191,4.1191,4.1191,4.1172,4.1094,4.1074,4.1033,4.0964,4.093,4.093,4.093,4.093,4.0929,0.0,4.1029,4.1738,4.3493,4.37,4.4354,4.6016,4.6245,4.6308,4.6308,4.6308,4.6308,4.6308,4.6308,4.6308,4.6308,4.6308,4.6184,4.5961,4.5918,4.5815,4.568,4.5605,4.5586,4.5586,4.5381,4.5096,4.4757,4.4508,4.4204,4.3868,4.3726,4.3679,4.3679,4.3548,4.3497,4.3497,4.3497,4.3497,4.3497,4.3497,4.3497,4.3444,4.3105,4.2864,4.2655,4.2444,4.2266,4.2376,4.3524,4.4121,4.4582,4.5182,4.5431,4.5407,4.4998,4.4776,4.4587,4.4587,4.4587,4.4587,4.4587,4.4587,4.4587,4.4587,4.4587,4.4587,4.4587,4.5838,4.6786,4.6786,4.8088,4.9001,4.9001,4.9001,4.9001,4.9001,4.9001,4.9001,4.9001,4.9001,4.9001,4.9001,4.9001,4.8883,4.8612,4.8883,4.8883,4.8612,4.8883,4.9001,4.9001,4.9001,4.7671]},{"header":{"parameterUnit":"m.s-1","parameterCategory":1,"la1":30.6,"la2":29.2853,"lo1":-89.7004,"lo2":-87.6739,"dy":0.0162,"dx":0.0183,"nx":112,"ny":82,"refTime":"2023-08-26T00:00:00:Z","depth":0,"parameterNumber":3,"parameterNumberName":"V-component_of_WINDS"},"data":[0.0,0.0,0.0,0.0,0.0,0.0,0.0,0.0,0.0,0.0,0.0,0.0,0.0,0.0,0.0,0.0,0.0,0.0,0.0,0.0,0.0,0.0,0.0,0.0,0.0,0.0,0.0,0.0,0.0,0.0,0.0,0.0,0.0,0.0,0.0,0.0,0.0,0.0,0.0,0.0,0.0,0.0,0.0,0.0,0.0,0.0,0.0,0.0,0.0,0.0,0.0,0.0,0.0,0.0,0.0,0.0,0.0,0.0,0.0,0.0,0.0,0.0,0.0,0.0,0.0,0.0,0.0,0.0,0.0,0.0,0.0,0.0,0.0,0.0,0.0,0.0,0.0,0.0,0.0,0.0,0.0,0.0,0.0,0.0,0.0,0.0,0.0,0.0,0.0,0.0,-0.9849,-0.9849,-0.9832,-0.9822,-0.9822,-0.9822,-0.9846,-0.9781,0.0,0.0,0.0,0.0,0.0,0.0,0.0,0.0,0.0,0.0,0.0,0.0,0.0,0.0,0.0,0.0,0.0,0.0,0.0,0.0,0.0,0.0,0.0,0.0,0.0,0.0,0.0,0.0,0.0,0.0,0.0,0.0,0.0,0.0,0.0,0.0,0.0,0.0,0.0,0.0,0.0,0.0,0.0,0.0,0.0,0.0,0.0,0.0,0.0,0.0,0.0,0.0,0.0,0.0,0.0,0.0,0.0,0.0,0.0,0.0,0.0,0.0,0.0,0.0,0.0,0.0,0.0,0.0,0.0,0.0,0.0,0.0,0.0,0.0,0.0,0.0,0.0,0.0,0.0,0.0,0.0,0.0,0.0,0.0,0.0,0.0,0.0,0.0,0.0,0.0,0.0,0.0,0.0,0.0,0.0,0.0,0.0,0.0,0.0,0.0,0.0,0.0,0.0,0.0,-0.9825,-0.9825,-0.9822,-0.9822,-0.9822,-0.9822,-0.9846,-0.9781,0.0,0.0,0.0,0.0,0.0,0.0,0.0,0.0,0.0,0.0,0.0,0.0,0.0,0.0,0.0,0.0,0.0,0.0,0.0,0.0,0.0,0.0,0.0,0.0,0.0,0.0,0.0,0.0,0.0,0.0,0.0,0.0,0.0,0.0,0.0,0.0,0.0,0.0,0.0,0.0,0.0,0.0,0.0,0.0,0.0,0.0,0.0,0.0,0.0,0.0,0.0,0.0,0.0,0.0,0.0,0.0,0.0,0.0,0.0,0.0,0.0,0.0,0.0,0.0,0.0,0.0,0.0,0.0,0.0,0.0,0.0,0.0,0.0,0.0,0.0,0.0,0.0,0.0,0.0,0.0,0.0,0.0,0.0,0.0,0.0,0.0,0.0,0.0,0.0,0.0,0.0,0.0,0.0,0.0,0.0,0.0,0.0,0.0,0.0,0.0,0.0,0.0,0.0,-0.9829,-0.9822,-0.9822,-0.9822,-0.9822,-0.9822,-0.9822,-0.9846,-0.9781,-0.6775,0.0,0.0,0.0,0.0,0.0,0.0,0.0,0.0,0.0,0.0,0.0,0.0,0.0,0.0,0.0,0.0,0.0,0.0,0.0,0.0,0.0,0.0,0.0,0.0,0.0,0.0,0.0,0.0,0.0,0.0,0.0,0.0,0.0,0.0,0.0,0.0,0.0,0.0,0.0,0.0,0.0,0.0,0.0,0.0,0.0,0.0,0.0,0.0,0.0,0.0,0.0,0.0,0.0,0.0,0.0,0.0,0.0,0.0,0.0,0.0,0.0,0.0,0.0,0.0,0.0,0.0,0.0,0.0,0.0,0.0,0.0,0.0,0.0,0.0,0.0,0.0,0.0,0.0,0.0,0.0,0.0,0.0,0.0,0.0,0.0,0.0,0.0,0.0,0.0,0.0,0.0,0.0,0.0,0.0,0.0,0.0,0.0,0.0,0.0,0.0,0.0,0.0,-0.9822,-0.9822,-0.9822,-0.9822,-0.9822,-0.9822,-0.9822,-0.9842,-0.9767,-0.6771,0.0,0.0,0.0,0.0,0.0,0.0,0.0,0.0,0.0,0.0,0.0,0.0,0.0,0.0,0.0,0.0,0.0,0.0,0.0,0.0,0.0,0.0,0.0,0.0,0.0,0.0,0.0,0.0,0.0,0.0,0.0,0.0,0.0,0.0,0.0,0.0,0.0,0.0,0.0,0.0,0.0,0.0,0.0,0.0,0.0,0.0,0.0,0.0,0.0,0.0,0.0,0.0,0.0,0.0,0.0,0.0,0.0,0.0,0.0,0.0,0.0,0.0,0.0,0.0,0.0,0.0,0.0,0.0,0.0,0.0,0.0,0.0,0.0,0.0,0.0,0.0,0.0,0.0,0.0,0.0,0.0,0.0,0.0,0.0,0.0,0.0,0.0,0.0,0.0,0.0,0.0,0.0,0.0,0.0,0.0,0.0,0.0,0.0,0.0,0.0,0.0,0.0,-0.9822,-0.9822,-0.9822,-0.9822,-0.9822,-0.9822,-0.9822,-0.9832,-0.9856,-0.6764,0.0,0.0,0.0,0.0,0.0,0.0,0.0,0.0,0.0,0.0,0.0,0.0,0.0,0.0,0.0,0.0,0.0,0.0,0.0,0.0,0.0,0.0,0.0,0.0,0.0,0.0,0.0,0.0,0.0,0.0,0.0,0.0,0.0,0.0,0.0,0.0,0.0,0.0,0.0,0.0,0.0,0.0,0.0,0.0,0.0,0.0,0.0,0.0,0.0,0.0,0.0,0.0,0.0,0.0,0.0,0.0,0.0,0.0,0.0,0.0,0.0,0.0,0.0,0.0,0.0,0.0,0.0,0.0,0.0,0.0,0.0,0.0,0.0,0.0,0.0,0.0,0.0,0.0,0.0,0.0,0.0,0.0,0.0,0.0,0.0,0.0,0.0,0.0,0.0,0.0,0.0,0.0,0.0,0.0,0.0,0.0,0.0,0.0,0.0,0.0,0.0,0.0,-1.066,-1.0899,-0.994,-0.9822,-0.9822,-0.9822,-0.9822,-0.9832,-0.9852,0.0,0.0,0.0,0.0,0.0,0.0,0.0,0.0,0.0,0.0,0.0,0.0,0.0,0.0,0.0,0.0,0.0,0.0,0.0,0.0,0.0,0.0,0.0,0.0,0.0,0.0,0.0,0.0,0.0,0.0,0.0,0.0,0.0,0.0,0.0,0.0,0.0,0.0,0.0,0.0,0.0,0.0,0.0,0.0,0.0,0.0,0.0,0.0,0.0,0.0,0.0,0.0,0.0,0.0,0.0,0.0,0.0,0.0,0.0,0.0,0.0,0.0,0.0,0.0,0.0,0.0,0.0,0.0,0.0,0.0,0.0,0.0,0.0,0.0,0.0,0.0,0.0,0.0,0.0,0.0,0.0,0.0,0.0,0.0,0.0,0.0,0.0,0.0,0.0,0.0,0.0,0.0,0.0,0.0,0.0,0.0,0.0,0.0,0.0,0.0,0.0,0.0,-1.0681,-1.1463,-1.1736,-1.066,-1.0058,-0.9822,-0.9822,-0.9822,-0.9829,-0.9842,0.0,0.0,0.0,0.0,0.0,0.0,0.0,0.0,0.0,0.0,0.0,0.0,0.0,0.0,0.0,0.0,0.0,0.0,0.0,0.0,0.0,0.0,0.0,0.0,0.0,0.0,0.0,0.0,0.0,0.0,0.0,0.0,0.0,0.0,0.0,0.0,0.0,0.0,0.0,0.0,0.0,0.0,0.0,0.0,0.0,0.0,0.0,0.0,0.0,0.0,0.0,0.0,0.0,0.0,0.0,0.0,0.0,0.0,0.0,0.0,0.0,0.0,0.0,0.0,0.0,0.0,0.0,0.0,0.0,0.0,0.0,0.0,0.0,0.0,0.0,0.0,0.0,0.0,0.0,0.0,0.0,0.0,0.0,0.0,0.0,0.0,0.0,0.0,0.0,0.0,0.0,0.0,0.0,0.0,0.0,0.0,0.0,0.0,0.0,0.0,0.0,0.0,-1.2026,-1.2218,-1.2213,-1.2213,-1.0781,-0.9822,-0.9822,-0.9822,-0.9822,0.0,0.0,0.0,0.0,0.0,0.0,0.0,0.0,0.0,0.0,0.0,0.0,0.0,0.0,0.0,0.0,0.0,0.0,0.0,0.0,0.0,0.0,0.0,0.0,0.0,0.0,0.0,0.0,0.0,0.0,0.0,0.0,0.0,0.0,0.0,0.0,0.0,0.0,0.0,0.0,0.0,0.0,0.0,0.0,0.0,0.0,0.0,0.0,0.0,0.0,0.0,0.0,0.0,0.0,0.0,0.0,0.0,0.0,0.0,0.0,0.0,0.0,0.0,0.0,0.0,0.0,0.0,0.0,0.0,0.0,0.0,0.0,0.0,0.0,0.0,0.0,0.0,0.0,0.0,0.0,0.0,0.0,0.0,0.0,0.0,0.0,0.0,0.0,0.0,0.0,0.0,0.0,0.0,0.0,0.0,0.0,0.0,0.0,0.0,0.0,0.0,0.0,0.0,-1.3645,-1.4688,-1.4708,-1.2453,-1.1736,-1.102,-0.994,-0.9822,-0.9822,-0.9822,0.0,0.0,0.0,0.0,0.0,0.0,0.0,0.0,0.0,0.0,0.0,0.0,0.0,0.0,0.0,0.0,0.0,0.0,0.0,0.0,0.0,0.0,0.0,0.0,0.0,0.0,0.0,0.0,0.0,0.0,0.0,0.0,0.0,0.0,0.0,0.0,0.0,0.0,0.0,0.0,0.0,0.0,0.0,0.0,0.0,0.0,0.0,0.0,0.0,0.0,0.0,0.0,0.0,0.0,0.0,0.0,0.0,0.0,0.0,0.0,0.0,0.0,0.0,0.0,0.0,0.0,0.0,0.0,0.0,0.0,0.0,0.0,0.0,0.0,0.0,0.0,0.0,0.0,0.0,0.0,0.0,0.0,0.0,0.0,0.0,0.0,0.0,0.0,0.0,0.0,0.0,0.0,0.0,0.0,0.0,0.0,0.0,0.0,0.0,0.0,0.0,0.0,-1.5134,-1.6153,-1.625,-1.4356,-1.3526,-1.2813,-1.1856,-1.1736,-1.1736,-1.1736,0.0,0.0,0.0,0.0,0.0,0.0,0.0,0.0,0.0,0.0,0.0,0.0,0.0,0.0,0.0,0.0,0.0,0.0,0.0,0.0,0.0,0.0,0.0,0.0,0.0,0.0,0.0,0.0,0.0,0.0,0.0,0.0,0.0,0.0,0.0,0.0,0.0,0.0,0.0,0.0,0.0,0.0,0.0,0.0,0.0,0.0,0.0,0.0,0.0,0.0,0.0,0.0,0.0,0.0,0.0,0.0,0.0,0.0,0.0,0.0,0.0,0.0,0.0,0.0,0.0,0.0,0.0,0.0,0.0,0.0,0.0,0.0,0.0,0.0,0.0,0.0,0.0,0.0,0.0,0.0,0.0,0.0,0.0,0.0,0.0,0.0,0.0,0.0,0.0,0.0,0.0,0.0,0.0,0.0,0.0,0.0,0.0,0.0,0.0,0.0,0.0,0.0,-1.6522,-1.6857,-1.7178,-1.6962,-1.5666,-1.4718,-1.4604,-1.4604,-1.4604,-1.4604,0.0,0.0,0.0,0.0,0.0,0.0,0.0,0.0,0.0,0.0,0.0,0.0,0.0,0.0,0.0,0.0,0.0,0.0,0.0,0.0,0.0,0.0,0.0,0.0,0.0,0.0,0.0,0.0,0.0,0.0,0.0,0.0,0.0,0.0,0.0,0.0,0.0,0.0,0.0,0.0,0.0,0.0,0.0,0.0,0.0,0.0,0.0,0.0,0.0,0.0,0.0,0.0,0.0,0.0,0.0,0.0,0.0,0.0,0.0,0.0,-1.3398,-1.1468,0.0,0.0,0.0,0.0,0.0,0.0,0.0,0.0,0.0,0.0,0.0,0.0,0.0,0.0,0.0,0.0,0.0,0.0,0.0,0.0,0.0,0.0,0.0,0.0,0.0,0.0,0.0,0.0,0.0,0.0,0.0,0.0,0.0,0.0,0.0,0.0,0.0,0.0,0.0,0.0,-1.8001,-1.8327,-1.8161,-1.7067,-1.6727,-1.602,-1.4723,-1.4604,-1.4604,-1.4604,-1.4247,0.0,0.0,0.0,0.0,0.0,0.0,0.0,0.0,0.0,0.0,0.0,0.0,0.0,0.0,0.0,0.0,0.0,0.0,0.0,0.0,0.0,0.0,0.0,0.0,0.0,0.0,0.0,0.0,0.0,0.0,0.0,0.0,0.0,0.0,0.0,0.0,0.0,0.0,0.0,0.0,0.0,0.0,0.0,0.0,0.0,0.0,0.0,0.0,0.0,0.0,0.0,0.0,0.0,0.0,0.0,0.0,0.0,0.0,0.0,-1.6026,-1.4881,0.0,0.0,0.0,0.0,0.0,0.0,0.0,0.0,0.0,0.0,0.0,0.0,0.0,0.0,0.0,0.0,0.0,0.0,0.0,0.0,0.0,0.0,0.0,0.0,0.0,0.0,0.0,0.0,0.0,0.0,0.0,0.0,0.0,0.0,0.0,0.0,0.0,0.0,0.0,0.0,-1.8366,-1.9188,-1.9391,-1.8058,-1.8081,-1.7806,-1.6979,-1.6862,-1.6862,-1.6862,-1.6144,0.0,0.0,0.0,0.0,0.0,0.0,0.0,0.0,0.0,0.0,0.0,0.0,0.0,0.0,0.0,0.0,0.0,0.0,0.0,0.0,0.0,0.0,0.0,0.0,0.0,0.0,0.0,0.0,0.0,0.0,0.0,0.0,0.0,0.0,0.0,0.0,0.0,0.0,0.0,0.0,0.0,0.0,0.0,0.0,0.0,0.0,0.0,0.0,0.0,0.0,0.0,0.0,0.0,-2.1987,-2.0881,-2.0889,-2.0702,-2.0702,-2.0881,-1.9592,-1.9505,-2.0076,-1.9067,0.0,0.0,0.0,0.0,0.0,0.0,0.0,0.0,0.0,0.0,0.0,0.0,0.0,0.0,0.0,0.0,0.0,0.0,0.0,0.0,0.0,0.0,-2.5892,-2.4802,-2.6225,-2.6898,-2.3673,0.0,0.0,0.0,0.0,0.0,0.0,0.0,0.0,0.0,0.0,0.0,-1.8877,-2.0216,-2.0818,-1.9794,-1.9745,-1.9815,-1.9815,-1.9597,-1.9366,-1.9366,-1.8163,-1.7325,0.0,0.0,0.0,0.0,0.0,0.0,0.0,0.0,0.0,0.0,0.0,0.0,0.0,0.0,0.0,0.0,0.0,0.0,0.0,0.0,0.0,0.0,0.0,0.0,0.0,0.0,0.0,0.0,0.0,0.0,0.0,0.0,-1.5053,-1.6593,0.0,0.0,0.0,0.0,0.0,0.0,0.0,0.0,0.0,0.0,0.0,0.0,0.0,-2.4842,-2.5064,-2.5924,-2.6523,-2.6867,-2.6601,-2.6557,-2.6461,-2.5353,-2.545,-2.6557,-2.6335,0.0,-2.3008,-2.3883,0.0,0.0,0.0,0.0,0.0,0.0,0.0,0.0,0.0,0.0,0.0,0.0,0.0,0.0,0.0,0.0,0.0,0.0,0.0,0.0,0.0,0.0,-2.8822,-2.8615,-2.8903,-2.9006,-2.8522,-2.65,-2.4784,-2.4784,-2.4678,-2.4221,0.0,0.0,0.0,0.0,0.0,0.0,-2.1547,-2.2038,-2.2508,-2.2606,-2.1841,-2.1365,-2.1365,-2.0148,-1.9366,-1.9366,-1.9243,-1.8409,-1.7085,-1.6968,0.0,0.0,0.0,0.0,0.0,0.0,0.0,0.0,0.0,0.0,0.0,0.0,0.0,0.0,0.0,0.0,0.0,0.0,0.0,0.0,0.0,0.0,0.0,0.0,0.0,0.0,0.0,0.0,0.0,-1.455,-1.6873,-1.8358,-1.9831,-2.0766,0.0,0.0,0.0,0.0,0.0,0.0,0.0,0.0,0.0,-2.9397,-2.9476,-2.9522,-2.9522,-2.9489,-2.9568,-2.9568,-2.8914,-2.8588,-2.8588,-2.8028,-2.8451,-2.9557,-3.0189,-3.0151,-2.9498,-2.8131,-2.7979,-2.8433,0.0,0.0,0.0,0.0,-2.7882,-2.7579,-2.9665,-3.0385,-3.0385,-3.0385,0.0,0.0,0.0,0.0,0.0,0.0,0.0,-2.6909,-2.8179,-2.9442,-3.0406,-3.0406,-3.0956,-3.1512,-3.1512,-3.0481,-2.9296,-2.7836,-2.6951,-2.6079,-2.4802,-2.456,0.0,0.0,0.0,-2.3647,-2.2924,-2.322,-2.3312,-2.2947,-2.2654,-2.2609,-2.2798,-2.2266,-2.182,-2.182,-2.1038,-2.068,-2.0858,-2.0071,-1.9598,0.0,0.0,0.0,0.0,0.0,0.0,0.0,0.0,0.0,0.0,0.0,0.0,0.0,0.0,0.0,0.0,0.0,0.0,0.0,0.0,0.0,0.0,0.0,0.0,0.0,0.0,0.0,0.0,-1.6215,-1.8775,-2.0405,-2.197,-2.2957,0.0,0.0,0.0,0.0,0.0,0.0,-3.371,-3.3888,-3.3944,-3.4136,-3.4061,-3.4127,-3.432,-3.3534,-3.2997,-3.2805,-3.1622,-3.0856,-3.066,-3.0578,-3.1125,-3.2264,-3.336,-3.4432,-3.5045,-3.2252,-3.1583,-3.2191,-3.1132,-3.0823,-3.091,-3.1699,-3.1443,-3.117,-3.391,-3.4834,-3.4834,-3.4834,-3.4834,-3.4442,-3.215,0.0,0.0,0.0,0.0,-2.95,-3.0802,-3.1831,-3.2463,-3.2463,-3.3199,-3.3856,-3.3856,-3.3856,-3.3152,-3.0765,-2.9579,-2.8403,-2.7212,-2.6857,0.0,-2.517,-2.5882,-2.6179,-2.5189,-2.5041,-2.4868,-2.4225,-2.3862,-2.3829,-2.4209,-2.3986,-2.3822,-2.3822,-2.2814,-2.2702,-2.371,-2.2702,-2.2702,-2.3822,0.0,0.0,0.0,0.0,0.0,0.0,0.0,0.0,0.0,0.0,0.0,0.0,0.0,0.0,0.0,0.0,0.0,0.0,0.0,0.0,0.0,0.0,0.0,0.0,0.0,0.0,0.0,0.0,0.0,-2.3251,-2.4912,0.0,0.0,0.0,0.0,-3.2885,-3.4512,-3.5898,-3.7182,-3.7272,-3.7664,-3.8438,-3.7664,-3.7678,-3.8525,-3.8438,-3.7974,-3.721,-3.5939,-3.4928,-3.4127,-3.3826,-3.4313,-3.5531,-3.6391,-3.7085,-3.7452,-3.6354,-3.5853,-3.5933,-3.5839,-3.5826,-3.5826,-3.5905,-3.5905,-3.5839,-3.6026,-3.6105,-3.6105,-3.6105,-3.6105,-3.5839,-3.455,-3.4088,0.0,0.0,-3.4031,-3.4304,-3.5573,-3.5867,-3.5946,-3.5946,-3.6039,-3.6039,-3.6039,-3.6039,-3.5413,-3.3288,-3.2884,-3.2413,-3.1122,0.0,-3.0473,-2.9293,-2.9201,-2.9212,-2.9109,-2.8423,-2.797,-2.7893,-2.6313,-2.5344,-2.5361,-2.4395,-2.3822,-2.3822,-2.371,-2.371,-2.3822,-2.371,-2.371,-2.3822,-2.3822,0.0,0.0,0.0,0.0,0.0,0.0,0.0,0.0,0.0,0.0,0.0,0.0,0.0,0.0,0.0,0.0,0.0,0.0,0.0,0.0,0.0,0.0,0.0,0.0,0.0,0.0,0.0,0.0,-2.3853,-2.5857,0.0,-2.87,-3.044,-3.2371,-3.438,-3.6286,-3.7781,-3.8923,-3.899,-3.9122,-3.9433,-3.8498,-3.8115,-3.8437,-3.7751,-3.7253,-3.6931,-3.6488,-3.6115,-3.5795,-3.5666,-3.6258,-3.7362,-3.7608,-3.8238,-3.9074,-3.9054,-3.8421,-3.7486,-3.7486,-3.7486,-3.7555,-3.8251,-3.8099,-3.763,-3.8819,-3.9207,-3.9268,-3.9764,-3.9956,-3.9716,-3.8614,-3.8296,-3.8135,-3.7428,-3.7204,-3.7368,-3.7738,-3.7841,-3.7841,-3.7841,-3.7451,-3.7068,-3.7068,-3.6598,-3.5974,-3.5265,-3.5116,-3.4735,-3.3469,-3.3913,-3.3772,-3.1882,-3.162,-3.138,-3.0664,-2.9645,-2.9041,-2.9347,-2.827,-2.7749,-2.8038,-2.7216,-2.6726,-2.6726,-2.5827,-2.5717,-2.6617,-2.5827,-2.5717,-2.6726,-2.6726,-2.6726,0.0,0.0,0.0,0.0,0.0,0.0,0.0,0.0,0.0,0.0,0.0,0.0,0.0,0.0,0.0,0.0,0.0,0.0,0.0,0.0,0.0,0.0,0.0,0.0,0.0,-2.056,-2.3845,-2.4035,-2.6333,-2.844,-2.9906,-3.185,-3.3904,-3.5889,-3.7938,-3.9436,-4.0188,-4.0378,-4.0655,-4.0959,-4.0134,-3.9844,-4.0154,-3.9461,-3.8975,-3.8668,-3.8668,-3.8498,-3.8278,-3.856,-3.9055,-3.9725,-4.0021,-4.0394,-4.089,-4.1241,-4.0612,-3.943,-3.9326,-3.9184,-3.9123,-3.9818,-3.9513,-3.8936,-4.0087,-4.0559,-4.0623,-4.1087,-4.1453,-4.1502,-4.0776,-4.077,-4.0794,-4.0078,-3.9857,-3.9857,-3.9857,-3.9857,-3.9857,-3.9857,-3.947,-3.9005,-3.9005,-3.8545,-3.8164,-3.8164,-3.7076,-3.5933,-3.5103,-3.5653,-3.5533,-3.3701,-3.3759,-3.3436,-3.2028,-3.1086,-3.0476,-3.0388,-2.965,-2.9373,-2.9953,-2.9229,-2.874,-2.8996,-2.759,-2.7276,-2.8291,-2.7394,-2.7276,-2.8291,-2.8698,-2.9006,-2.9006,0.0,0.0,0.0,0.0,0.0,0.0,0.0,0.0,0.0,0.0,0.0,0.0,0.0,0.0,0.0,0.0,0.0,0.0,0.0,0.0,0.0,0.0,0.0,-1.6484,-2.0309,-2.3379,-2.4111,-2.6606,-2.9089,-3.1444,-3.3617,-3.5651,-3.745,-3.9704,-4.1016,-4.1016,-4.1552,-4.2296,-4.3123,-4.2832,-4.3071,-4.3933,-4.3951,-4.3506,-4.2676,-4.2676,-4.2277,-4.1591,-4.2327,-4.2708,-4.2725,-4.3599,-4.3554,-4.289,-4.289,-4.2491,-4.1856,-4.1596,-4.1138,-4.0623,-4.0623,-4.0333,-3.9914,-3.9914,-3.993,-3.9946,-3.9946,-4.0411,-4.0988,-4.102,-4.1501,-4.2093,-4.2045,-4.2062,-4.2062,-4.2062,-4.2062,-4.2062,-4.2062,-4.2062,-4.2062,-4.2062,-4.1997,-4.1997,-4.1997,-3.8952,-3.6341,-3.6341,-3.6341,-3.6039,-3.5047,-3.5654,0.0,-3.3458,-3.3003,-3.25,-3.1376,-3.0572,-3.0326,-3.0937,-3.0052,-2.9824,-3.0286,-2.9102,-2.8388,-2.8388,-2.8388,-2.8388,-2.8388,-2.9713,-3.0317,-3.0421,0.0,0.0,0.0,0.0,0.0,0.0,0.0,0.0,0.0,0.0,0.0,0.0,0.0,0.0,0.0,0.0,0.0,0.0,0.0,0.0,0.0,-1.7331,-2.0286,-2.1025,-2.3634,-2.5935,-2.6846,-2.8973,-3.0882,-3.2196,-3.4514,-3.6445,-3.7666,-3.9734,-4.0929,-4.0929,-4.1504,-4.1953,-4.2185,-4.2115,-4.2141,-4.2387,-4.2387,-4.2409,-4.2412,-4.2412,-4.2445,-4.2465,-4.2675,-4.277,-4.275,-4.2771,-4.2781,-4.2832,-4.305,-4.3122,-4.3094,-4.2108,-4.1621,-4.1482,-4.1482,-4.1734,-4.2026,-4.2026,-4.2388,-4.2854,-4.2854,-4.2992,-4.3184,-4.3316,-4.3495,-4.3728,-4.3863,-4.3873,-4.3873,-4.3873,-4.3873,-4.3873,-4.3873,-4.341,-4.2909,-4.2909,-4.2458,-4.1997,-4.1997,-4.1119,-4.0399,-4.0399,-4.0399,-4.0079,-3.899,-3.8531,-3.7837,-3.6423,-3.509,-3.403,-3.3804,-3.2277,-3.1565,-3.2172,-3.142,-3.1218,-3.1702,-3.1429,-3.1224,-3.1224,-3.1224,-3.1224,-3.1224,-3.1531,-3.1724,0.0,0.0,0.0,0.0,0.0,0.0,0.0,0.0,0.0,0.0,0.0,0.0,0.0,0.0,0.0,0.0,0.0,0.0,0.0,0.0,0.0,0.0,-1.8526,-2.1867,-2.4183,-2.6003,-2.736,-2.8016,-2.9935,-3.1729,-3.2947,-3.5115,-3.6999,-3.8537,-4.0067,-4.0995,-4.1251,-4.1853,-4.2162,-4.2162,-4.2404,-4.2523,-4.2523,-4.2523,-4.2701,-4.3008,-4.3008,-4.321,-4.3553,-4.3553,-4.3553,-4.3553,-4.3356,-4.337,-4.3571,-4.372,-4.3908,-4.4007,0.0,0.0,0.0,0.0,-4.2076,-4.2422,-4.2422,-4.2723,-4.3094,-4.3094,-4.3279,-4.357,-4.3658,-4.4157,-4.4719,-4.4802,-4.5061,-4.5267,-4.5052,-4.4998,-4.4906,-4.4682,-4.4196,-4.3814,-4.3814,-4.3426,-4.3092,-4.3092,-4.3092,0.0,-4.3092,-4.2504,-4.166,-4.0562,-4.001,-3.9253,-3.7676,-3.6598,-3.5855,-3.5359,-3.399,-3.3394,-3.4164,-3.283,0.0,0.0,0.0,-3.2331,-3.2331,-3.2331,0.0,0.0,0.0,-3.3155,-3.3155,-3.3737,0.0,0.0,-3.3662,-3.3365,0.0,0.0,0.0,0.0,0.0,0.0,0.0,0.0,0.0,0.0,0.0,0.0,0.0,0.0,0.0,0.0,-1.9774,-2.264,-2.6025,-2.7441,-2.8176,-2.8267,-3.0101,-3.1979,-3.3607,-3.5483,-3.7435,-3.9649,-4.0569,-4.1251,-4.1853,-4.248,0.0,0.0,0.0,-4.3497,-4.3497,-4.3497,-4.3679,-4.4016,-4.4046,-4.4261,-4.4657,-4.4701,-4.4707,-4.4707,-4.4657,-4.4682,-4.4707,-4.4657,-4.4676,-4.4606,-4.4233,-4.3757,-4.3204,-4.2336,-4.2026,-4.2003,-4.2003,0.0,0.0,-4.2003,-4.2423,-4.2949,-4.2995,-4.3944,-4.5078,-4.5145,-4.5693,-4.6182,-4.5715,-4.5545,-4.5372,-4.4814,-4.4626,-4.4587,-4.4587,-4.4587,-4.4587,-4.4587,-4.4587,-4.4587,-4.4587,-4.335,-4.1997,-4.1044,-4.097,-4.0309,-3.8267,-3.7984,-3.7558,-3.6526,-3.544,0.0,-3.6373,-3.4407,-3.3609,-3.4788,-3.354,-3.2733,-3.2733,-3.2733,-3.2733,-3.2733,-3.397,-3.4581,-3.4581,-3.587,-3.6358,-3.6358,-3.3934,-3.3453,0.0,0.0,0.0,0.0,0.0,0.0,0.0,0.0,0.0,0.0,0.0,0.0,0.0,0.0,0.0,-1.7665,-2.1228,-2.465,-2.6295,-2.7441,-2.8426,-2.9365,-3.1167,-3.2693,-3.369,-3.606,-3.8149,-3.9716,-4.0909,-4.1895,-4.248,-4.305,-4.3339,-4.3339,-4.3444,-4.3497,-4.3497,-4.3497,-4.3679,-4.3998,-4.4318,0.0,-4.5011,-4.5283,-4.5419,-4.5381,-4.5118,-4.5159,-4.54,-4.5118,-4.4988,-4.4966,-4.4631,-4.4214,-4.3806,-4.3629,-4.3419,-4.316,-4.316,-4.316,-4.316,-4.316,-4.3251,-4.3415,-4.357,-4.3845,0.0,-4.4999,-4.5304,-4.557,-4.6081,-4.5865,-4.5459,-4.5372,-4.4944,-4.4587,-4.4587,-4.4587,-4.4587,-4.4587,-4.4587,-4.4587,-4.4587,-4.431,-4.4047,-4.3806,-4.3196,-4.2363,-4.1302,-3.9762,-3.8517,-3.7572,-3.654,-3.6387,-3.7535,-3.6439,-3.607,-3.7298,-3.6282,-3.5655,-3.5655,-3.5655,-3.5655,-3.5655,-3.5858,-3.5966,-3.5966,-3.625,-3.6358,-3.6358,-3.5858,-3.575,0.0,0.0,0.0,0.0,0.0,0.0,0.0,0.0,0.0,0.0,0.0,-1.1361,-1.4025,0.0,-1.8225,-1.8441,-2.1548,-2.449,-2.6224,-2.7441,-2.873,-3.033,-3.1756,-3.3295,-3.4907,-3.6734,-3.8608,-4.0659,-4.1411,-4.2185,-4.305,-4.3375,-4.3497,-4.3497,-4.3497,-4.3497,-4.3497,-4.3497,-4.3679,-4.3998,-4.4204,-4.4587,-4.5096,-4.5263,-4.5438,-4.5586,-4.5419,-4.5457,-4.5586,-4.5419,-4.5342,-4.5342,-4.5161,-4.4762,-4.428,-4.4058,-4.3893,-4.3726,-4.3582,-4.3497,-4.3497,-4.3497,-4.3497,-4.3518,-4.3634,-4.3923,-4.4431,-4.5314,-4.5828,-4.6272,-4.6758,-4.643,-4.5865,-4.5545,-4.5052,-4.4587,-4.4587,-4.4587,-4.4587,-4.4587,-4.4587,-4.4587,-4.4587,-4.4587,-4.4587,-4.4587,-4.3873,-4.3108,-4.2724,-4.1449,-4.0224,-3.9316,-3.8296,-3.7844,-3.8333,-3.7908,-3.7786,-3.8055,-3.7586,-3.6977,-3.6452,-3.6358,-3.6358,-3.6358,-3.6358,-3.6358,-3.6358,-3.6358,-3.6358,-3.6358,-3.6358,-3.6358,0.0,0.0,0.0,0.0,0.0,0.0,0.0,-1.6095,-1.594,-1.6395,-1.5255,-1.4569,-1.6266,-1.6501,-1.7223,-1.948,-2.178,-2.4129,-2.6213,-2.7441,-2.8942,-3.1228,-3.2177,-3.3611,-3.6138,-3.7243,-3.8863,-4.1429,-4.1707,-4.2266,-4.3286,-4.3444,-4.3497,-4.3497,-4.3497,-4.3497,-4.3497,-4.3497,-4.3646,-4.3893,-4.3986,-4.4299,-4.4877,-4.5033,-4.5243,-4.5513,-4.5568,-4.5586,-4.5586,-4.5586,-4.5586,-4.5586,-4.5586,-4.5243,-4.4657,-4.4346,-4.4117,-4.3986,-4.3791,-4.3631,-4.3513,-4.3563,-4.3529,-4.3497,-4.3497,-4.3956,-4.4672,-4.5626,-4.6379,-4.6963,-4.7337,-4.691,-4.6288,-4.5783,-4.5125,-4.4626,-4.4776,-4.4665,-4.4587,-4.4587,-4.4587,-4.4587,-4.4587,-4.4587,-4.4587,-4.4587,-4.4006,-4.3502,-4.3306,-4.2724,-4.1869,-4.0811,-3.9963,-3.9266,-3.888,-3.9182,-3.9161,-3.8532,-3.8469,-3.803,-3.7163,-3.707,-3.707,-3.707,-3.707,-3.707,-3.707,-3.6803,-3.6709,-3.6709,-3.6546,-3.6358,-1.1497,-1.2085,-1.3356,-1.4297,-1.402,-1.4576,0.0,-1.7296,-1.6358,-1.8596,-1.8056,-1.7598,-1.888,-1.9039,-1.9488,-2.0872,-2.3047,-2.5031,-2.6307,-2.7441,-2.9139,-3.2078,-3.2522,-3.3611,-3.6138,-3.7243,-3.8679,-4.0839,-4.149,-4.208,-4.2732,-4.325,-4.3497,-4.3497,-4.3497,-4.3497,-4.3497,-4.3497,-4.3513,-4.3563,-4.3849,-4.4028,-4.4146,-4.4806,-4.5118,-4.518,-4.5476,-4.5586,-4.5586,-4.5586,-4.5586,-4.5586,-4.5586,-4.5362,-4.5052,-4.4988,-4.4561,-4.4046,-4.4364,-4.4035,-4.3548,-4.3849,-4.3758,-4.3497,-4.3497,-4.3552,-4.3938,-4.5461,-4.5957,-4.6249,-4.7174,-4.691,-4.6383,-4.6336,-4.5407,-4.4776,-4.5267,-4.4998,-4.4587,-4.4587,-4.4587,-4.4587,-4.4587,-4.4587,-4.4587,-4.4587,-4.4514,-4.4196,-4.3366,-4.3229,-4.252,-4.0894,-4.0607,-4.0243,-3.9563,-4.0588,-4.0831,-3.9798,-3.9724,-3.9637,-3.9549,-3.9549,-3.9549,-3.9549,-3.9549,-3.9549,-3.9549,-3.8469,-3.7939,-3.7848,-3.6896,-3.6358,-1.4423,-1.4764,-1.5293,-1.5728,-1.5528,-1.5931,-1.8498,-1.7636,-1.7143,-1.9957,-1.9588,-1.8864,-1.9405,-2.0034,-2.0666,-2.1221,-2.3308,-2.521,-2.6307,-2.7441,-2.9217,-3.2222,-3.2593,-3.383,-3.6914,-3.7987,-3.9126,-4.081,-4.1446,-4.2062,-4.2655,-4.3214,-4.3497,-4.3497,-4.3497,-4.3497,-4.3497,-4.3497,-4.3497,-4.3479,-4.3646,-4.3943,-4.4346,-4.4682,-4.5011,-4.54,-4.555,-4.5586,-4.5586,-4.5586,-4.5586,-4.5586,-4.54,-4.5222,-4.5074,-4.4872,-4.4455,-4.3986,-4.3974,-4.3777,-4.3513,-4.3679,-4.3612,-4.3497,-4.3497,-4.3497,-4.3828,-4.5443,-4.5902,-4.6214,-4.7557,-4.747,-4.6892,-4.6478,-4.5732,-4.5089,-4.4998,-4.4759,-4.4587,-4.4587,-4.4587,-4.4587,-4.4587,-4.4587,-4.4587,-4.4587,-4.4587,-4.4457,-4.4121,-4.4064,-4.341,-4.1658,-4.0924,-4.0586,-4.0625,-4.1553,-4.1732,-4.0986,-4.0916,-4.0575,-3.9899,-3.9899,-3.9899,-3.9899,-3.9899,-3.9899,-3.9899,-3.936,-3.9183,-3.9094,-3.7952,-3.7415,-1.624,-1.6647,-1.7046,-1.7149,-1.7298,-1.7605,-1.8812,-1.8433,-1.837,-2.0678,-2.0508,-2.0005,-2.0387,-2.0935,-2.1382,-2.1747,-2.374,-2.5546,-2.6389,-2.7695,-2.9564,-3.2307,-3.2778,-3.4153,-3.7188,-3.8133,-3.9212,-4.059,-4.1358,-4.1979,-4.244,-4.3124,-4.3497,-4.3497,-4.3497,-4.3497,-4.3497,-4.3497,-4.3497,-4.3497,-4.3497,-4.3823,-4.4447,-4.4657,-4.4988,-4.5476,-4.5568,-4.5495,-4.5342,-4.5419,-4.5419,-4.5283,-4.5074,-4.4877,-4.4781,-4.4508,-4.4233,-4.3986,-4.3943,-4.3804,-4.3646,-4.3758,-4.3744,-4.3612,-4.3513,-4.3644,-4.4121,-4.5516,-4.6067,-4.6507,-4.7709,-4.7715,-4.7237,-4.6571,-4.5915,-4.5372,-4.4961,-4.472,-4.4587,-4.4587,-4.4587,-4.4587,-4.4587,-4.4587,-4.4587,-4.4587,-4.4587,-4.4587,-4.4587,-4.4384,-4.368,-4.2189,-4.1426,-4.1143,-4.1415,-4.2147,-4.2491,-4.2082,-4.2111,-4.1684,-4.0845,-4.0845,-4.0845,-4.0845,-4.0845,-4.0845,-4.0845,-4.049,-4.0404,-4.0318,-3.9169,-3.8559,-1.5401,-1.6794,-1.8229,-1.9224,-1.9665,-1.9943,-2.0129,-2.0045,-2.0077,-2.073,-2.082,-2.1122,-2.2698,-2.2031,-2.1658,-2.2862,-2.4978,-2.6483,-2.6483,-2.8383,-3.0495,-3.2393,-3.3267,-3.4508,-3.6461,-3.7381,-3.8486,-4.002,-4.1168,-4.181,-4.1853,-4.2903,-4.3497,-4.3497,-4.3497,-4.3497,-4.3497,-4.3497,-4.3497,-4.3497,-4.3497,-4.366,-4.4028,-4.4762,-4.5096,-4.5118,-4.5476,-4.5243,-4.4676,-4.4966,-4.4919,-4.4631,-4.4606,-4.4392,-4.4028,-4.3998,-4.4016,-4.4087,-4.4806,-4.4587,-4.4046,-4.4447,-4.429,-4.3924,-4.3597,-4.4048,-4.4837,-4.5663,-4.6471,-4.7128,-4.7355,-4.7428,-4.7237,-4.6571,-4.5915,-4.5494,-4.5459,-4.4998,-4.4587,-4.4587,-4.4587,-4.4587,-4.4587,-4.4587,-4.4587,-4.4587,-4.4587,-4.4587,-4.4587,-4.3873,-4.2986,-4.2125,-4.2385,-4.2333,-4.1445,-4.2566,-4.3235,-4.325,-4.325,-4.325,-4.317,-4.317,-4.317,-4.317,-4.317,-4.317,-4.317,-4.2111,-4.1587,-4.1504,-4.0404,-3.9812,-1.6437,-1.7669,-1.8914,-1.9963,-2.0305,-2.0316,-1.9925,-1.9732,-1.985,-2.0322,-1.9332,-1.8991,-2.1149,-2.0722,-2.0416,-2.1747,-2.4511,-2.6483,-2.6483,-2.8383,-3.0292,-3.1536,-3.2494,-3.3693,-3.5477,-3.7404,-3.8745,-3.9262,-4.0508,-4.1402,-4.1768,-4.2541,-4.3124,-4.3497,-4.3497,-4.3497,-4.3497,-4.3497,-4.3497,-4.3479,-4.3726,-4.3912,-4.4016,-4.4535,-4.4776,-4.4757,-4.4896,-4.4806,-4.4624,-4.4707,-4.4682,-4.458,-4.4308,-4.4117,-4.3986,-4.3758,-4.3679,-4.3726,-4.4204,-4.4076,-4.3726,-4.4076,-4.3974,-4.3646,-4.3548,-4.4066,-4.4874,-4.5663,-4.6489,-4.7165,-4.7373,-4.7385,-4.715,-4.6063,-4.5648,-4.5407,-4.4998,-4.472,-4.4587,-4.4587,-4.4587,-4.4587,-4.4587,-4.4587,-4.4587,-4.4587,-4.4587,-4.4587,-4.4587,-4.3814,-4.3366,-4.3546,-4.3079,-4.2808,-4.2962,-4.318,-4.3329,-4.3329,-4.3329,-4.3329,-4.3329,-4.3329,-4.3329,-4.3329,-4.3329,-4.3329,-4.3329,-4.29,-4.2725,-4.2725,-4.1601,-4.1,-1.7496,-1.847,-1.9283,-2.0323,-2.0566,-2.0312,-1.9021,-1.9083,-1.9272,-1.8895,-1.7706,-1.7445,-1.9583,-1.9604,-1.9558,-2.0358,-2.3159,-2.5408,-2.5732,-2.7394,-2.9241,-3.1018,-3.1742,-3.2764,-3.4582,-3.649,-3.7979,-3.8837,-4.015,-4.1087,-4.1446,-4.2038,-4.2541,-4.2903,-4.2885,-4.2995,-4.3214,-4.3214,-4.3286,-4.3479,-4.3818,-4.4016,-4.3998,-4.4419,-4.4527,-4.4373,-4.4527,-4.4447,-4.4213,-4.4337,-4.4308,-4.4165,-4.3912,-4.3836,-4.3804,-4.3563,-4.3497,-4.3548,-4.3881,-4.3849,-4.3726,-4.3924,-4.3849,-4.3701,-4.3897,-4.4488,-4.5296,-4.6104,-4.6742,-4.7259,-4.7362,-4.7237,-4.6774,-4.5749,-4.5511,-4.532,-4.472,-4.4587,-4.4587,-4.4587,-4.4587,-4.4587,-4.4587,-4.4587,-4.4587,-4.4587,-4.4587,-4.4587,-4.4587,-4.4356,-4.4065,-4.3921,-4.3699,-4.3494,-4.33,-4.3316,-4.3329,-4.3329,-4.3329,-4.3329,-4.3329,-4.3329,-4.3329,-4.3329,-4.3329,-4.3329,-4.3329,-4.3329,-4.3329,-4.325,-4.2548,-4.2208,-1.831,-1.8877,-1.9195,-2.0245,-2.0489,-1.9913,-1.7738,-1.8069,-1.8406,-1.6592,-1.61,-1.643,-1.8128,-1.8779,-1.9092,-1.9121,-2.1406,-2.3533,-2.4524,-2.5694,-2.7667,-3.0768,-3.118,-3.1888,-3.3671,-3.4648,-3.6184,-3.8531,-4.0001,-4.081,-4.0903,-4.1446,-4.175,-4.181,-4.181,-4.2062,-4.2655,-4.2693,-4.2939,-4.3444,-4.3804,-4.3986,-4.3986,-4.4364,-4.4337,-4.3986,-4.4392,-4.4154,-4.3513,-4.3849,-4.3772,-4.3497,-4.3497,-4.3497,-4.3497,-4.3497,-4.3497,-4.3548,-4.3849,-4.3986,-4.3986,-4.3998,-4.4004,-4.4116,-4.4538,-4.526,-4.6067,-4.6855,-4.7197,-4.7342,-4.7299,-4.6819,-4.6192,-4.5597,-4.5459,-4.5267,-4.472,-4.4587,-4.4587,-4.4587,-4.4587,-4.4587,-4.4587,-4.4587,-4.4587,-4.4587,-4.4587,-4.4587,-4.4587,-4.5172,-4.499,-4.3298,-4.4265,-4.4338,-4.2695,-4.297,-4.3329,-4.3329,-4.3329,-4.3329,-4.3329,-4.3329,-4.3329,-4.3329,-4.3329,-4.3329,-4.3329,-4.3329,-4.3329,-4.3329,-4.3329,-4.3329,-1.7334,-1.7747,-1.7989,-1.9116,-1.9441,-1.8868,-1.6593,-1.6927,-1.7359,-1.6133,-1.3926,-1.3124,-1.6186,-1.6837,-1.7423,-1.8877,-2.3076,-2.6141,-2.603,-2.7659,-2.9238,-3.0062,-3.0758,-3.1389,-3.1888,-3.3936,-3.5431,-3.6107,-3.814,-3.9851,-4.0856,-4.1041,-4.1358,-4.181,-4.181,-4.1895,-4.2021,-4.248,-4.2788,-4.2902,-4.3408,-4.3631,-4.3612,-4.3726,-4.3726,-4.3612,-4.3744,-4.3679,-4.3532,-4.3597,-4.3563,-4.3497,-4.3497,-4.3497,-4.3497,-4.3497,-4.3497,-4.3513,-4.3597,-4.3631,-4.3679,-4.3924,-4.4244,-4.4536,-4.4671,-4.5348,-4.6182,-4.6382,-4.6539,-4.6571,-4.6112,-4.5883,-4.5597,-4.4944,-4.4814,-4.4759,-4.4626,-4.4587,-4.4587,-4.4587,-4.4587,-4.4587,-4.4587,-4.4587,-4.4587,-4.4587,-4.4587,-4.4587,-4.4587,-4.4641,-4.4714,-4.4769,-4.4347,-4.4122,-4.4142,-4.3603,-4.3329,-4.3329,-4.3329,-4.3329,-4.3329,-4.3329,-4.3329,-4.3329,-4.3329,-4.3329,-4.3329,-4.3329,-4.3329,-4.3329,-4.3329,-4.3329,-1.7009,-1.7342,-1.7423,-1.8069,-1.823,-1.7819,-1.6108,-1.6191,-1.6183,-1.4518,-1.2342,-1.1314,-1.3293,-1.4606,-1.5763,-1.69,-2.1349,-2.4927,-2.5338,-2.6875,-2.8373,-2.9664,-3.0279,-3.0758,-3.118,-3.2581,-3.3922,-3.5111,-3.7212,-3.8767,-3.9511,-3.9851,-4.0199,-4.0504,-4.0856,-4.115,-4.1402,-4.1979,-4.2302,-4.2302,-4.2619,-4.2772,-4.2772,-4.2772,-4.2772,-4.2772,-4.3032,-4.3142,-4.3142,-4.3142,-4.3142,-4.3142,-4.3142,-4.3142,-4.3178,-4.341,-4.3497,-4.3497,-4.3497,-4.3339,-4.3305,-4.4066,-4.4494,-4.4801,-4.5202,-4.5729,-4.62,-4.6265,-4.6159,-4.5915,-4.5597,-4.532,-4.4998,-4.4665,-4.4587,-4.4587,-4.4587,-4.4587,-4.4587,-4.4587,-4.4587,-4.4587,-4.4587,-4.4587,-4.4587,-4.4587,-4.4539,-4.4474,-4.4474,-4.4655,-4.4929,-4.5228,-4.4654,-4.417,-4.4113,-4.363,-4.3329,-4.3329,-4.3329,-4.3329,-4.3329,-4.3329,-4.3329,-4.3329,-4.3329,-4.3329,-4.3329,-4.3329,-4.3329,-4.3329,-4.3329,-4.3329,-1.6764,-1.6838,-1.6675,-1.7009,-1.709,-1.6764,-1.5523,-1.5357,-1.4851,-1.2571,-1.1209,-1.0438,-1.0611,-1.2582,-1.4255,-1.4554,-1.8556,-2.2199,-2.3872,-2.5201,-2.6811,-2.9192,-2.9664,-3.0062,-3.0719,-3.1018,-3.2181,-3.4508,-3.6168,-3.7291,-3.7764,-3.8525,-3.8962,-3.9086,-3.961,-4.022,-4.078,-4.1296,-4.156,-4.1664,-4.175,-4.181,-4.181,-4.181,-4.181,-4.1853,-4.2342,-4.2577,-4.2577,-4.2577,-4.2577,-4.2577,-4.2577,-4.2616,-4.275,-4.3124,-4.3321,-4.3375,-4.3321,-4.3031,-4.2925,-4.4181,-4.4602,-4.4801,-4.5761,-4.6115,-4.6139,-4.6253,-4.5833,-4.5372,-4.5372,-4.4998,-4.4587,-4.4587,-4.4587,-4.4587,-4.4587,-4.4587,-4.4587,-4.4587,-4.4587,-4.4587,-4.4587,-4.4587,-4.457,-4.444,-4.4371,-4.4286,-4.4259,-4.4802,-4.508,-4.4947,-4.4747,-4.422,-4.3409,-4.3329,-4.3329,-4.3329,-4.3329,-4.3329,-4.3329,-4.3329,-4.3329,-4.3329,-4.3329,-4.3329,-4.3329,-4.3329,-4.3329,-4.3329,-4.3329,-4.3329,-1.544,-1.4594,-1.3581,-1.5523,-1.5944,-1.544,-1.3334,-1.3659,-1.3646,-1.1375,-1.0009,-0.9492,-1.0438,-1.1634,-1.318,-1.5488,-1.9496,-2.2921,-2.4591,-2.686,-2.8142,-2.7765,-2.8926,-2.9521,-2.8718,-3.0177,-3.1375,-3.1847,-3.2891,-3.475,-3.7632,-3.8525,-3.9193,-3.9885,-3.9368,-3.9473,-4.0254,-4.0199,-4.0439,-4.1041,-4.1578,-4.181,-4.181,-4.181,-4.181,-4.181,-4.1895,-4.1937,-4.1937,-4.1937,-4.1937,-4.1937,-4.1937,-4.2262,-4.2655,-4.2226,-4.2422,-4.277,-4.2284,-4.243,-4.2999,-4.3714,-4.4078,-4.4359,-4.5133,-4.5487,-4.5626,-4.5647,-4.5232,-4.4776,-4.4776,-4.4682,-4.4587,-4.4587,-4.4587,-4.4587,-4.4587,-4.4587,-4.4587,-4.4587,-4.4587,-4.4587,-4.4587,-4.4587,-4.4384,-4.3621,-4.3993,-4.4262,-4.412,-4.406,-4.3981,-4.3977,-4.3731,-4.3472,-4.3329,-4.3329,-4.3329,-4.3329,-4.3329,-4.3329,-4.3329,-4.3329,-4.3329,-4.3329,-4.3329,-4.3329,-4.3329,-4.3329,-4.3329,-4.3329,-4.3329,-4.3329,-1.2729,-1.2225,-1.1724,-1.2729,-1.3068,-1.2735,-1.1632,-1.1798,-1.1787,-1.0091,-0.9323,-0.8886,-0.879,-1.0096,-1.1691,-1.3039,-1.7324,-2.0926,-2.1967,-2.4691,-2.6476,-2.6537,-2.7717,-2.8475,-2.8152,-2.9537,-3.0696,-3.118,-3.1609,-3.3031,-3.5649,-3.7021,-3.806,-3.8887,-3.8541,-3.8707,-3.9489,-3.9406,-3.9699,-4.0497,-4.0767,-4.0908,-4.0908,-4.0908,-4.0908,-4.0938,-4.1223,-4.1313,-4.1313,-4.1313,-4.1313,-4.1313,-4.1313,-4.149,-4.1768,-4.181,-4.1979,-4.2203,-4.1895,-4.2106,-4.2601,-4.3278,-4.4004,-4.4763,-4.5225,-4.5436,-4.5407,-4.5142,-4.4814,-4.4587,-4.4587,-4.4587,-4.4587,-4.4587,-4.4587,-4.4587,-4.4587,-4.4253,-4.3931,-4.3931,-4.3545,-4.3229,-4.3229,-4.3229,-4.3223,-4.3149,-4.3346,-4.36,-4.3882,-4.3661,-4.3655,-4.4242,-4.3652,-4.3329,-4.3329,-4.3329,-4.3329,-4.3329,-4.3329,-4.3329,-4.3329,-4.3329,-4.3329,-4.3329,-4.3329,-4.3329,-4.3329,-4.3329,-4.3329,-4.3329,-4.3329,-4.3329,-1.0524,-1.0438,-1.0265,-1.0524,-1.0611,-1.0524,-1.0366,-1.0366,-1.0019,-0.8811,-0.8548,-0.8197,-0.7316,-0.8586,-0.9938,-1.0444,-1.4344,-1.7749,-1.9136,-2.1808,-2.404,-2.5134,-2.638,-2.729,-2.7716,-2.8779,-2.9806,-3.0833,-3.1106,-3.2078,-3.4187,-3.5758,-3.6964,-3.7748,-3.7632,-3.7905,-3.8635,-3.8509,-3.8799,-3.9627,-3.9782,-3.9833,-3.985,-4.002,-4.007,-4.0121,-4.0528,-4.075,-4.075,-4.075,-4.075,-4.075,-4.075,-4.078,-4.0949,-4.1313,-4.1508,-4.1578,-4.1464,-4.1748,-4.2236,-4.2821,-4.3826,-4.49,-4.5234,-4.532,-4.5232,-4.472,-4.4587,-4.4587,-4.4587,-4.4587,-4.4587,-4.4587,-4.4457,-4.4327,-4.4327,-4.3621,-4.3047,-4.3047,-4.2458,-4.1997,-4.1997,-4.1997,-4.2173,-4.2677,-4.2723,-4.287,-4.3343,-4.3363,-4.363,-4.4358,-4.3771,-4.3329,-4.3329,-4.3329,-4.3329,-4.3329,-4.3329,-4.3329,-4.3329,-4.3329,-4.3329,-4.3329,-4.3329,-4.3329,-4.3329,-4.3329,-4.3329,-4.3329,-4.3329,-4.3329,-1.0351,-0.9836,-0.9323,-1.0351,-1.0611,-1.0448,-0.9712,-0.9634,-0.9196,-0.7613,-0.7258,-0.7252,-0.7143,-0.7312,-0.8078,-1.0191,-1.1708,-1.4042,-1.8197,-2.0235,-2.1835,-2.337,-2.4963,-2.6165,-2.6591,-2.7614,-2.8755,-2.9844,-3.0696,-3.2324,-3.4931,-3.6043,-3.6964,-3.7748,-3.7084,-3.7084,-3.7863,-3.7203,-3.7203,-3.8035,-3.869,-3.9016,-3.9032,-3.9782,-4.007,-4.0121,-4.0171,-4.0154,-4.0154,-4.0154,-4.0154,-4.0154,-4.0154,-4.0497,-4.0874,-4.0417,-4.0528,-4.0903,-4.0417,-4.1138,-4.2291,-4.2359,-4.2938,-4.3702,-4.4444,-4.4665,-4.4682,-4.4643,-4.4587,-4.4587,-4.4587,-4.4587,-4.4587,-4.4587,-4.4006,-4.3443,-4.3443,-4.2707,-4.2125,-4.2125,-4.2062,-4.1997,-4.1997,-4.1997,-4.1978,-4.1844,-4.2317,-4.2667,-4.256,-4.3004,-4.3329,-4.3409,-4.3329,-4.3329,-4.3329,-4.3329,-4.3329,-4.3329,-4.3329,-4.3329,-4.3329,-4.3329,-4.3329,-4.3329,-4.3329,-4.3329,-4.3329,-4.3329,-4.3329,-4.3329,-4.3329,-4.3329,-0.836,-0.8185,-0.7925,-0.8356,-0.8456,-0.8384,-0.814,-0.6966,-0.5797,-0.5092,-0.6091,-0.7091,-0.7084,-0.7078,-0.7418,-0.8269,-0.9924,-1.173,-1.3546,-1.6036,-1.836,-1.9834,-2.2088,-2.3903,-2.4999,-2.6374,-2.7614,-2.8688,-3.0279,-3.1656,-3.2722,-3.3708,-3.4596,-3.5473,-3.5165,-3.5695,-3.7084,-3.6737,-3.7024,-3.7806,-3.8092,-3.8246,-3.8262,-3.8541,-3.8723,-3.8723,-3.8723,-3.8995,-3.9368,-3.9368,-3.9662,-4.007,-4.007,-4.0254,-4.0417,-4.0154,-4.0254,-4.0436,-4.068,-4.1441,-4.2371,-4.2828,-4.3487,-4.4181,-4.4485,-4.4587,-4.4587,-4.4587,-4.4587,-4.4587,-4.4587,-4.4196,-4.3814,-4.3814,-4.3169,-4.252,-4.252,-4.1869,-4.1213,-4.1213,-4.0758,-4.0462,-4.0462,-4.0462,-4.0692,-4.1377,-4.1771,-4.2183,-4.2884,-4.3165,-4.3329,-4.3329,-4.3329,-4.3329,-4.3329,-4.3329,-4.3329,-4.3329,-4.3329,-4.3329,-4.3329,-4.3329,-4.3329,-4.3329,-4.3329,-4.3329,-4.3329,-4.3329,-4.3329,-4.3329,-4.3329,-4.3329,-0.7064,-0.7058,-0.7143,-0.7061,-0.7074,-0.7088,-0.7098,-0.583,-0.4204,-0.2857,-0.3844,-0.5198,-0.5916,-0.6091,-0.6269,-0.6999,-0.8444,-0.9511,-0.9461,-1.2175,-1.4754,-1.6666,-1.8967,-2.108,-2.3039,-2.5222,-2.6964,-2.8004,-2.9151,-3.0088,-3.0758,-3.1066,-3.1979,-3.3518,-3.3602,-3.4321,-3.5837,-3.5837,-3.6276,-3.7115,-3.7338,-3.7456,-3.7456,-3.769,-3.7822,-3.7822,-3.7822,-3.8076,-3.858,-3.858,-3.9032,-3.9731,-3.9731,-3.9901,-4.007,-3.9833,-3.9731,-3.9798,-4.0107,-4.098,-4.2085,-4.2567,-4.3575,-4.4587,-4.4587,-4.4587,-4.4587,-4.4587,-4.4587,-4.4514,-4.4253,-4.3756,-4.3246,-4.2986,-4.2252,-4.1609,-4.1609,-4.0961,-4.0309,-4.0309,-3.9793,-3.9424,-3.9424,-3.9424,-3.9873,-4.119,-4.1384,-4.1848,-4.3165,-4.3329,-4.3329,-4.3329,-4.3329,-4.3329,-4.3329,-4.3329,-4.3329,-4.3329,-4.3329,-4.3329,-4.3329,-4.3329,-4.3329,-4.3329,-4.3329,-4.3329,-4.3329,-4.3329,-4.3329,-4.3329,-4.3329,-4.3329,-0.7084,-0.7068,-0.7058,-0.7078,-0.7084,-0.7094,-0.7128,-0.7045,-0.5763,-0.0984,-0.0089,-0.0805,-0.3212,-0.3659,-0.4378,-0.6735,-0.7094,-0.7126,-0.7163,-0.909,-1.1536,-1.4262,-1.5886,-1.7849,-2.0552,-2.4263,-2.6964,-2.8004,-2.7128,-2.7464,-2.9714,-2.8767,-2.9526,-3.2522,-3.2593,-3.3101,-3.4027,-3.4027,-3.4543,-3.5504,-3.6275,-3.66,-3.6676,-3.7456,-3.7822,-3.7822,-3.7822,-3.7806,-3.7806,-3.7806,-3.8262,-3.8908,-3.8908,-3.9368,-4.002,-3.9209,-3.8908,-3.8799,-3.8108,-3.9332,-4.1189,-4.1205,-4.2729,-4.4587,-4.4587,-4.4587,-4.4587,-4.4587,-4.4587,-4.4384,-4.3562,-4.3306,-4.3108,-4.2189,-4.1346,-4.0675,-4.0675,-4.006,-3.9409,-3.9409,-3.9424,-3.9424,-3.9424,-3.9424,-3.9873,-4.119,-4.1384,-4.1848,-4.3165,-4.3329,-4.3329,-4.3329,-4.3329,-4.3329,-4.3329,-4.3329,-4.3329,-4.3329,-4.3329,-4.3329,-4.3329,-4.3329,-4.3329,-4.3329,-4.3329,-4.3329,-4.3329,-4.3329,-4.3329,-4.3329,-4.3329,-4.3329,-0.6189,-0.7091,-0.7088,-0.7094,-0.7108,-0.7121,-0.7135,-0.4589,-0.1796,-0.0269,0.0,0.0718,0.3224,0.241,0.089,-0.0356,-0.249,-0.4086,-0.4671,-0.7661,-1.0575,-1.2668,-1.5891,-1.8671,-2.0666,-2.281,-2.4555,-2.5775,-2.6213,-2.6812,-2.7476,-2.7936,-2.9151,-3.1596,-3.1683,-3.2105,-3.3031,-3.3031,-3.3171,-3.3547,-3.4403,-3.4802,-3.4868,-3.577,-3.6196,-3.6196,-3.6196,-3.6523,-3.6964,-3.6964,-3.744,-3.8149,-3.8149,-3.8318,-3.8502,-3.8262,-3.8149,-3.8214,-3.8466,-3.9296,-4.0388,-4.0889,-4.1866,-4.2831,-4.2831,-4.3663,-4.4587,-4.4587,-4.4196,-4.3621,-4.3366,-4.2395,-4.1478,-4.1213,-4.0447,-3.9793,-3.9793,-3.961,-3.9424,-3.9424,-3.9424,-3.9424,-3.9424,-3.9783,-4.0382,-4.125,-4.1758,-4.2372,-4.3225,-4.3329,-4.3329,-4.3329,-4.3329,-4.3329,-4.3329,-4.3329,-4.3329,-4.3329,-4.3329,-4.3329,-4.3329,-4.3329,-4.3329,-4.3329,-4.3329,-4.3329,-4.3329,-4.3329,-4.3329,-4.3329,-4.3329,-4.3329,-0.3129,-0.5104,-0.6008,-0.6837,-0.7125,-0.6588,-0.486,-0.2156,0.0539,0.2335,0.2695,0.3323,0.5392,0.529,0.4739,0.4281,0.1511,-0.1154,-0.2928,-0.5571,-0.84,-1.1446,-1.4971,-1.7739,-1.9343,-2.1286,-2.2834,-2.4063,-2.4777,-2.5557,-2.6472,-2.7116,-2.8311,-3.0012,-3.0443,-3.1119,-3.2033,-3.2105,-3.2249,-3.2593,-3.3171,-3.3449,-3.3518,-3.4109,-3.4624,-3.492,-3.492,-3.5415,0.0,-3.6165,-3.6631,-3.7338,-3.7338,-3.7515,-3.7748,-3.7456,-3.7338,-3.7401,-3.7541,-3.8418,-3.9518,-3.9961,-4.0944,-4.1997,-4.1997,-4.2769,-4.3604,-4.3604,-4.3229,-4.2707,-4.2379,-4.1528,-4.0622,-4.0309,-3.9793,-3.9424,-3.9424,-3.9424,-3.9424,-3.9424,-3.9424,-3.9424,-3.9424,-3.9963,-4.0621,-4.128,-4.1938,-4.2596,-4.324,-4.3329,-4.3329,-4.3329,-4.3329,-4.3329,-4.3329,-4.3329,-4.3329,-4.3329,-4.3329,-4.3329,-4.3329,-4.3329,-4.3329,-4.3329,-4.3329,-4.3329,-4.3329,-4.3329,-4.3329,-4.3329,-4.3329,-4.3329,0.0,-0.125,-0.3573,-0.5757,-0.6311,-0.5218,-0.0718,0.0269,0.0,0.5947,0.6952,0.6394,0.4289,0.5641,0.7101,0.7098,0.4641,0.1599,-0.1776,-0.328,-0.5697,-1.0524,-1.3325,-1.5479,-1.6899,-1.9485,-2.1505,-2.263,-2.2902,-2.3877,-2.6047,-2.6307,-2.6883,-2.7844,-2.9028,-3.0126,-3.1106,-3.1106,-3.1536,-3.2393,-3.2464,-3.2536,-3.2536,-3.2593,-3.3101,-3.3876,-3.3876,-3.4476,-3.5359,-3.5359,-3.5816,-3.6492,-3.6492,-3.698,-3.7531,-3.6798,-3.6492,-3.6446,-3.5718,-3.6888,-3.8611,-3.8704,-4.0161,-4.1804,-4.1804,-4.1933,-4.1997,-4.1997,-4.1933,-4.1739,-4.0878,-4.0622,-4.0432,-3.961,-3.9424,-3.9424,-3.9424,-3.9424,-3.9424,-3.9424,-3.9424,-3.9424,-3.9424,-4.0008,-4.0681,-4.1294,-4.1983,-4.2656,-4.3096,-4.325,-4.325,-4.317,-4.325,-4.3329,-4.3329,-4.3329,-4.3329,-4.3329,-4.3329,-4.3329,-4.3329,-4.3329,-4.3329,-4.3329,-4.3329,-4.3329,-4.3329,-4.3329,-4.3329,-4.3329,-4.3329,-4.3329,0.5287,0.0,0.1781,0.1248,0.107,0.1338,0.0,0.2769,0.3038,0.4204,0.5833,0.6923,0.6361,0.6723,0.7084,0.7068,0.6438,0.4452,0.0089,-0.4685,-0.8436,-1.0507,-1.2283,-1.3951,-1.5466,-1.7139,-1.8717,-2.0172,-2.1203,-2.2003,-2.2503,-2.4245,-2.5284,-2.5535,-2.7522,-2.9003,-3.0139,-3.0139,-3.0216,-3.0508,-3.1193,-3.1536,-3.1536,-3.2249,-3.2749,-3.2961,-3.2961,-3.3463,-3.4327,-3.4327,-3.4876,-3.5782,-3.5782,-3.5846,-3.6022,-3.5846,-3.5782,-3.5718,-3.5554,-3.646,-3.7896,-3.8937,-3.9622,-3.999,-3.999,-4.0961,-4.1997,-4.1997,-4.1528,-4.0946,-4.0758,-4.0185,-3.9666,-3.9409,-3.9424,-3.9424,-3.9424,-3.9424,-3.9424,-3.9424,-3.9424,-3.9424,-3.9424,-4.0382,-4.1205,-4.1354,-4.2357,-4.2802,-4.2097,-4.2725,-4.2981,-4.2111,-4.2805,-4.3329,-4.3329,-4.3329,-4.3329,-4.3329,-4.3329,-4.3329,-4.3329,-4.3329,-4.3329,-4.3329,-4.3329,-4.3329,-4.3329,-4.3329,-4.3329,-4.3329,-4.3329,-4.3329,0.6729,0.6186,0.5191,0.5191,0.5191,0.5191,0.5191,0.5191,0.5188,0.5186,0.6183,0.7088,0.7074,0.7071,0.7064,0.7143,0.7071,0.5716,0.1683,-0.2731,-0.625,-0.7929,-0.9477,-1.1379,-1.3944,-1.559,-1.7091,-1.8556,-1.9761,-2.0755,-2.1293,-2.3027,-2.4245,-2.4787,-2.6449,-2.7867,-2.9028,-2.9534,-2.9792,-2.9792,-3.0279,-3.0558,-3.0558,-3.1057,-3.1549,-3.196,-3.196,-3.2464,-3.338,-3.338,-3.3671,-3.4192,-3.4624,-3.4839,-3.4839,-3.5359,-3.5504,-3.5504,-3.5504,-3.6342,-3.7584,-3.8616,-3.9155,-3.9424,-3.9424,-4.006,-4.0842,-4.0842,-4.0447,-4.0115,-4.0115,-3.9722,-3.9424,-3.9424,-3.9424,-3.9424,-3.9424,-3.9017,-3.8782,-3.9265,-3.9017,-3.8782,-3.9337,-3.9847,-4.0283,-4.0499,-4.0968,-4.1188,-4.0873,-4.1351,-4.1518,-4.0916,-4.1351,-4.1699,-4.1699,-4.2208,-4.2725,-4.325,-4.3329,-4.3329,-4.3329,-4.3329,-4.3329,-4.3329,-4.3329,-4.3329,-4.3329,-4.3329,-4.3329,-4.3329,-4.3329,-4.3329,0.7081,0.7088,0.7094,0.7094,0.7094,0.7094,0.7094,0.7094,0.718,0.7347,0.7344,0.7337,0.7408,0.7489,0.7485,0.7139,0.6704,0.563,0.3383,0.0529,-0.2283,-0.4579,-0.6413,-0.8804,-1.2342,-1.4,-1.547,-1.6987,-1.8203,-1.9472,-2.0657,-2.1859,-2.2998,-2.4255,-2.5357,-2.6521,-2.7591,-2.87,-2.9378,-2.9534,-2.9534,-2.9624,-2.9792,-2.9792,-3.0203,-3.097,-3.097,-3.1536,-3.2393,-3.2393,-3.2464,-3.2664,-3.3449,-3.3808,-3.3891,-3.4773,-3.5148,-3.5294,-3.5544,-3.6432,-3.7524,-3.8182,-3.8856,-3.9424,-3.9424,-3.9424,-3.9424,-3.9424,-3.9424,-3.9424,-3.9424,-3.9424,-3.9424,-3.9424,-3.9424,-3.9337,-3.9177,-3.8472,-3.8069,-3.8943,-3.8308,-3.7904,-3.8943,-3.8833,-3.8746,-3.9296,-3.9158,-3.9181,-3.9555,-3.9812,-3.9812,-3.9623,-3.9812,-3.9899,-3.9899,-4.0831,-4.185,-4.2981,-4.317,-4.3329,-4.3329,-4.3329,-4.3329,-4.3329,-4.3329,-4.3329,-4.3329,-4.3329,-4.3329,-4.3329,-4.3329,-4.3329,0.7058,0.7058,0.7061,0.7061,0.7061,0.7061,0.7061,0.7061,0.7411,0.8372,0.8636,0.8636,0.8632,0.9401,0.9396,0.7401,0.4896,0.392,0.6094,0.258,-0.0888,-0.2662,-0.5411,-0.7938,-0.985,-1.1206,-1.2609,-1.4315,-1.5644,-1.6865,-1.8226,-1.9397,-2.0558,-2.1817,-2.2921,-2.4129,-2.5284,-2.6472,-2.7464,-2.8347,-2.8347,-2.8858,-2.9792,-2.9792,-2.9869,-2.9998,-2.9998,-3.0558,-3.1389,-3.1389,-3.1888,-3.2593,-3.2749,-3.282,-3.282,-3.2961,-3.3533,-3.4399,-3.5837,-3.6806,-3.7524,-3.8182,-3.8856,-3.9424,-3.9424,-3.9424,-3.9424,-3.9424,-3.9424,-3.9424,-3.9424,-3.9424,-3.9424,-3.9424,-3.9424,-3.9177,-3.8234,-3.7919,-3.7829,-3.7994,-3.7175,-3.6774,-3.7829,-3.7714,-3.7615,-3.8241,-3.8755,-3.8824,-3.8389,-3.9271,-3.9536,-3.8469,-3.9271,-3.9899,-3.9899,-4.0073,-4.0661,-4.1767,-4.2805,-4.3329,-4.3329,-4.3329,-4.3329,-4.3329,-4.3329,-4.3329,-4.3329,-4.3329,-4.3329,-4.3329,-4.3329,-4.3329,0.7929,0.8101,0.8189,0.8877,0.8009,0.7316,0.7929,0.8101,0.8364,0.9575,0.9836,0.9666,0.8978,0.9318,0.9148,0.7418,0.5894,0.545,0.6917,0.4109,0.1692,0.0889,-0.1596,-0.4569,-0.7847,-0.8878,-1.0543,-1.3549,-1.4355,-1.5569,-1.7591,-1.8234,-1.9405,-2.1203,-2.1799,-2.2688,-2.3877,-2.4392,-2.5797,-2.8096,-2.8096,-2.8347,-2.8937,-2.9534,-2.9456,-2.8937,-2.9534,-3.0075,-3.0419,-3.0419,-3.0709,-3.1132,-3.1683,-3.1815,-3.1888,-3.2393,-3.3171,-3.407,-3.4304,-3.5488,-3.6933,-3.7043,-3.792,-3.8931,-3.9305,-3.9424,-3.9265,-3.8708,-3.8943,-3.9424,-3.9424,-3.9424,-3.9265,-3.8708,-3.8546,-3.8219,-3.7175,-3.6476,-3.6318,-3.6852,-3.6067,-3.5748,-3.6774,-3.6301,-3.6183,-3.7017,-3.6877,-3.6763,-3.7127,-3.7691,-3.7782,-3.7243,-3.7691,-3.8043,-3.8043,-3.8559,-3.9697,-4.1504,-4.2644,-4.3329,-4.3329,-4.3329,-4.3329,-4.3329,-4.3329,-4.3329,-4.3329,-4.3329,-4.3329,-4.3329,-4.3329,-4.3329,0.8627,0.9061,0.9492,1.0351,0.9226,0.8185,0.9061,0.9323,0.9579,1.0783,1.1037,1.0697,0.9836,0.9235,0.8636,0.7771,0.7344,0.6723,0.5557,0.3933,0.2767,0.2767,0.1159,-0.1702,-0.6111,-0.7175,-0.9019,-1.2538,-1.316,-1.4441,-1.6734,-1.7124,-1.8403,-2.0845,-2.0845,-2.1578,-2.3057,-2.3135,-2.4542,-2.7348,-2.7348,-2.7429,-2.7775,-2.8858,-2.8937,-2.8176,-2.9287,-2.9792,-2.9792,-2.9792,-2.9792,-2.9856,-3.0633,-3.0908,-3.0983,-3.196,-3.2749,-3.3241,-3.2749,-3.4014,-3.5761,-3.564,-3.6563,-3.7826,-3.8488,-3.862,-3.8457,-3.7663,-3.7979,-3.8694,-3.8943,-3.8855,-3.8531,-3.7919,-3.7587,-3.7112,-3.6053,-3.5197,-3.4897,-3.5668,-3.5047,-3.4664,-3.5668,-3.4966,-3.4653,-3.58,-3.5226,-3.5115,-3.6219,-3.6358,-3.6358,-3.6358,-3.6358,-3.6358,-3.6358,-3.7415,-3.889,-4.0632,-4.2111,-4.29,-4.29,-4.3155,-4.3329,-4.3329,-4.3329,-4.3329,-4.3329,-4.3329,-4.3329,-4.3329,-4.3329,-4.3329,0.889,0.9666,1.0524,1.0611,1.0438,1.0351,1.0438,1.0438,1.0783,1.1901,1.2157,1.2151,1.2072,1.0351,0.8973,0.93,0.8113,0.5549,0.1162,0.0358,0.0268,0.0268,0.0089,-0.135,-0.468,-0.6476,-0.8128,-0.9988,-1.1337,-1.2624,-1.4064,-1.533,-1.7117,-1.9579,-1.9588,-2.0764,-2.3047,-2.3135,-2.3714,-2.5031,-2.5031,-2.563,-2.6637,-2.7695,-2.8176,-2.8176,-2.9287,-2.9792,-2.9792,-2.9792,-2.9792,-2.9792,-2.9856,-2.9934,-2.9998,-3.097,-3.1315,-3.1536,-3.2321,-3.3137,-3.3893,-3.4358,-3.4982,-3.5683,-3.6267,-3.6448,-3.6434,-3.6369,-3.6369,-3.6682,-3.7663,-3.7175,-3.6682,-3.7587,-3.7021,-3.6053,-3.5061,-3.4746,-3.4746,-3.4828,-3.3953,-3.3556,-3.4581,-3.3953,-3.3619,-3.464,-3.4713,-3.5115,-3.6219,-3.6358,-3.6358,-3.6358,-3.6358,-3.6358,-3.6358,-3.7415,-3.8198,-3.8379,-4.0462,-4.1684,-4.1684,-4.2725,-4.3329,-4.3329,-4.3329,-4.3329,-4.3329,-4.3329,-4.3329,-4.3329,-4.3329,-4.3329,1.0778,1.13,1.1815,1.2601,1.2778,1.2601,1.1815,1.1638,1.2145,1.4008,1.3866,1.3203,1.2413,1.0438,0.8978,0.9139,0.7944,0.6453,0.465,0.1876,0.0,0.0,0.0,-0.0449,-0.1715,-0.5073,-0.7526,-0.8472,-1.0554,-1.2369,-1.3866,-1.514,-1.6567,-1.8319,-1.9139,-2.0305,-2.1943,-2.2775,-2.3299,-2.3714,-2.4457,-2.5041,-2.5462,-2.6625,-2.6707,-2.6108,-2.7936,-2.8767,-2.8767,-2.9534,-2.9792,-2.9792,-2.9792,-2.9792,-2.9856,-3.0216,-3.0696,-3.118,-3.0908,-3.1757,-3.3032,-3.3436,-3.4126,-3.4941,-3.5908,-3.6198,-3.6053,-3.544,-3.5278,-3.5507,-3.654,-3.6526,-3.6132,-3.5922,-3.5534,-3.4966,-3.3953,-3.3713,-3.3713,-3.3713,-3.3398,-3.324,-3.3641,-3.3398,-3.3332,-3.4098,-3.45,-3.5002,-3.5755,-3.6157,-3.6358,-3.6358,-3.6358,-3.6358,-3.6358,-3.6803,-3.707,-3.707,-3.9258,-4.0831,-4.1587,-4.2029,-4.2548,-4.325,-4.3329,-4.3329,-4.3329,-4.3329,-4.3329,-4.3329,-4.3329,-4.3329,1.2066,1.2832,1.3516,1.399,1.4328,1.4314,1.3112,1.2851,1.3275,1.488,1.4894,1.423,1.3112,1.1552,1.0255,0.9579,0.8464,0.7517,0.7173,0.4291,0.1697,0.0179,0.0,0.0,0.0,-0.3646,-0.6418,-0.755,-0.978,-1.1512,-1.2603,-1.4268,-1.5798,-1.7001,-1.8303,-1.9488,-2.0755,-2.1943,-2.2492,-2.258,-2.3694,-2.4296,-2.4296,-2.5462,-2.5546,-2.4872,-2.6778,-2.7763,-2.8176,-2.8937,-2.9456,-2.9792,-2.9792,-2.9792,-2.9792,-2.9792,-3.0216,-3.0696,-2.9998,-3.0633,-3.1783,-3.2136,-3.2777,-3.3614,-3.4673,-3.5036,-3.5116,-3.4428,-3.4191,-3.4345,-3.5034,-3.5183,-3.5116,-3.4746,-3.4428,-3.3953,-3.324,-3.3081,-3.3081,-3.3081,-3.3081,-3.3081,-3.3081,-3.3081,-3.3269,-3.3822,-3.4374,-3.4914,-3.5466,-3.6031,-3.6358,-3.6358,-3.6358,-3.6358,-3.6358,-3.6358,-3.6358,-3.6358,-3.7874,-3.936,-4.0462,-4.0817,-4.1601,-4.2725,-4.2725,-4.29,-4.3329,-4.3329,-4.3329,-4.3329,-4.3329,-4.3329,1.2328,1.4015,1.5455,1.4412,1.4894,1.5462,1.4328,1.4088,1.4088,1.4088,1.4977,1.5379,1.4334,1.4028,1.3224,1.0945,0.9666,0.8464,0.7258,0.7084,0.5366,0.0626,0.0,0.0,0.0,-0.2183,-0.4644,-0.7221,-0.8866,-0.9891,-0.9989,-1.2517,-1.4435,-1.5624,-1.7001,-1.8226,-1.9488,-2.0666,-2.1293,-2.1293,-2.2492,-2.3047,-2.3135,-2.4296,-2.4787,-2.4872,-2.5975,-2.7128,-2.8084,-2.8096,-2.8767,-2.9792,-2.9792,-2.9792,-2.9792,-2.9792,-2.9792,-2.9792,-2.9792,-2.9792,-2.988,-3.0432,-3.0972,-3.1499,-3.2051,-3.2616,-3.3081,-3.3081,-3.3081,-3.3081,-3.3081,-3.3081,-3.3398,-3.4428,-3.3869,-3.3081,-3.3081,-3.3081,-3.3081,-3.3081,-3.3081,-3.3081,-3.3081,-3.3081,-3.3269,-3.3809,-3.4361,-3.4926,-3.5479,-3.6031,-3.6358,-3.6358,-3.6358,-3.6358,-3.6358,-3.6358,-3.6358,-3.6358,-3.6358,-3.6883,-3.8017,-3.9271,-4.0404,-4.1587,-4.1587,-4.2193,-4.3329,-4.3329,-4.3329,-4.3329,-4.3329,-4.3329,1.4685,1.5191,1.5621,1.5296,1.5455,1.5621,1.5296,1.522,1.522,1.522,1.5455,1.5379,1.4334,1.3366,1.2316,1.0864,0.9666,0.8456,0.7238,0.7074,0.6545,0.5196,0.2056,0.0,0.0,-0.2158,-0.4669,-0.7331,-0.8855,-0.975,-0.9981,-1.2517,-1.4064,-1.4435,-1.6539,-1.787,-1.8226,-1.9397,-2.0486,-2.1293,-2.1658,-2.2306,-2.3135,-2.3464,-2.3627,-2.3637,-2.4798,-2.5452,-2.5859,-2.7429,-2.8767,-2.9792,-2.9792,-2.9792,-2.9792,-2.9792,-2.9792,-2.9792,-2.9792,-2.9792,-2.988,-3.0432,-3.0972,-3.1499,-3.2051,-3.2616,-3.3081,-3.3081,-3.3081,-3.3081,-3.3081,-3.3081,-3.3154,-3.3471,-3.3313,-3.3081,-3.3081,-3.3081,-3.3081,-3.3081,-3.3081,-3.3081,-3.3081,-3.3081,-3.3131,-3.3294,-3.4123,-3.5064,-3.5994,-3.6257,-3.6358,-3.6358,-3.6358,-3.6358,-3.6358,-3.6358,-3.6358,-3.6358,-3.6358,-3.6883,-3.8017,-3.8469,-3.9596,-4.1587,-4.1587,-4.2193,-4.3329,-4.3329,-4.3329,-4.3329,-4.3329,-4.3329,1.5779,1.6355,1.6919,1.6437,1.6675,1.7001,1.7001,1.6347,1.5696,1.5696,1.5696,1.5379,1.4334,1.3451,1.2565,1.1466,1.0351,0.9144,0.8013,0.7852,0.7606,0.7183,0.3755,0.1073,0.009,-0.1341,-0.3626,-0.716,-0.8228,-0.8918,-0.9096,-1.121,-1.2619,-1.3102,-1.5108,-1.6452,-1.6943,-1.8133,-1.9131,-1.9852,-2.0395,-2.1212,-2.2403,-2.2862,-2.3135,-2.3135,-2.4296,-2.4787,-2.4957,-2.6696,-2.7867,-2.8542,-2.8949,-2.9106,-2.9197,-2.9624,-2.9792,-2.9792,-2.9792,-2.9792,-2.9842,-3.0181,-3.0783,-3.1449,-3.1788,-3.2441,-3.3081,-3.3081,-3.3081,-3.3081,-3.3081,-3.3081,-3.3081,-3.3081,-3.3081,-3.3081,-3.3081,-3.3081,-3.3081,-3.3081,-3.3081,-3.3081,-3.3081,-3.3081,-3.3081,-3.3081,-3.401,-3.5115,-3.6219,-3.6358,-3.6358,-3.6358,-3.6358,-3.6358,-3.6358,-3.6358,-3.6358,-3.6358,-3.6358,-3.6709,-3.7415,-3.7415,-3.8289,-4.0204,-4.0204,-4.0817,-4.1961,-4.2386,-4.2629,-4.2644,-4.3076,-4.3329,1.6273,1.7496,1.8718,1.7747,1.823,1.9045,1.9116,1.7488,1.5944,1.5861,1.5703,1.5296,1.425,1.4035,1.3568,1.2322,1.1295,1.0183,0.889,0.8715,0.8288,0.7258,0.5186,0.2857,0.0268,0.0,-0.1894,-0.6471,-0.7349,-0.7675,-0.7804,-0.9217,-1.0583,-1.1848,-1.3199,-1.4555,-1.5825,-1.6943,-1.7598,-1.7684,-1.8772,-1.9943,-2.1203,-2.2403,-2.296,-2.3135,-2.4211,-2.4702,-2.4872,-2.5891,-2.6389,-2.6565,-2.7602,-2.8004,-2.8176,-2.9118,-2.9624,-2.9792,-2.9702,-2.9702,-2.9792,-2.9792,-3.0482,-3.1336,-3.1373,-3.2139,-3.3006,-3.3056,-3.3081,-3.3081,-3.3081,-3.3081,-3.3081,-3.3081,-3.3081,-3.3081,-3.3081,-3.3081,-3.3081,-3.3081,-3.3081,-3.3081,-3.3081,-3.3081,-3.3093,-3.3144,-3.4048,-3.5102,-3.6157,-3.6332,-3.6358,-3.6358,-3.6358,-3.6358,-3.6358,-3.6358,-3.6358,-3.6358,-3.6358,-3.6358,-3.6358,-3.6358,-3.6977,-3.8107,-3.8107,-3.8649,-3.9899,-4.0916,-4.1504,-4.1587,-4.2548,-4.3076,1.839,1.863,1.8957,1.8718,1.8798,1.9204,2.0079,1.9274,1.806,1.7172,1.5636,1.4412,1.4173,1.4075,1.3372,1.13,1.0783,0.9831,0.7749,0.7489,0.7411,0.7173,0.664,0.4654,0.0447,0.0,-0.1172,-0.4141,-0.6298,-0.7577,-0.7804,-0.9217,-1.0583,-1.1848,-1.3199,-1.4555,-1.5825,-1.6109,-1.6669,-1.7692,-1.7963,-1.868,-1.9943,-2.1123,-2.2217,-2.3135,-2.3387,-2.3963,-2.4787,-2.5041,-2.5714,-2.6554,-2.6719,-2.7371,-2.8016,-2.7464,-2.8303,-2.9702,-2.8767,-2.9028,-2.9792,-2.9792,-3.0244,-3.0859,-3.1273,-3.1863,-3.2491,-3.2955,-3.3081,-3.3081,-3.3081,-3.3081,-3.3081,-3.3081,-3.3081,-3.3081,-3.3081,-3.3081,-3.3081,-3.3081,-3.3081,-3.3081,-3.3081,-3.3081,-3.3219,-3.3658,-3.4299,-3.4964,-3.5629,-3.6094,-3.6358,-3.6358,-3.6358,-3.6358,-3.6358,-3.6358,-3.6358,-3.6358,-3.6358,-3.6358,-3.6358,-3.6358,-3.6977,-3.8107,-3.8107,-3.8649,-3.9899,-4.0159,-4.0746,-4.1587,-4.0916,-4.1099,1.9116,1.9362,1.9766,1.9766,1.9766,1.9923,2.0479,1.9756,1.8798,1.823,1.6363,1.4734,1.4166,1.3646,1.3033,1.2345,1.1305,1.0178,0.8965,0.8273,0.7757,0.7156,0.7088,0.5649,0.2054,0.0716,-0.054,-0.1814,-0.533,-0.7563,-0.7716,-0.8601,-0.9608,-1.0974,-1.2231,-1.359,-1.4854,-1.5534,-1.6109,-1.6756,-1.6756,-1.7762,-1.9588,-2.0755,-2.1943,-2.3135,-2.3135,-2.3474,-2.3963,-2.3963,-2.4307,-2.4893,-2.5473,-2.6036,-2.6521,-2.6472,-2.7221,-2.8211,-2.8096,-2.8518,-2.9028,-2.9028,-2.9383,-2.9922,-3.0462,-3.1001,-3.1626,-3.2819,-3.3081,-3.3081,-3.3081,-3.3081,-3.3081,-3.3081,-3.3081,-3.3081,-3.3081,-3.3081,-3.3081,-3.3081,-3.3081,-3.3081,-3.3081,-3.3081,-3.3269,-3.3822,-3.4374,-3.4914,-3.5466,-3.6031,-3.6358,-3.6358,-3.6358,-3.6358,-3.6358,-3.6358,-3.6358,-3.6358,-3.6358,-3.6358,-3.6358,-3.6358,-3.6722,-3.723,-3.7322,-3.7599,-3.8225,-3.8738,-3.9346,-3.9931,-3.9885,-4.0232,1.952,1.9923,2.0566,2.0566,2.0566,2.0557,2.0401,1.9599,1.8877,1.855,1.7001,1.5462,1.4573,1.3372,1.2851,1.3646,1.1997,1.0524,1.0351,0.9318,0.8189,0.7228,0.7081,0.6186,0.3838,0.1432,0.0,0.0,-0.4372,-0.7155,-0.7715,-0.7889,-0.8627,-0.9998,-1.0974,-1.2334,-1.3872,-1.4949,-1.554,-1.5832,-1.5832,-1.7023,-1.9222,-2.0486,-2.1756,-2.3135,-2.3135,-2.3135,-2.3135,-2.3135,-2.3135,-2.3222,-2.4125,-2.4628,-2.4872,-2.5641,-2.6141,-2.6637,-2.7267,-2.7683,-2.7844,-2.7844,-2.8138,-2.8598,-2.9223,-2.9804,-3.0536,-3.2253,-3.2797,-3.2797,-3.3068,-3.3081,-3.3081,-3.3081,-3.3081,-3.3081,-3.3081,-3.3081,-3.3081,-3.3081,-3.3081,-3.3081,-3.3081,-3.3081,-3.3232,-3.3684,-3.4311,-3.4889,-3.5341,-3.5968,-3.6358,-3.6358,-3.6358,-3.6358,-3.6358,-3.6358,-3.6358,-3.6358,-3.6358,-3.6358,-3.6358,-3.6358,-3.6358,-3.6358,-3.6358,-3.6358,-3.6358,-3.7322,-3.7939,-3.8107,-3.8917,-3.9373,2.0411,2.0479,2.0566,2.0566,2.0566,2.0323,1.9441,1.9116,1.847,1.6511,1.5944,1.5703,1.5538,1.4559,1.3561,1.2674,1.1472,1.0265,0.9235,0.8101,0.7316,0.7139,0.7074,0.618,0.3838,0.1429,0.0,0.0,-0.2785,-0.5417,-0.7617,-0.7889,-0.8627,-0.9998,-1.0194,-1.1453,-1.3878,-1.407,-1.4752,-1.5832,-1.5832,-1.6574,-1.7963,-1.9222,-2.0944,-2.3135,-2.3135,-2.3135,-2.3135,-2.3135,-2.3135,-2.3135,-2.3299,-2.3963,-2.4702,-2.3887,-2.4808,-2.6389,-2.5535,-2.587,-2.6719,-2.6719,-2.6764,-2.699,-2.7906,-2.8234,-2.8745,-3.0861,-3.1412,-3.1689,-3.2797,-3.3081,-3.3081,-3.3081,-3.3081,-3.3081,-3.3081,-3.3081,-3.3081,-3.3081,-3.3081,-3.3081,-3.3081,-3.3081,-3.3106,-3.3181,-3.406,-3.4751,-3.4826,-3.573,-3.6358,-3.6358,-3.6358,-3.6358,-3.6358,-3.6358,-3.6358,-3.6358,-3.6358,-3.6358,-3.6358,-3.6358,-3.6358,-3.6358,-3.6358,-3.6358,-3.6358,-3.6534,-3.715,-3.8107,-3.7243,-3.7428,2.0566,2.0566,2.0566,2.0566,2.0167,1.9599,1.9125,1.847,1.7738,1.6764,1.6108,1.5538,1.4894,1.4412,1.3913,1.3379,1.2334,1.1123,1.0009,0.8882,0.7841,0.7139,0.7071,0.6723,0.5641,0.2145,0.0,0.0,-0.2508,-0.5133,-0.7736,-0.7993,-0.8233,-0.8821,-0.9608,-1.0578,-1.1745,-1.3199,-1.4555,-1.5832,-1.5832,-1.648,-1.7692,-1.8234,-1.9413,-2.1132,-2.2501,-2.2677,-2.212,-2.2862,-2.3135,-2.3135,-2.3135,-2.3387,-2.38,-2.3299,-2.3724,-2.4638,-2.4787,-2.5126,-2.5546,-2.5546,-2.5546,-2.573,-2.6671,-2.6963,-2.7424,-2.9579,-3.0676,-3.1134,-3.1057,-3.1512,-3.1865,-3.1146,-3.1057,-3.1235,-3.1865,-3.2612,-3.3081,-3.3081,-3.3081,-3.3081,-3.3081,-3.3081,-3.3081,-3.3081,-3.401,-3.4726,-3.4726,-3.568,-3.6358,-3.6358,-3.6358,-3.6358,-3.6358,-3.6358,-3.6358,-3.6358,-3.6358,-3.6358,-3.6358,-3.6358,-3.6358,-3.6358,-3.6358,-3.6358,-3.6358,-3.6358,-3.6628,-3.715,-3.6628,-3.6628,2.0566,2.0566,2.0566,2.0566,1.9756,1.8957,1.863,1.7658,1.6854,1.6527,1.5869,1.5061,1.425,1.4088,1.4088,1.4088,1.3118,1.1895,1.0783,0.9579,0.8452,0.7228,0.7068,0.7084,0.7101,0.3309,0.0626,0.009,-0.186,-0.447,-0.7848,-0.8007,-0.8045,-0.8038,-0.892,-0.9608,-0.9998,-1.2614,-1.4555,-1.5832,-1.5832,-1.6292,-1.7225,-1.7598,-1.8048,-1.8672,-2.1489,-2.212,-2.1382,-2.2589,-2.3135,-2.3135,-2.3135,-2.3135,-2.3135,-2.3135,-2.3135,-2.3222,-2.4039,-2.4372,-2.4372,-2.4372,-2.4372,-2.4547,-2.5544,-2.5823,-2.6281,-2.8305,-2.959,-3.0135,-2.959,-3.0045,-3.0496,-2.959,-2.9407,-2.9772,-3.0944,-3.2239,-3.2982,-3.2698,-3.2612,-3.2513,-3.2239,-3.2426,-3.2612,-3.2612,-3.382,-3.4726,-3.4726,-3.568,-3.6358,-3.6358,-3.6358,-3.6358,-3.6358,-3.6358,-3.6358,-3.6358,-3.6358,-3.6358,-3.6358,-3.6358,-3.6358,-3.6358,-3.6358,-3.6358,-3.6358,-3.6358,-3.6358,-3.6358,-3.6358,-3.6358,2.0566,2.0566,2.0566,2.0566,1.9756,1.8718,1.7658,1.6601,1.5462,1.4496,1.425,1.4173,1.4088,1.4088,1.4088,1.4088,1.3118,1.1895,1.0783,0.9579,0.8452,0.7228,0.7143,0.7068,0.7098,0.483,0.2503,0.018,-0.0093,-0.2471,-0.7749,-0.8021,-0.7962,-0.8038,-0.8038,-0.8726,-0.9998,-1.2614,-1.4555,-1.5832,-1.5832,-1.5832,-1.592,-1.7131,-1.7037,-1.6197,-1.9835,-2.1382,-2.1382,-2.2589,-2.3135,-2.3135,-2.3135,-2.3135,-2.3135,-2.3135,-2.3135,-2.3135,-2.3135,-2.3222,-2.3222,-2.3222,-2.3222,-2.3379,-2.4242,-2.4506,-2.4961,-2.7045,-2.7778,-2.8038,-2.9131,-2.9407,-2.9498,-2.9407,-2.9407,-2.9772,-3.0944,-3.2239,-3.2698,-3.15,-3.1311,-3.0944,-2.9772,-3.0496,-3.1311,-3.1311,-3.3248,-3.4726,-3.4726,-3.568,-3.6358,-3.6358,-3.6358,-3.6358,-3.6358,-3.6358,-3.6358,-3.6358,-3.6358,-3.6358,-3.6358,-3.6358,-3.6358,-3.6358,-3.6358,-3.6358,-3.6358,-3.6358,-3.6358,-3.6358,-3.6358,-3.6358,2.0566,2.0566,2.0566,2.0566,1.9274,1.7819,1.7423,1.5959,1.4573,1.4166,1.4088,1.4088,1.4088,1.4088,1.4088,1.4088,1.3118,1.1895,1.0783,0.9579,0.8452,0.7228,0.7139,0.7061,0.7088,0.5006,0.259,0.0179,0.0,-0.1616,-0.5235,-0.7018,-0.7962,-0.8038,-0.8038,-0.8627,-0.9998,-1.1745,-1.3301,-1.4561,-1.5439,-1.5832,-1.5825,-1.6292,-1.6204,-1.592,-1.8033,-1.9405,-2.0215,-2.148,-2.2403,-2.3135,-2.3135,-2.3135,-2.3135,-2.3135,-2.3135,-2.3135,-2.3135,-2.3135,-2.3135,-2.3135,-2.3135,-2.3252,-2.3838,-2.4199,-2.4634,-2.5684,-2.6804,-2.7494,-2.7115,-2.7673,-2.8038,-2.721,-2.7673,-2.8319,-2.8773,-2.9863,-3.0777,-3.1134,-3.0586,-2.9954,-2.9498,-2.9772,-3.0316,-3.1033,-3.2503,-3.3857,-3.4623,-3.568,-3.6358,-3.6358,-3.6358,-3.6358,-3.6358,-3.6358,-3.6358,-3.6358,-3.6358,-3.6358,-3.6358,-3.6358,-3.6358,-3.6358,-3.6358,-3.6358,-3.6358,-3.6358,-3.6358,-3.6358,-3.6358,-3.6358,2.0079,2.0323,2.0479,2.0157,1.8948,1.7747,1.7423,1.5959,1.4489,1.4166,1.4088,1.4088,1.4088,1.4088,1.4088,1.4088,1.347,1.2334,1.0783,0.9923,0.8882,0.7312,0.7139,0.7061,0.7084,0.5727,0.3484,0.0268,0.0,-0.1522,-0.5145,-0.7021,-0.7965,-0.8038,-0.8038,-0.8627,-0.9998,-1.1268,-1.2528,-1.3878,-1.5146,-1.5832,-1.5832,-1.5832,-1.5832,-1.5825,-1.6662,-1.777,-1.9039,-2.0666,-2.1756,-2.258,-2.295,-2.3135,-2.3135,-2.3135,-2.3135,-2.3135,-2.3135,-2.3135,-2.3135,-2.3135,-2.3135,-2.3223,-2.3662,-2.4082,-2.4502,-2.4941,-2.6029,-2.6754,-2.5927,-2.6294,-2.6754,-2.5917,-2.639,-2.703,-2.7494,-2.8588,-2.9498,-2.9954,-2.9315,-2.868,-2.8215,-2.8495,-2.9223,-3.0406,-3.1943,-3.3293,-3.4532,-3.568,-3.6358,-3.6358,-3.6358,-3.6358,-3.6358,-3.6358,-3.6358,-3.6358,-3.6358,-3.6358,-3.6358,-3.6358,-3.6358,-3.6358,-3.6358,-3.6358,-3.6358,-3.6358,-3.6358,-3.6358,-3.6358,-3.6358,0.0,0.0,0.0,1.9195,1.8957,1.863,1.7496,1.6437,1.5462,1.4334,1.4173,1.4173,1.4088,1.4088,1.4088,1.4082,1.3997,1.3215,1.0956,1.0524,0.9657,0.7401,0.7139,0.7061,0.7081,0.7094,0.5198,0.0447,0.0,-0.229,-0.7597,-0.7946,-0.7975,-0.8041,-0.8038,-0.8627,-0.9899,-1.1165,-1.2522,-1.3872,-1.5146,-1.573,-1.5832,-1.5832,-1.5832,-1.5832,-1.5832,-1.648,-1.787,-2.0215,-2.1203,-2.1382,-2.258,-2.3047,-2.3047,-2.3047,-2.3047,-2.3135,-2.3135,-2.3135,-2.3135,-2.3135,-2.3135,-2.3213,-2.3643,-2.4072,-2.4502,-2.4932,-2.5381,-2.5742,-2.5742,-2.5742,-2.5742,-2.5742,-2.5742,-2.6014,-2.7315,-2.8495,-2.8958,-2.7861,-2.7589,-2.7125,-2.5917,-2.6764,-2.7955,-2.9131,-3.1379,-3.3293,-3.4532,-3.568,-3.6358,-3.6358,-3.6358,-3.6358,-3.6358,-3.6358,-3.6358,-3.6358,-3.6358,-3.6358,-3.6358,-3.6358,-3.6358,-3.6358,-3.6358,-3.6358,-3.6358,-3.6358,-3.6358,-3.6358,-3.6358,-3.6358,1.798,0.0,0.0,0.0,0.0,0.0,1.6355,1.6519,1.6363,1.4496,1.4734,1.5061,1.425,1.4088,1.3822,1.2942,1.2077,1.1305,1.0697,0.9139,0.7834,0.7139,0.7139,0.7143,0.7061,0.7084,0.5866,0.2829,0.1032,-0.1534,-0.4964,-0.6976,-0.7965,-0.8038,-0.8038,-0.8137,-0.8528,-0.9899,-1.1165,-1.2431,-1.3782,-1.4949,-1.5832,-1.5832,-1.5832,-1.5832,-1.5832,-1.6015,-1.648,-1.8041,-1.9222,-2.0034,-2.0404,-2.1033,-2.1756,-2.1756,-2.2306,-2.3135,-2.3135,-2.3135,-2.3135,-2.3135,-2.3135,-2.3164,-2.3281,-2.3828,-2.4443,-2.456,-2.5146,-2.5742,-2.5742,-2.5742,-2.5742,-2.5742,-2.5742,-2.583,-2.61,-2.6476,-2.6935,-2.7494,-2.6849,-2.611,-2.5732,-2.6014,-2.6658,-2.7955,-3.0058,-3.1935,-3.3188,-3.5189,-3.6061,-3.5078,-3.5858,-3.5966,-3.5078,-3.5858,-3.6358,-3.6358,-3.6358,-3.6358,-3.6358,-3.6358,-3.6358,-3.6358,-3.6358,-3.6358,-3.6358,-3.6358,-3.6358,-3.6358,-3.6358,-3.6358,1.6846,1.6927,1.7172,1.6764,0.0,0.0,1.5343,1.5501,1.5328,1.3105,1.3178,1.3419,1.2772,1.2607,1.2431,1.1729,1.0611,0.9923,0.9923,0.8711,0.7665,0.7139,0.7061,0.7064,0.7064,0.7098,0.6532,0.5172,0.1883,-0.0675,-0.2274,-0.5917,-0.7982,-0.7955,-0.7952,-0.8048,-0.8038,-0.9316,-1.0386,-1.1165,-1.2425,-1.3782,-1.5045,-1.5045,-1.5337,-1.5832,-1.5832,-1.5832,-1.5832,-1.6574,-1.7677,-1.8772,-1.9314,-2.0215,-2.1293,-2.1293,-2.2031,-2.3135,-2.3135,-2.3135,-2.3135,-2.3135,-2.3135,-2.3135,-2.3135,-2.374,-2.4414,-2.4414,-2.5059,-2.5742,-2.5742,-2.5742,-2.5742,-2.5742,-2.5742,-2.5742,-2.5742,-2.5742,-2.5927,-2.6658,-2.6197,-2.5742,-2.5742,-2.5742,-2.61,-2.74,-2.9021,-3.0585,-3.1947,-3.3612,-3.435,-3.3563,-3.4252,-3.4654,-3.4385,-3.5078,-3.5763,-3.6358,-3.6358,-3.6358,-3.6358,-3.6358,-3.6358,-3.6358,-3.6358,-3.6358,-3.6358,-3.6358,-3.6358,-3.6358,-3.6358,-3.6358,1.5365,1.6108,1.6683,1.5606,1.6101,0.0,1.4497,1.4065,1.3555,1.1466,1.1123,1.1123,1.0869,1.0869,1.0869,1.0438,0.9662,0.9065,0.889,0.8803,0.8277,0.7228,0.7071,0.7084,0.7084,0.7131,0.7131,0.7092,0.2654,0.0,0.0,-0.4541,-0.7287,-0.7666,-0.7872,-0.7962,-0.8038,-0.9217,-0.9903,-0.9998,-1.117,-1.2431,-1.3878,-1.3878,-1.4561,-1.5832,-1.5832,-1.5832,-1.5832,-1.5832,-1.648,-1.7598,-1.868,-1.9935,-2.1114,-2.1114,-2.1943,-2.3135,-2.3135,-2.3135,-2.3135,-2.3135,-2.3135,-2.3135,-2.3135,-2.3701,-2.4365,-2.4463,-2.5088,-2.5742,-2.5742,-2.5742,-2.5742,-2.5742,-2.5742,-2.5742,-2.5742,-2.5742,-2.5742,-2.5742,-2.5742,-2.5742,-2.5742,-2.5742,-2.611,-2.722,-2.8268,-2.9437,-3.05,-3.1638,-3.223,-3.2129,-3.223,-3.2744,-3.3871,-3.408,-3.4775,-3.6061,-3.6168,-3.6263,-3.6358,-3.6358,-3.6358,-3.6358,-3.6358,-3.6358,-3.6358,-3.6358,-3.6358,-3.6358,-3.6358,-3.6358,1.3419,1.3866,1.4475,1.3262,1.3827,0.0,1.4139,1.4747,1.4954,1.3711,1.4119,1.4176,1.2322,1.2772,1.2522,0.9666,0.9836,0.9923,0.9065,0.8105,0.7404,0.7139,0.7071,0.7084,0.7084,0.7134,0.7098,0.7146,0.2646,0.0,0.0,-0.1006,-0.2914,-0.5827,-0.7253,-0.7962,-0.8038,-0.8237,-0.8924,-0.9998,-1.0293,-1.1648,-1.3878,-1.3878,-1.4561,-1.5832,-1.5832,-1.5832,-1.5832,-1.5832,-1.592,-1.6197,-1.6473,-1.7848,-1.9852,-1.9852,-2.1221,-2.3135,-2.3135,-2.3135,-2.3135,-2.3135,-2.3135,-2.3135,-2.3135,-2.3506,-2.4053,-2.4746,-2.5322,-2.5742,-2.5742,-2.5742,-2.5742,-2.5742,-2.5742,-2.5742,-2.5742,-2.5742,-2.5742,-2.5742,-2.5742,-2.5742,-2.5742,-2.5742,-2.5732,-2.6014,-2.7693,-2.9042,-2.9338,-3.1141,-3.1927,-3.0824,-3.1633,-3.1927,-3.1133,-3.214,-3.3254,-3.4678,-3.4775,-3.5271,-3.6358,-3.6358,-3.6358,-3.6358,-3.6358,-3.6358,-3.6358,-3.6358,-3.6358,-3.6358,-3.6358,-3.6358,1.1889,1.1906,1.2169,1.1558,1.1884,0.0,0.0,1.1866,1.1923,1.0859,1.1016,1.1086,0.9904,1.0173,1.0005,0.8277,0.8448,0.8619,0.8101,0.7492,0.7139,0.7139,0.7078,0.6637,0.5455,0.4292,0.3565,0.3575,0.1392,0.0,0.0,0.0,-0.0805,-0.261,-0.6142,-0.7972,-0.7955,-0.8045,-0.8333,-0.9019,-0.9019,-0.9993,-1.1935,-1.2619,-1.359,-1.4854,-1.5534,-1.5832,-1.5832,-1.5832,-1.5832,-1.5832,-1.5832,-1.6936,-1.8596,-1.8596,-1.977,-2.1311,-2.1311,-2.1311,-2.14,-2.2041,-2.2217,-2.2306,-2.295,-2.3594,-2.4238,-2.4883,-2.5391,-2.5742,-2.5742,-2.5742,-2.5742,-2.5742,-2.5742,-2.5742,-2.5742,-2.5742,-2.5742,-2.5742,-2.5742,-2.5742,-2.5742,-2.5742,-2.5742,-2.5742,-2.7033,-2.7985,-2.7985,-2.9352,-3.0016,-2.9408,-2.9911,-3.0317,-3.0317,-3.0927,-3.1938,-3.3254,-3.3353,-3.3958,-3.5367,-3.5367,-3.5763,-3.6358,-3.6358,-3.6358,-3.6358,-3.6358,-3.6358,-3.6358,-3.6358,-3.6358,1.0611,1.0438,1.0524,1.0351,1.0269,1.0096,0.0,0.0,0.0,0.7925,0.7749,0.7749,0.7489,0.7661,0.7661,0.7139,0.7316,0.7404,0.7139,0.7139,0.7139,0.7139,0.7081,0.6189,0.3838,0.1373,0.0,0.0,0.0,0.0,0.0,0.0,0.0,0.0,-0.473,-0.7472,-0.7972,-0.7952,-0.8038,-0.8038,-0.8038,-0.8726,-0.9998,-1.1361,-1.2619,-1.3974,-1.5242,-1.5832,-1.5832,-1.5832,-1.5832,-1.5832,-1.5832,-1.6574,-1.7692,-1.7692,-1.8503,-1.9497,-1.9497,-1.9497,-1.967,-2.0666,-2.1114,-2.1569,-2.2765,-2.374,-2.4492,-2.4844,-2.5322,-2.5742,-2.5742,-2.5742,-2.5742,-2.5742,-2.5742,-2.5742,-2.5742,-2.5742,-2.5742,-2.5742,-2.5742,-2.5742,-2.5742,-2.5742,-2.5742,-2.5742,-2.6465,-2.7012,-2.7012,-2.7764,-2.8291,-2.8291,-2.8291,-2.8698,-2.9807,-2.9911,-3.0525,-3.1825,-3.1927,-3.2543,-3.397,-3.3981,-3.4471,-3.5547,-3.5655,-3.575,-3.5966,-3.575,-3.5858,-3.6358,-3.6358,-3.6358,0.9405,0.9836,1.0351,0.9323,0.9061,0.9323,1.0183,0.0,0.9148,1.0005,0.0,0.9918,0.8886,0.0,0.0,0.7401,0.8017,0.8277,0.7228,0.7139,0.7139,0.7139,0.7081,0.6189,0.3838,0.1391,0.0,0.0,0.0,0.0,0.0,0.0,0.0,0.0,-0.2912,-0.5632,-0.7972,-0.7952,-0.8038,-0.8038,-0.8038,-0.8726,-0.9998,-1.1361,-1.2619,-1.3974,-1.5242,-1.5832,-1.5832,-1.5832,-1.5832,-1.5832,-1.5832,-1.6574,-1.7692,-1.7692,-1.8503,-1.9497,-1.9497,-1.9497,-1.9497,-1.967,-2.0395,-2.1569,-2.2765,-2.374,-2.4424,-2.4473,-2.5098,-2.5742,-2.5742,-2.5742,-2.5742,-2.5742,-2.5742,-2.5742,-2.5742,-2.5742,-2.5742,-2.5742,-2.5742,-2.5742,-2.5742,-2.5742,-2.5742,-2.5742,-2.6465,-2.7012,-2.7012,-2.7764,-2.8291,-2.8291,-2.8291,-2.8398,-2.8495,-2.8495,-2.9102,-3.0421,-3.0514,-3.1122,-3.2431,-3.2543,-3.2644,-3.2733,-3.2733,-3.3353,-3.4581,-3.3342,-3.4032,-3.6358,-3.6358,-3.6358,0.8189,0.8197,0.8468,0.7948,0.7867,0.7959,0.848,0.822,0.7959,0.8468,0.0,0.0,0.0,0.0,0.0,0.0,0.7492,0.7665,0.7139,0.7064,0.7071,0.7071,0.7161,0.5796,0.1879,0.0575,0.0,0.0,0.0,0.0,0.0,0.0,0.0,0.0,-0.1106,-0.3718,-0.7982,-0.7965,-0.7952,-0.8038,-0.8038,-0.8336,-0.892,-1.097,-1.2237,-1.2818,-1.4956,-1.5832,-1.5832,-1.5832,-1.5832,-1.5832,-1.5832,-1.6109,-1.6574,-1.6574,-1.6936,-1.739,-1.739,-1.739,-1.7576,-1.9031,-2.0305,-2.1569,-2.2765,-2.3564,-2.4102,-2.4346,-2.4863,-2.541,-2.5674,-2.5742,-2.5742,-2.5742,-2.5742,-2.5742,-2.5742,-2.5742,-2.5742,-2.5742,-2.5742,-2.5742,-2.5742,-2.5742,-2.5742,-2.5742,-2.6465,-2.7012,-2.7012,-2.7764,-2.8291,-2.8291,-2.8291,-2.8291,-2.8291,-2.8291,-2.8495,-2.9102,-2.9911,-3.0514,-3.1122,-3.1927,-3.2331,-3.2331,-3.2331,-3.2543,-3.3155,-3.2543,-3.2932,-3.4044,-3.486,-3.5667,0.7323,0.7074,0.6907,0.6269,0.618,0.6097,0.6097,0.6097,0.6097,0.6177,0.6634,0.0,0.0,0.0,0.7064,0.7064,0.0,0.7064,0.7064,0.7081,0.7088,0.7084,0.7228,0.5351,0.0487,0.0,0.0,0.0,0.0,0.0,0.0,0.0,0.0,0.0,0.0,-0.2211,-0.6859,-0.7669,-0.7962,-0.8038,-0.8038,-0.8038,-0.8038,-1.0386,-1.156,-1.2042,-1.4274,-1.5439,-1.5832,-1.5832,-1.5832,-1.5832,-1.5832,-1.5832,-1.5832,-1.5832,-1.5832,-1.5832,-1.5832,-1.5832,-1.6103,-1.8311,-1.9852,-2.0935,-2.1854,-2.2706,-2.3314,-2.3345,-2.3956,-2.4679,-2.5013,-2.543,-2.5742,-2.5742,-2.5742,-2.5742,-2.5742,-2.5742,-2.5742,-2.5742,-2.5742,-2.5742,-2.5742,-2.5742,-2.5742,-2.5742,-2.6465,-2.7012,-2.7012,-2.7764,-2.8291,-2.8291,-2.8291,-2.8291,-2.8291,-2.8291,-2.8291,-2.8291,-2.9207,-2.9702,-2.9702,-3.0721,-3.1224,-3.1224,-3.1224,-3.1429,-3.1724,-3.1429,-3.1622,-3.2331,-3.3353,-3.4569,0.7084,0.7091,0.6554,0.4287,0.3749,0.3749,0.3749,0.3749,0.3749,0.3749,0.5552,0.7101,0.7101,0.7101,0.7101,0.7101,0.7101,0.0,0.0,0.7101,0.7098,0.7088,0.7063,0.5279,0.0489,0.0,0.0,0.0,0.0,0.0,0.0,0.0,0.0,0.0,0.0,-0.1306,-0.4116,-0.6745,-0.7962,-0.8038,-0.8038,-0.8038,-0.8038,-0.941,-1.0681,-1.1945,-1.3392,-1.4657,-1.5832,-1.5832,-1.5832,-1.5832,-1.5832,-1.5832,-1.5832,-1.5832,-1.5832,-1.5832,-1.5832,-1.5832,-1.6015,-1.7318,-1.8588,-1.9579,-1.9579,-2.0772,-2.1821,-2.0948,-2.2005,-2.3399,-2.3691,-2.4716,-2.5742,-2.5742,-2.5742,-2.5742,-2.5742,-2.5742,-2.5742,-2.5742,-2.5742,-2.5742,-2.5742,-2.5742,-2.5742,-2.5742,-2.6465,-2.7012,-2.7012,-2.7764,-2.8291,-2.8291,-2.8291,-2.8291,-2.8291,-2.8291,-2.8291,-2.8291,-2.8291,-2.8398,-2.8398,-2.8398,-2.8398,-2.8398,-2.8398,-2.9102,-3.0317,-2.9112,-2.9713,-3.2331,-3.2331,-3.3155,0.0,0.0,0.6939,0.6117,0.3587,0.1254,0.1254,0.1254,0.1254,0.1251,0.1877,0.2861,0.4472,0.4828,0.4828,0.4828,0.4828,0.4828,0.0,0.6109,0.6551,0.4942,0.3385,0.3165,0.5092,0.21,0.0,0.0,0.0,0.0,0.0,0.0,0.0,0.0,0.0,-0.1309,-0.4016,-0.6653,-0.7969,-0.8038,-0.8038,-0.8038,-0.8038,-0.941,-1.0681,-1.1945,-1.3295,-1.4657,-1.5832,-1.5832,-1.5832,-1.5832,-1.5832,-1.5832,-1.5832,-1.5832,-1.5832,-1.5832,-1.5832,-1.5832,-1.6015,-1.7318,-1.7963,-1.8503,-1.9222,-1.9862,-2.0365,-2.0595,-2.1046,-2.1873,-2.3314,-2.3998,-2.4609,-2.5528,-2.5742,-2.5742,-2.5742,-2.5742,-2.5742,-2.5742,-2.5742,-2.5742,-2.5742,-2.5742,-2.5742,-2.5742,-2.6465,-2.7012,-2.7012,-2.7764,-2.8291,-2.8291,-2.8291,-2.8291,-2.8291,-2.8291,-2.8291,-2.8291,-2.8291,-2.8291,-2.8291,-2.8291,-2.8291,-2.8291,-2.8291,-2.8495,-2.9006,-2.8495,-2.8804,-2.9608,-2.9608,-3.1338,0.5287,0.4667,0.0,0.4589,0.2247,0.0,0.0,0.0,0.0,0.0,0.0,0.0448,0.2057,0.2324,0.2324,0.2324,0.2324,0.2952,0.0,0.6132,0.5866,0.266,0.0954,0.1355,0.4836,0.2019,0.0,0.0,0.0,0.0,0.0,0.0,0.0,0.0,0.0,-0.0806,-0.261,-0.6147,-0.7975,-0.7952,-0.8041,-0.8038,-0.8038,-0.8924,-0.9998,-1.1263,-1.2134,-1.3199,-1.4465,-1.4949,-1.5146,-1.5146,-1.5635,-1.5832,-1.5832,-1.5832,-1.5832,-1.5832,-1.5832,-1.5832,-1.592,-1.6763,-1.7318,-1.7777,-1.8126,-1.8488,-1.8867,-1.8925,-1.9414,-2.02,-2.1551,-2.2775,-2.389,-2.4815,-2.5333,-2.5742,-2.5742,-2.5742,-2.5742,-2.5742,-2.5742,-2.5742,-2.5742,-2.5742,-2.5742,-2.5742,-2.6465,-2.7012,-2.7012,-2.7764,-2.8291,-2.8291,-2.8291,-2.8291,-2.8291,-2.8291,-2.8291,-2.8291,-2.8291,-2.8291,-2.8291,-2.8291,-2.8223,-2.8066,-2.8223,-2.8223,-2.8066,-2.8223,-2.8291,-2.8291,-2.8291,-3.0224]}]]